<?xml version="1.0" encoding="UTF-8" standalone="no" ?>
<gpx xmlns="http://www.topografix.com/GPX/1/1" xmlns:gpxtpx="http://www.garmin.com/xmlschemas/TrackPointExtension/v1" creator="OruxMaps" version="1.1" xmlns:xsi="http://www.w3.org/2001/XMLSchema-instance" xsi:schemaLocation="http://www.topografix.com/GPX/1/1 http://www.topografix.com/GPX/1/1/gpx.xsd">
<metadata>
<name><![CDATA[2011-08-03 07:55]]></name>
<desc><![CDATA[]]></desc>
<link href="http://www.oruxmaps.com">
<text>OruxMaps</text>
</link>
<time>2011-08-03T05:55:07Z</time><bounds maxlat="49.15016826" maxlon="11.60394866" minlat="49.01117882" minlon="11.43751388"/>
</metadata>
<trk>
<name><![CDATA[2011-08-03 07:55]]></name>
<desc><![CDATA[<h1>OruxMaps</h1><br /><h2>Name: 2011-08-03 07:55</h2><br /><p>Startzeit: 08/03/2011 07:55</p><p>Zielzeit: 08/03/2011 10:49</p><p>Distanz: 49,1 km (02:53)</p><p>Bewegungszeit: 02:18</p><p>Durchschnitts-Geschw.: 17 km/h</p><p>Netto Geschwindigkeit21,3 km/h</p><p>Max. Geschwindigkeit: 0 km/h</p><p>Maximale Höhe: 403 m</p><p>Minimale Höhe: 606 m</p><p>Steig-Geschw.: 409,4 m/h</p><p>Sink-Geschw.: -506,8 m/h</p><p>Aufstieg: 345 m</p><p>Abstieg: -347 m</p><p>Steigzeit: 00:50</p><p>Sinkzeit: 00:41</p>]]></desc>
<type>Unbestimmt</type>
<trkseg>
<trkpt lat="49.14266651" lon="11.46200005">
<ele>497.3</ele>
<time>2011-08-03T05:55:43Z</time>
</trkpt>
<trkpt lat="49.14282866" lon="11.46187157">
<ele>496.03333</ele>
<time>2011-08-03T05:56:09Z</time>
</trkpt>
<trkpt lat="49.14297459" lon="11.46205927">
<ele>495.23334</ele>
<time>2011-08-03T05:56:19Z</time>
</trkpt>
<trkpt lat="49.14314932" lon="11.46219249">
<ele>494.5</ele>
<time>2011-08-03T05:56:25Z</time>
</trkpt>
<trkpt lat="49.14334789" lon="11.46219258">
<ele>496.03333</ele>
<time>2011-08-03T05:56:32Z</time>
</trkpt>
<trkpt lat="49.14355054" lon="11.46215889">
<ele>497.26666</ele>
<time>2011-08-03T05:56:39Z</time>
</trkpt>
<trkpt lat="49.14374081" lon="11.46214528">
<ele>498.13333</ele>
<time>2011-08-03T05:56:45Z</time>
</trkpt>
<trkpt lat="49.14414035" lon="11.46219055">
<ele>499.1</ele>
<time>2011-08-03T05:56:57Z</time>
</trkpt>
<trkpt lat="49.14433546" lon="11.46225896">
<ele>499.9</ele>
<time>2011-08-03T05:57:04Z</time>
</trkpt>
<trkpt lat="49.14454192" lon="11.46242086">
<ele>500.96667</ele>
<time>2011-08-03T05:57:11Z</time>
</trkpt>
<trkpt lat="49.14466964" lon="11.46263538">
<ele>500.63333</ele>
<time>2011-08-03T05:57:18Z</time>
</trkpt>
<trkpt lat="49.14477796" lon="11.4628573">
<ele>500.93332</ele>
<time>2011-08-03T05:57:25Z</time>
</trkpt>
<trkpt lat="49.14486918" lon="11.46310257">
<ele>501.76666</ele>
<time>2011-08-03T05:57:34Z</time>
</trkpt>
<trkpt lat="49.14494602" lon="11.46337556">
<ele>503.2</ele>
<time>2011-08-03T05:57:42Z</time>
</trkpt>
<trkpt lat="49.14503547" lon="11.46363289">
<ele>504.86667</ele>
<time>2011-08-03T05:57:50Z</time>
</trkpt>
<trkpt lat="49.14512569" lon="11.46390923">
<ele>506.16666</ele>
<time>2011-08-03T05:57:57Z</time>
</trkpt>
<trkpt lat="49.14520048" lon="11.46418139">
<ele>508.16666</ele>
<time>2011-08-03T05:58:06Z</time>
</trkpt>
<trkpt lat="49.14530309" lon="11.46448116">
<ele>509.7</ele>
<time>2011-08-03T05:58:16Z</time>
</trkpt>
<trkpt lat="49.14525172" lon="11.46475217">
<ele>511.66666</ele>
<time>2011-08-03T05:58:25Z</time>
</trkpt>
<trkpt lat="49.14506125" lon="11.46478455">
<ele>513.8333</ele>
<time>2011-08-03T05:58:36Z</time>
</trkpt>
<trkpt lat="49.14492268" lon="11.4645599">
<ele>516.9667</ele>
<time>2011-08-03T05:58:45Z</time>
</trkpt>
<trkpt lat="49.14481632" lon="11.46427718">
<ele>520.36664</ele>
<time>2011-08-03T05:58:55Z</time>
</trkpt>
<trkpt lat="49.14466585" lon="11.46403019">
<ele>524.06665</ele>
<time>2011-08-03T05:59:08Z</time>
</trkpt>
<trkpt lat="49.14454598" lon="11.46381441">
<ele>526.6667</ele>
<time>2011-08-03T05:59:18Z</time>
</trkpt>
<trkpt lat="49.14436796" lon="11.46369369">
<ele>529.5</ele>
<time>2011-08-03T05:59:26Z</time>
</trkpt>
<trkpt lat="49.14418475" lon="11.46358045">
<ele>532.0</ele>
<time>2011-08-03T05:59:38Z</time>
</trkpt>
<trkpt lat="49.14399566" lon="11.46352876">
<ele>535.2</ele>
<time>2011-08-03T05:59:49Z</time>
</trkpt>
<trkpt lat="49.14381571" lon="11.46353553">
<ele>538.06665</ele>
<time>2011-08-03T06:00:02Z</time>
</trkpt>
<trkpt lat="49.14366004" lon="11.46367519">
<ele>540.13336</ele>
<time>2011-08-03T06:00:15Z</time>
</trkpt>
<trkpt lat="49.1435059" lon="11.46388401">
<ele>542.0333</ele>
<time>2011-08-03T06:00:33Z</time>
</trkpt>
<trkpt lat="49.14336473" lon="11.46406077">
<ele>544.86664</ele>
<time>2011-08-03T06:00:42Z</time>
</trkpt>
<trkpt lat="49.14327257" lon="11.46430322">
<ele>548.5333</ele>
<time>2011-08-03T06:00:53Z</time>
</trkpt>
<trkpt lat="49.14318606" lon="11.46456448">
<ele>551.8</ele>
<time>2011-08-03T06:01:08Z</time>
</trkpt>
<trkpt lat="49.14305727" lon="11.46478883">
<ele>554.76666</ele>
<time>2011-08-03T06:01:18Z</time>
</trkpt>
<trkpt lat="49.14291052" lon="11.46497445">
<ele>556.6</ele>
<time>2011-08-03T06:01:26Z</time>
</trkpt>
<trkpt lat="49.1428302" lon="11.46524783">
<ele>559.0333</ele>
<time>2011-08-03T06:01:36Z</time>
</trkpt>
<trkpt lat="49.1427288" lon="11.46551385">
<ele>559.86664</ele>
<time>2011-08-03T06:01:46Z</time>
</trkpt>
<trkpt lat="49.14261573" lon="11.46575934">
<ele>561.36664</ele>
<time>2011-08-03T06:01:57Z</time>
</trkpt>
<trkpt lat="49.14253857" lon="11.46600986">
<ele>561.8333</ele>
<time>2011-08-03T06:02:06Z</time>
</trkpt>
<trkpt lat="49.14246139" lon="11.46629726">
<ele>562.5333</ele>
<time>2011-08-03T06:02:17Z</time>
</trkpt>
<trkpt lat="49.14241689" lon="11.46659456">
<ele>563.06665</ele>
<time>2011-08-03T06:02:30Z</time>
</trkpt>
<trkpt lat="49.1423174" lon="11.46683231">
<ele>564.0333</ele>
<time>2011-08-03T06:02:37Z</time>
</trkpt>
<trkpt lat="49.14222995" lon="11.46708133">
<ele>565.23334</ele>
<time>2011-08-03T06:02:46Z</time>
</trkpt>
<trkpt lat="49.14210314" lon="11.46729478">
<ele>566.26666</ele>
<time>2011-08-03T06:02:54Z</time>
</trkpt>
<trkpt lat="49.14200389" lon="11.46754935">
<ele>567.43335</ele>
<time>2011-08-03T06:03:06Z</time>
</trkpt>
<trkpt lat="49.14194306" lon="11.46782222">
<ele>568.63336</ele>
<time>2011-08-03T06:03:31Z</time>
</trkpt>
<trkpt lat="49.14187825" lon="11.46808419">
<ele>570.2</ele>
<time>2011-08-03T06:03:43Z</time>
</trkpt>
<trkpt lat="49.14175752" lon="11.46840776">
<ele>570.8333</ele>
<time>2011-08-03T06:03:54Z</time>
</trkpt>
<trkpt lat="49.14167983" lon="11.46868941">
<ele>572.9</ele>
<time>2011-08-03T06:04:07Z</time>
</trkpt>
<trkpt lat="49.14164376" lon="11.46896428">
<ele>574.5333</ele>
<time>2011-08-03T06:04:17Z</time>
</trkpt>
<trkpt lat="49.14163937" lon="11.46925832">
<ele>575.0</ele>
<time>2011-08-03T06:04:25Z</time>
</trkpt>
<trkpt lat="49.14161784" lon="11.46954969">
<ele>572.8333</ele>
<time>2011-08-03T06:04:36Z</time>
</trkpt>
<trkpt lat="49.14167163" lon="11.4698927">
<ele>570.2</ele>
<time>2011-08-03T06:04:46Z</time>
</trkpt>
<trkpt lat="49.14172962" lon="11.4701567">
<ele>569.63336</ele>
<time>2011-08-03T06:04:54Z</time>
</trkpt>
<trkpt lat="49.14167476" lon="11.4704202">
<ele>570.7</ele>
<time>2011-08-03T06:05:02Z</time>
</trkpt>
<trkpt lat="49.14158222" lon="11.47076433">
<ele>572.13336</ele>
<time>2011-08-03T06:05:12Z</time>
</trkpt>
<trkpt lat="49.1415393" lon="11.47103685">
<ele>573.13336</ele>
<time>2011-08-03T06:05:20Z</time>
</trkpt>
<trkpt lat="49.14144167" lon="11.47131352">
<ele>573.8</ele>
<time>2011-08-03T06:05:27Z</time>
</trkpt>
<trkpt lat="49.14137559" lon="11.47156911">
<ele>574.4667</ele>
<time>2011-08-03T06:05:34Z</time>
</trkpt>
<trkpt lat="49.14128207" lon="11.47181239">
<ele>574.93335</ele>
<time>2011-08-03T06:05:41Z</time>
</trkpt>
<trkpt lat="49.14119009" lon="11.47212693">
<ele>575.5333</ele>
<time>2011-08-03T06:05:51Z</time>
</trkpt>
<trkpt lat="49.1411241" lon="11.4723956">
<ele>576.1</ele>
<time>2011-08-03T06:05:57Z</time>
</trkpt>
<trkpt lat="49.1411112" lon="11.4726815">
<ele>577.63336</ele>
<time>2011-08-03T06:06:08Z</time>
</trkpt>
<trkpt lat="49.14103731" lon="11.47295471">
<ele>579.26666</ele>
<time>2011-08-03T06:06:17Z</time>
</trkpt>
<trkpt lat="49.14095549" lon="11.47321231">
<ele>580.4</ele>
<time>2011-08-03T06:06:23Z</time>
</trkpt>
<trkpt lat="49.14085489" lon="11.47361488">
<ele>581.06665</ele>
<time>2011-08-03T06:06:30Z</time>
</trkpt>
<trkpt lat="49.14079805" lon="11.47391631">
<ele>581.1667</ele>
<time>2011-08-03T06:06:35Z</time>
</trkpt>
<trkpt lat="49.14071164" lon="11.4743217">
<ele>582.26666</ele>
<time>2011-08-03T06:06:43Z</time>
</trkpt>
<trkpt lat="49.14064934" lon="11.47458654">
<ele>584.06665</ele>
<time>2011-08-03T06:06:48Z</time>
</trkpt>
<trkpt lat="49.14054775" lon="11.47483954">
<ele>586.36664</ele>
<time>2011-08-03T06:06:52Z</time>
</trkpt>
<trkpt lat="49.1404872" lon="11.47515388">
<ele>587.56665</ele>
<time>2011-08-03T06:06:57Z</time>
</trkpt>
<trkpt lat="49.14048508" lon="11.4754326">
<ele>588.43335</ele>
<time>2011-08-03T06:07:02Z</time>
</trkpt>
<trkpt lat="49.14047987" lon="11.4757903">
<ele>588.6667</ele>
<time>2011-08-03T06:07:09Z</time>
</trkpt>
<trkpt lat="49.14044476" lon="11.47608133">
<ele>589.43335</ele>
<time>2011-08-03T06:07:15Z</time>
</trkpt>
<trkpt lat="49.14039031" lon="11.47634766">
<ele>589.93335</ele>
<time>2011-08-03T06:07:19Z</time>
</trkpt>
<trkpt lat="49.14030819" lon="11.47659458">
<ele>590.6</ele>
<time>2011-08-03T06:07:23Z</time>
</trkpt>
<trkpt lat="49.14022005" lon="11.47684887">
<ele>591.4667</ele>
<time>2011-08-03T06:07:28Z</time>
</trkpt>
<trkpt lat="49.14011035" lon="11.47723017">
<ele>592.9667</ele>
<time>2011-08-03T06:07:35Z</time>
</trkpt>
<trkpt lat="49.13999688" lon="11.47746053">
<ele>594.43335</ele>
<time>2011-08-03T06:07:39Z</time>
</trkpt>
<trkpt lat="49.13998307" lon="11.47775517">
<ele>595.3</ele>
<time>2011-08-03T06:07:44Z</time>
</trkpt>
<trkpt lat="49.13997891" lon="11.47809321">
<ele>595.4</ele>
<time>2011-08-03T06:07:49Z</time>
</trkpt>
<trkpt lat="49.13993454" lon="11.47837484">
<ele>596.1667</ele>
<time>2011-08-03T06:07:54Z</time>
</trkpt>
<trkpt lat="49.13991603" lon="11.47876085">
<ele>598.3</ele>
<time>2011-08-03T06:08:01Z</time>
</trkpt>
<trkpt lat="49.13980387" lon="11.47897617">
<ele>600.5</ele>
<time>2011-08-03T06:08:04Z</time>
</trkpt>
<trkpt lat="49.13978455" lon="11.47931561">
<ele>602.9</ele>
<time>2011-08-03T06:08:09Z</time>
</trkpt>
<trkpt lat="49.13976472" lon="11.47975314">
<ele>604.4</ele>
<time>2011-08-03T06:08:14Z</time>
</trkpt>
<trkpt lat="49.13976319" lon="11.48010059">
<ele>605.2</ele>
<time>2011-08-03T06:08:18Z</time>
</trkpt>
<trkpt lat="49.13978332" lon="11.48037356">
<ele>605.26666</ele>
<time>2011-08-03T06:08:21Z</time>
</trkpt>
<trkpt lat="49.13982843" lon="11.48066538">
<ele>605.3333</ele>
<time>2011-08-03T06:08:24Z</time>
</trkpt>
<trkpt lat="49.13980779" lon="11.48096938">
<ele>605.76666</ele>
<time>2011-08-03T06:08:27Z</time>
</trkpt>
<trkpt lat="49.13983522" lon="11.48127346">
<ele>606.0333</ele>
<time>2011-08-03T06:08:30Z</time>
</trkpt>
<trkpt lat="49.13987531" lon="11.48158595">
<ele>606.23334</ele>
<time>2011-08-03T06:08:33Z</time>
</trkpt>
<trkpt lat="49.13987452" lon="11.48200033">
<ele>606.13336</ele>
<time>2011-08-03T06:08:36Z</time>
</trkpt>
<trkpt lat="49.13979327" lon="11.48252025">
<ele>605.8</ele>
<time>2011-08-03T06:08:40Z</time>
</trkpt>
<trkpt lat="49.13972539" lon="11.48290862">
<ele>605.36664</ele>
<time>2011-08-03T06:08:43Z</time>
</trkpt>
<trkpt lat="49.13966623" lon="11.48327289">
<ele>605.13336</ele>
<time>2011-08-03T06:08:46Z</time>
</trkpt>
<trkpt lat="49.13958821" lon="11.48354165">
<ele>604.86664</ele>
<time>2011-08-03T06:08:48Z</time>
</trkpt>
<trkpt lat="49.13951715" lon="11.48379711">
<ele>603.63336</ele>
<time>2011-08-03T06:08:50Z</time>
</trkpt>
<trkpt lat="49.13935913" lon="11.484156">
<ele>601.7</ele>
<time>2011-08-03T06:08:53Z</time>
</trkpt>
<trkpt lat="49.13921941" lon="11.48449491">
<ele>599.4</ele>
<time>2011-08-03T06:08:56Z</time>
</trkpt>
<trkpt lat="49.13904861" lon="11.48480507">
<ele>597.93335</ele>
<time>2011-08-03T06:08:59Z</time>
</trkpt>
<trkpt lat="49.13890266" lon="11.48511269">
<ele>597.0</ele>
<time>2011-08-03T06:09:02Z</time>
</trkpt>
<trkpt lat="49.13866441" lon="11.48554336">
<ele>596.5333</ele>
<time>2011-08-03T06:09:06Z</time>
</trkpt>
<trkpt lat="49.13855221" lon="11.48578585">
<ele>596.0333</ele>
<time>2011-08-03T06:09:08Z</time>
</trkpt>
<trkpt lat="49.13850551" lon="11.48606459">
<ele>595.7</ele>
<time>2011-08-03T06:09:10Z</time>
</trkpt>
<trkpt lat="49.13848247" lon="11.48634158">
<ele>595.1667</ele>
<time>2011-08-03T06:09:12Z</time>
</trkpt>
<trkpt lat="49.138509" lon="11.48663007">
<ele>594.63336</ele>
<time>2011-08-03T06:09:14Z</time>
</trkpt>
<trkpt lat="49.13853661" lon="11.48691028">
<ele>594.26666</ele>
<time>2011-08-03T06:09:16Z</time>
</trkpt>
<trkpt lat="49.13859623" lon="11.48734118">
<ele>594.3</ele>
<time>2011-08-03T06:09:19Z</time>
</trkpt>
<trkpt lat="49.13870906" lon="11.48770942">
<ele>594.0</ele>
<time>2011-08-03T06:09:22Z</time>
</trkpt>
<trkpt lat="49.13882477" lon="11.4879293">
<ele>593.36664</ele>
<time>2011-08-03T06:09:24Z</time>
</trkpt>
<trkpt lat="49.13883469" lon="11.48831004">
<ele>592.7</ele>
<time>2011-08-03T06:09:27Z</time>
</trkpt>
<trkpt lat="49.1389075" lon="11.48883052">
<ele>591.86664</ele>
<time>2011-08-03T06:09:32Z</time>
</trkpt>
<trkpt lat="49.13900377" lon="11.48907073">
<ele>591.3</ele>
<time>2011-08-03T06:09:35Z</time>
</trkpt>
<trkpt lat="49.1390562" lon="11.48938626">
<ele>590.0333</ele>
<time>2011-08-03T06:09:40Z</time>
</trkpt>
<trkpt lat="49.13923049" lon="11.4895272">
<ele>585.1667</ele>
<time>2011-08-03T06:10:40Z</time>
</trkpt>
<trkpt lat="49.13941248" lon="11.48945221">
<ele>579.86664</ele>
<time>2011-08-03T06:10:47Z</time>
</trkpt>
<trkpt lat="49.13957927" lon="11.48927213">
<ele>575.4667</ele>
<time>2011-08-03T06:10:53Z</time>
</trkpt>
<trkpt lat="49.13971338" lon="11.48902241">
<ele>575.26666</ele>
<time>2011-08-03T06:10:58Z</time>
</trkpt>
<trkpt lat="49.13986414" lon="11.48869125">
<ele>575.3</ele>
<time>2011-08-03T06:11:03Z</time>
</trkpt>
<trkpt lat="49.14000661" lon="11.48838857">
<ele>575.23334</ele>
<time>2011-08-03T06:11:07Z</time>
</trkpt>
<trkpt lat="49.14013211" lon="11.4881543">
<ele>575.1</ele>
<time>2011-08-03T06:11:10Z</time>
</trkpt>
<trkpt lat="49.14027648" lon="11.48791176">
<ele>574.63336</ele>
<time>2011-08-03T06:11:13Z</time>
</trkpt>
<trkpt lat="49.14044381" lon="11.4876624">
<ele>573.93335</ele>
<time>2011-08-03T06:11:16Z</time>
</trkpt>
<trkpt lat="49.14062366" lon="11.48739007">
<ele>572.93335</ele>
<time>2011-08-03T06:11:19Z</time>
</trkpt>
<trkpt lat="49.14081476" lon="11.48709621">
<ele>572.0</ele>
<time>2011-08-03T06:11:22Z</time>
</trkpt>
<trkpt lat="49.14095284" lon="11.48689193">
<ele>570.93335</ele>
<time>2011-08-03T06:11:24Z</time>
</trkpt>
<trkpt lat="49.1411077" lon="11.48671804">
<ele>570.0</ele>
<time>2011-08-03T06:11:26Z</time>
</trkpt>
<trkpt lat="49.14137084" lon="11.48657087">
<ele>569.6667</ele>
<time>2011-08-03T06:11:29Z</time>
</trkpt>
<trkpt lat="49.14160378" lon="11.48648047">
<ele>569.86664</ele>
<time>2011-08-03T06:11:32Z</time>
</trkpt>
<trkpt lat="49.14180443" lon="11.48637939">
<ele>570.4</ele>
<time>2011-08-03T06:11:35Z</time>
</trkpt>
<trkpt lat="49.14197198" lon="11.48653784">
<ele>570.6667</ele>
<time>2011-08-03T06:11:38Z</time>
</trkpt>
<trkpt lat="49.14213895" lon="11.48691209">
<ele>570.23334</ele>
<time>2011-08-03T06:11:42Z</time>
</trkpt>
<trkpt lat="49.14223687" lon="11.48722234">
<ele>569.7</ele>
<time>2011-08-03T06:11:46Z</time>
</trkpt>
<trkpt lat="49.14227478" lon="11.48754317">
<ele>568.4</ele>
<time>2011-08-03T06:11:51Z</time>
</trkpt>
<trkpt lat="49.14230434" lon="11.48785748">
<ele>567.1667</ele>
<time>2011-08-03T06:11:57Z</time>
</trkpt>
<trkpt lat="49.14234165" lon="11.48815925">
<ele>565.73334</ele>
<time>2011-08-03T06:12:00Z</time>
</trkpt>
<trkpt lat="49.14233401" lon="11.4884403">
<ele>565.0</ele>
<time>2011-08-03T06:12:02Z</time>
</trkpt>
<trkpt lat="49.14232648" lon="11.48878955">
<ele>563.8333</ele>
<time>2011-08-03T06:12:04Z</time>
</trkpt>
<trkpt lat="49.14231937" lon="11.48946902">
<ele>561.73334</ele>
<time>2011-08-03T06:12:08Z</time>
</trkpt>
<trkpt lat="49.14229886" lon="11.48982473">
<ele>559.6667</ele>
<time>2011-08-03T06:12:10Z</time>
</trkpt>
<trkpt lat="49.14227073" lon="11.49016077">
<ele>558.56665</ele>
<time>2011-08-03T06:12:12Z</time>
</trkpt>
<trkpt lat="49.14228175" lon="11.49050344">
<ele>558.43335</ele>
<time>2011-08-03T06:12:14Z</time>
</trkpt>
<trkpt lat="49.14230793" lon="11.49087428">
<ele>558.3333</ele>
<time>2011-08-03T06:12:16Z</time>
</trkpt>
<trkpt lat="49.14238228" lon="11.49119826">
<ele>557.8333</ele>
<time>2011-08-03T06:12:18Z</time>
</trkpt>
<trkpt lat="49.14268006" lon="11.49151388">
<ele>557.4667</ele>
<time>2011-08-03T06:12:21Z</time>
</trkpt>
<trkpt lat="49.14290451" lon="11.49172629">
<ele>556.9667</ele>
<time>2011-08-03T06:12:23Z</time>
</trkpt>
<trkpt lat="49.14313122" lon="11.4919023">
<ele>556.2</ele>
<time>2011-08-03T06:12:25Z</time>
</trkpt>
<trkpt lat="49.14335159" lon="11.49202314">
<ele>555.23334</ele>
<time>2011-08-03T06:12:27Z</time>
</trkpt>
<trkpt lat="49.14356646" lon="11.49213029">
<ele>554.3</ele>
<time>2011-08-03T06:12:29Z</time>
</trkpt>
<trkpt lat="49.14380403" lon="11.49223478">
<ele>553.0</ele>
<time>2011-08-03T06:12:31Z</time>
</trkpt>
<trkpt lat="49.14411159" lon="11.49253527">
<ele>551.0333</ele>
<time>2011-08-03T06:12:34Z</time>
</trkpt>
<trkpt lat="49.14421678" lon="11.49288277">
<ele>548.23334</ele>
<time>2011-08-03T06:12:36Z</time>
</trkpt>
<trkpt lat="49.14424825" lon="11.49322015">
<ele>545.5333</ele>
<time>2011-08-03T06:12:38Z</time>
</trkpt>
<trkpt lat="49.14424937" lon="11.49354756">
<ele>542.9</ele>
<time>2011-08-03T06:12:40Z</time>
</trkpt>
<trkpt lat="49.14423773" lon="11.49385758">
<ele>541.06665</ele>
<time>2011-08-03T06:12:42Z</time>
</trkpt>
<trkpt lat="49.14437404" lon="11.49444529">
<ele>539.56665</ele>
<time>2011-08-03T06:12:47Z</time>
</trkpt>
<trkpt lat="49.14456694" lon="11.4945294">
<ele>539.4</ele>
<time>2011-08-03T06:12:50Z</time>
</trkpt>
<trkpt lat="49.14476174" lon="11.49465183">
<ele>539.1</ele>
<time>2011-08-03T06:12:53Z</time>
</trkpt>
<trkpt lat="49.14491473" lon="11.49492771">
<ele>538.8333</ele>
<time>2011-08-03T06:12:56Z</time>
</trkpt>
<trkpt lat="49.14506995" lon="11.49536891">
<ele>537.3</ele>
<time>2011-08-03T06:13:00Z</time>
</trkpt>
<trkpt lat="49.14514498" lon="11.49571752">
<ele>535.36664</ele>
<time>2011-08-03T06:13:03Z</time>
</trkpt>
<trkpt lat="49.14519756" lon="11.49608909">
<ele>533.6667</ele>
<time>2011-08-03T06:13:06Z</time>
</trkpt>
<trkpt lat="49.14521832" lon="11.49645473">
<ele>532.6</ele>
<time>2011-08-03T06:13:09Z</time>
</trkpt>
<trkpt lat="49.14520264" lon="11.49692851">
<ele>532.76666</ele>
<time>2011-08-03T06:13:13Z</time>
</trkpt>
<trkpt lat="49.14517465" lon="11.49727471">
<ele>532.9</ele>
<time>2011-08-03T06:13:16Z</time>
</trkpt>
<trkpt lat="49.14515989" lon="11.4976227">
<ele>533.5333</ele>
<time>2011-08-03T06:13:19Z</time>
</trkpt>
<trkpt lat="49.14516717" lon="11.49792778">
<ele>533.8</ele>
<time>2011-08-03T06:13:22Z</time>
</trkpt>
<trkpt lat="49.1452035" lon="11.4983621">
<ele>534.3</ele>
<time>2011-08-03T06:13:26Z</time>
</trkpt>
<trkpt lat="49.14523456" lon="11.49878328">
<ele>535.6</ele>
<time>2011-08-03T06:13:29Z</time>
</trkpt>
<trkpt lat="49.14528413" lon="11.49917734">
<ele>535.5</ele>
<time>2011-08-03T06:13:32Z</time>
</trkpt>
<trkpt lat="49.14532268" lon="11.49957148">
<ele>534.3333</ele>
<time>2011-08-03T06:13:35Z</time>
</trkpt>
<trkpt lat="49.14538036" lon="11.5001825">
<ele>530.13336</ele>
<time>2011-08-03T06:13:39Z</time>
</trkpt>
<trkpt lat="49.14540197" lon="11.50051648">
<ele>526.43335</ele>
<time>2011-08-03T06:13:41Z</time>
</trkpt>
<trkpt lat="49.14542846" lon="11.50087162">
<ele>522.73334</ele>
<time>2011-08-03T06:13:43Z</time>
</trkpt>
<trkpt lat="49.14544668" lon="11.50122761">
<ele>520.4</ele>
<time>2011-08-03T06:13:45Z</time>
</trkpt>
<trkpt lat="49.14546596" lon="11.50156764">
<ele>518.36664</ele>
<time>2011-08-03T06:13:47Z</time>
</trkpt>
<trkpt lat="49.14548692" lon="11.50189331">
<ele>517.13336</ele>
<time>2011-08-03T06:13:49Z</time>
</trkpt>
<trkpt lat="49.14550383" lon="11.50234723">
<ele>516.3333</ele>
<time>2011-08-03T06:13:52Z</time>
</trkpt>
<trkpt lat="49.14551726" lon="11.50263788">
<ele>515.9667</ele>
<time>2011-08-03T06:13:54Z</time>
</trkpt>
<trkpt lat="49.14550118" lon="11.50292299">
<ele>515.73334</ele>
<time>2011-08-03T06:13:56Z</time>
</trkpt>
<trkpt lat="49.14551231" lon="11.50320661">
<ele>515.5</ele>
<time>2011-08-03T06:13:58Z</time>
</trkpt>
<trkpt lat="49.14551261" lon="11.50358012">
<ele>515.3</ele>
<time>2011-08-03T06:14:01Z</time>
</trkpt>
<trkpt lat="49.14552322" lon="11.50408475">
<ele>515.2</ele>
<time>2011-08-03T06:14:05Z</time>
</trkpt>
<trkpt lat="49.14552142" lon="11.50440694">
<ele>515.26666</ele>
<time>2011-08-03T06:14:08Z</time>
</trkpt>
<trkpt lat="49.14550695" lon="11.504741">
<ele>515.2</ele>
<time>2011-08-03T06:14:11Z</time>
</trkpt>
<trkpt lat="49.14551251" lon="11.50507827">
<ele>514.9667</ele>
<time>2011-08-03T06:14:14Z</time>
</trkpt>
<trkpt lat="49.14548871" lon="11.50556329">
<ele>515.06665</ele>
<time>2011-08-03T06:14:18Z</time>
</trkpt>
<trkpt lat="49.14549327" lon="11.50588786">
<ele>515.1</ele>
<time>2011-08-03T06:14:21Z</time>
</trkpt>
<trkpt lat="49.14548452" lon="11.50630583">
<ele>514.56665</ele>
<time>2011-08-03T06:14:24Z</time>
</trkpt>
<trkpt lat="49.14546112" lon="11.50658633">
<ele>512.8</ele>
<time>2011-08-03T06:14:26Z</time>
</trkpt>
<trkpt lat="49.14544712" lon="11.50687594">
<ele>510.63333</ele>
<time>2011-08-03T06:14:28Z</time>
</trkpt>
<trkpt lat="49.14539186" lon="11.50733486">
<ele>508.1</ele>
<time>2011-08-03T06:14:31Z</time>
</trkpt>
<trkpt lat="49.14535461" lon="11.50763824">
<ele>506.4</ele>
<time>2011-08-03T06:14:33Z</time>
</trkpt>
<trkpt lat="49.14529556" lon="11.50796797">
<ele>505.43332</ele>
<time>2011-08-03T06:14:35Z</time>
</trkpt>
<trkpt lat="49.14524595" lon="11.50828091">
<ele>505.53333</ele>
<time>2011-08-03T06:14:37Z</time>
</trkpt>
<trkpt lat="49.14519427" lon="11.50856212">
<ele>505.6</ele>
<time>2011-08-03T06:14:39Z</time>
</trkpt>
<trkpt lat="49.14513416" lon="11.50885405">
<ele>505.53333</ele>
<time>2011-08-03T06:14:41Z</time>
</trkpt>
<trkpt lat="49.14509479" lon="11.50925395">
<ele>505.93332</ele>
<time>2011-08-03T06:14:44Z</time>
</trkpt>
<trkpt lat="49.14508654" lon="11.50964737">
<ele>505.73334</ele>
<time>2011-08-03T06:14:47Z</time>
</trkpt>
<trkpt lat="49.14508612" lon="11.50995857">
<ele>505.2</ele>
<time>2011-08-03T06:14:50Z</time>
</trkpt>
<trkpt lat="49.14511095" lon="11.51023515">
<ele>504.0</ele>
<time>2011-08-03T06:14:59Z</time>
</trkpt>
<trkpt lat="49.14511043" lon="11.51051759">
<ele>502.3</ele>
<time>2011-08-03T06:15:58Z</time>
</trkpt>
<trkpt lat="49.1451846" lon="11.51080785">
<ele>501.93332</ele>
<time>2011-08-03T06:16:04Z</time>
</trkpt>
<trkpt lat="49.14526616" lon="11.51115231">
<ele>501.96667</ele>
<time>2011-08-03T06:16:08Z</time>
</trkpt>
<trkpt lat="49.14530683" lon="11.51141951">
<ele>502.76666</ele>
<time>2011-08-03T06:16:11Z</time>
</trkpt>
<trkpt lat="49.14541055" lon="11.51175297">
<ele>501.96667</ele>
<time>2011-08-03T06:16:15Z</time>
</trkpt>
<trkpt lat="49.14559932" lon="11.51177192">
<ele>499.93332</ele>
<time>2011-08-03T06:16:21Z</time>
</trkpt>
<trkpt lat="49.14579381" lon="11.51171141">
<ele>498.1</ele>
<time>2011-08-03T06:16:28Z</time>
</trkpt>
<trkpt lat="49.14597435" lon="11.51166403">
<ele>496.93332</ele>
<time>2011-08-03T06:16:36Z</time>
</trkpt>
<trkpt lat="49.14615285" lon="11.51170891">
<ele>496.23334</ele>
<time>2011-08-03T06:16:41Z</time>
</trkpt>
<trkpt lat="49.14638435" lon="11.51188366">
<ele>496.1</ele>
<time>2011-08-03T06:16:46Z</time>
</trkpt>
<trkpt lat="49.14656711" lon="11.51201387">
<ele>496.7</ele>
<time>2011-08-03T06:16:49Z</time>
</trkpt>
<trkpt lat="49.14678782" lon="11.51209908">
<ele>497.93332</ele>
<time>2011-08-03T06:16:52Z</time>
</trkpt>
<trkpt lat="49.14703658" lon="11.51220793">
<ele>498.56668</ele>
<time>2011-08-03T06:16:55Z</time>
</trkpt>
<trkpt lat="49.14727665" lon="11.51232711">
<ele>498.66666</ele>
<time>2011-08-03T06:16:58Z</time>
</trkpt>
<trkpt lat="49.14745046" lon="11.51241403">
<ele>498.76666</ele>
<time>2011-08-03T06:17:00Z</time>
</trkpt>
<trkpt lat="49.14763985" lon="11.51249547">
<ele>499.0</ele>
<time>2011-08-03T06:17:02Z</time>
</trkpt>
<trkpt lat="49.14788889" lon="11.51254557">
<ele>499.13333</ele>
<time>2011-08-03T06:17:05Z</time>
</trkpt>
<trkpt lat="49.14812578" lon="11.51256394">
<ele>499.33334</ele>
<time>2011-08-03T06:17:08Z</time>
</trkpt>
<trkpt lat="49.14837739" lon="11.51265261">
<ele>499.7</ele>
<time>2011-08-03T06:17:11Z</time>
</trkpt>
<trkpt lat="49.14864358" lon="11.51262894">
<ele>499.76666</ele>
<time>2011-08-03T06:17:14Z</time>
</trkpt>
<trkpt lat="49.14886046" lon="11.51261311">
<ele>500.03333</ele>
<time>2011-08-03T06:17:17Z</time>
</trkpt>
<trkpt lat="49.14910265" lon="11.5126306">
<ele>500.16666</ele>
<time>2011-08-03T06:17:20Z</time>
</trkpt>
<trkpt lat="49.14929038" lon="11.51258111">
<ele>500.4</ele>
<time>2011-08-03T06:17:23Z</time>
</trkpt>
<trkpt lat="49.1494889" lon="11.51265281">
<ele>500.36667</ele>
<time>2011-08-03T06:17:26Z</time>
</trkpt>
<trkpt lat="49.14971273" lon="11.51284404">
<ele>500.13333</ele>
<time>2011-08-03T06:17:29Z</time>
</trkpt>
<trkpt lat="49.150017" lon="11.51311642">
<ele>499.56668</ele>
<time>2011-08-03T06:17:34Z</time>
</trkpt>
<trkpt lat="49.15016826" lon="11.51339454">
<ele>497.53333</ele>
<time>2011-08-03T06:17:37Z</time>
</trkpt>
<trkpt lat="49.15010912" lon="11.51372128">
<ele>494.86667</ele>
<time>2011-08-03T06:17:41Z</time>
</trkpt>
<trkpt lat="49.14986716" lon="11.51406173">
<ele>491.6</ele>
<time>2011-08-03T06:17:47Z</time>
</trkpt>
<trkpt lat="49.14970572" lon="11.51428659">
<ele>489.06668</ele>
<time>2011-08-03T06:17:51Z</time>
</trkpt>
<trkpt lat="49.14957135" lon="11.51447863">
<ele>486.7</ele>
<time>2011-08-03T06:17:54Z</time>
</trkpt>
<trkpt lat="49.14932956" lon="11.51484761">
<ele>484.66666</ele>
<time>2011-08-03T06:18:00Z</time>
</trkpt>
<trkpt lat="49.14915465" lon="11.51505083">
<ele>483.03333</ele>
<time>2011-08-03T06:18:04Z</time>
</trkpt>
<trkpt lat="49.14895115" lon="11.51520743">
<ele>481.7</ele>
<time>2011-08-03T06:18:08Z</time>
</trkpt>
<trkpt lat="49.14867813" lon="11.51533667">
<ele>480.93332</ele>
<time>2011-08-03T06:18:13Z</time>
</trkpt>
<trkpt lat="49.14847152" lon="11.51542648">
<ele>480.6</ele>
<time>2011-08-03T06:18:17Z</time>
</trkpt>
<trkpt lat="49.14827206" lon="11.51551943">
<ele>480.6</ele>
<time>2011-08-03T06:18:21Z</time>
</trkpt>
<trkpt lat="49.14801359" lon="11.51562098">
<ele>480.43332</ele>
<time>2011-08-03T06:18:26Z</time>
</trkpt>
<trkpt lat="49.14783935" lon="11.51570155">
<ele>480.13333</ele>
<time>2011-08-03T06:18:29Z</time>
</trkpt>
<trkpt lat="49.14766928" lon="11.51583621">
<ele>479.73334</ele>
<time>2011-08-03T06:18:33Z</time>
</trkpt>
<trkpt lat="49.14739733" lon="11.51601014">
<ele>479.7</ele>
<time>2011-08-03T06:18:39Z</time>
</trkpt>
<trkpt lat="49.14724371" lon="11.51616391">
<ele>479.56668</ele>
<time>2011-08-03T06:18:43Z</time>
</trkpt>
<trkpt lat="49.14708445" lon="11.51634618">
<ele>479.53333</ele>
<time>2011-08-03T06:18:47Z</time>
</trkpt>
<trkpt lat="49.14689739" lon="11.51659339">
<ele>479.5</ele>
<time>2011-08-03T06:18:52Z</time>
</trkpt>
<trkpt lat="49.14674812" lon="11.51680697">
<ele>479.13333</ele>
<time>2011-08-03T06:18:56Z</time>
</trkpt>
<trkpt lat="49.14661366" lon="11.51705685">
<ele>479.16666</ele>
<time>2011-08-03T06:19:01Z</time>
</trkpt>
<trkpt lat="49.1464823" lon="11.51728175">
<ele>479.46667</ele>
<time>2011-08-03T06:19:06Z</time>
</trkpt>
<trkpt lat="49.14638931" lon="11.51755544">
<ele>480.43332</ele>
<time>2011-08-03T06:19:11Z</time>
</trkpt>
<trkpt lat="49.14618042" lon="11.51787299">
<ele>482.2</ele>
<time>2011-08-03T06:19:18Z</time>
</trkpt>
<trkpt lat="49.14605427" lon="11.51816348">
<ele>484.1</ele>
<time>2011-08-03T06:19:24Z</time>
</trkpt>
<trkpt lat="49.14587505" lon="11.51857148">
<ele>486.03333</ele>
<time>2011-08-03T06:19:31Z</time>
</trkpt>
<trkpt lat="49.14577648" lon="11.51880134">
<ele>486.6</ele>
<time>2011-08-03T06:19:35Z</time>
</trkpt>
<trkpt lat="49.14563289" lon="11.51906868">
<ele>486.96667</ele>
<time>2011-08-03T06:19:40Z</time>
</trkpt>
<trkpt lat="49.14539637" lon="11.51924735">
<ele>486.36667</ele>
<time>2011-08-03T06:19:44Z</time>
</trkpt>
<trkpt lat="49.14521961" lon="11.51938014">
<ele>485.8</ele>
<time>2011-08-03T06:19:47Z</time>
</trkpt>
<trkpt lat="49.14502644" lon="11.51949443">
<ele>485.03333</ele>
<time>2011-08-03T06:19:50Z</time>
</trkpt>
<trkpt lat="49.144839" lon="11.51959874">
<ele>484.8</ele>
<time>2011-08-03T06:19:53Z</time>
</trkpt>
<trkpt lat="49.14456875" lon="11.51967011">
<ele>484.6</ele>
<time>2011-08-03T06:19:57Z</time>
</trkpt>
<trkpt lat="49.14437026" lon="11.51973722">
<ele>484.5</ele>
<time>2011-08-03T06:20:00Z</time>
</trkpt>
<trkpt lat="49.14416319" lon="11.51981805">
<ele>484.16666</ele>
<time>2011-08-03T06:20:03Z</time>
</trkpt>
<trkpt lat="49.1439383" lon="11.51985621">
<ele>484.06668</ele>
<time>2011-08-03T06:20:06Z</time>
</trkpt>
<trkpt lat="49.14362792" lon="11.51998311">
<ele>483.43332</ele>
<time>2011-08-03T06:20:10Z</time>
</trkpt>
<trkpt lat="49.14341303" lon="11.52008007">
<ele>482.9</ele>
<time>2011-08-03T06:20:13Z</time>
</trkpt>
<trkpt lat="49.14320717" lon="11.52019102">
<ele>482.2</ele>
<time>2011-08-03T06:20:16Z</time>
</trkpt>
<trkpt lat="49.14297563" lon="11.52028435">
<ele>481.56668</ele>
<time>2011-08-03T06:20:19Z</time>
</trkpt>
<trkpt lat="49.14266248" lon="11.52039198">
<ele>481.36667</ele>
<time>2011-08-03T06:20:23Z</time>
</trkpt>
<trkpt lat="49.14243566" lon="11.52046652">
<ele>481.4</ele>
<time>2011-08-03T06:20:26Z</time>
</trkpt>
<trkpt lat="49.14219558" lon="11.52055522">
<ele>481.66666</ele>
<time>2011-08-03T06:20:29Z</time>
</trkpt>
<trkpt lat="49.14197507" lon="11.52064544">
<ele>481.76666</ele>
<time>2011-08-03T06:20:32Z</time>
</trkpt>
<trkpt lat="49.14168966" lon="11.52074433">
<ele>481.53333</ele>
<time>2011-08-03T06:20:36Z</time>
</trkpt>
<trkpt lat="49.14147962" lon="11.52081378">
<ele>481.23334</ele>
<time>2011-08-03T06:20:39Z</time>
</trkpt>
<trkpt lat="49.14126323" lon="11.52095337">
<ele>481.16666</ele>
<time>2011-08-03T06:20:43Z</time>
</trkpt>
<trkpt lat="49.14102226" lon="11.52114546">
<ele>480.93332</ele>
<time>2011-08-03T06:20:49Z</time>
</trkpt>
<trkpt lat="49.14083997" lon="11.5212709">
<ele>481.1</ele>
<time>2011-08-03T06:20:54Z</time>
</trkpt>
<trkpt lat="49.14061206" lon="11.52148866">
<ele>481.66666</ele>
<time>2011-08-03T06:21:02Z</time>
</trkpt>
<trkpt lat="49.14043215" lon="11.52167199">
<ele>482.43332</ele>
<time>2011-08-03T06:21:08Z</time>
</trkpt>
<trkpt lat="49.14021237" lon="11.52184415">
<ele>482.96667</ele>
<time>2011-08-03T06:21:15Z</time>
</trkpt>
<trkpt lat="49.14010817" lon="11.5220909">
<ele>483.4</ele>
<time>2011-08-03T06:21:21Z</time>
</trkpt>
<trkpt lat="49.13997835" lon="11.52231873">
<ele>484.3</ele>
<time>2011-08-03T06:21:28Z</time>
</trkpt>
<trkpt lat="49.13980243" lon="11.52246675">
<ele>484.9</ele>
<time>2011-08-03T06:21:33Z</time>
</trkpt>
<trkpt lat="49.13961042" lon="11.5227548">
<ele>485.13333</ele>
<time>2011-08-03T06:21:41Z</time>
</trkpt>
<trkpt lat="49.13947662" lon="11.52296635">
<ele>485.33334</ele>
<time>2011-08-03T06:21:46Z</time>
</trkpt>
<trkpt lat="49.13925187" lon="11.52323817">
<ele>486.53333</ele>
<time>2011-08-03T06:21:54Z</time>
</trkpt>
<trkpt lat="49.13909517" lon="11.52339357">
<ele>488.13333</ele>
<time>2011-08-03T06:21:59Z</time>
</trkpt>
<trkpt lat="49.13893358" lon="11.52353753">
<ele>489.76666</ele>
<time>2011-08-03T06:22:04Z</time>
</trkpt>
<trkpt lat="49.13873446" lon="11.52364403">
<ele>490.46667</ele>
<time>2011-08-03T06:22:09Z</time>
</trkpt>
<trkpt lat="49.13855395" lon="11.52379252">
<ele>490.3</ele>
<time>2011-08-03T06:22:14Z</time>
</trkpt>
<trkpt lat="49.13833563" lon="11.52399471">
<ele>489.3</ele>
<time>2011-08-03T06:22:20Z</time>
</trkpt>
<trkpt lat="49.13813106" lon="11.5241154">
<ele>488.7</ele>
<time>2011-08-03T06:22:25Z</time>
</trkpt>
<trkpt lat="49.13792449" lon="11.52420457">
<ele>488.86667</ele>
<time>2011-08-03T06:22:30Z</time>
</trkpt>
<trkpt lat="49.13774209" lon="11.52427602">
<ele>490.2</ele>
<time>2011-08-03T06:22:34Z</time>
</trkpt>
<trkpt lat="49.13755897" lon="11.52429268">
<ele>491.73334</ele>
<time>2011-08-03T06:22:38Z</time>
</trkpt>
<trkpt lat="49.13733881" lon="11.52429703">
<ele>493.36667</ele>
<time>2011-08-03T06:22:43Z</time>
</trkpt>
<trkpt lat="49.13715391" lon="11.52428052">
<ele>493.66666</ele>
<time>2011-08-03T06:22:47Z</time>
</trkpt>
<trkpt lat="49.13693813" lon="11.5242416">
<ele>493.2</ele>
<time>2011-08-03T06:22:51Z</time>
</trkpt>
<trkpt lat="49.13672486" lon="11.52417818">
<ele>491.7</ele>
<time>2011-08-03T06:22:55Z</time>
</trkpt>
<trkpt lat="49.13652251" lon="11.52409599">
<ele>490.73334</ele>
<time>2011-08-03T06:22:59Z</time>
</trkpt>
<trkpt lat="49.13634182" lon="11.52401824">
<ele>489.86667</ele>
<time>2011-08-03T06:23:02Z</time>
</trkpt>
<trkpt lat="49.13614648" lon="11.52392185">
<ele>489.36667</ele>
<time>2011-08-03T06:23:05Z</time>
</trkpt>
<trkpt lat="49.13590933" lon="11.52381104">
<ele>488.96667</ele>
<time>2011-08-03T06:23:08Z</time>
</trkpt>
<trkpt lat="49.13555612" lon="11.52368927">
<ele>488.7</ele>
<time>2011-08-03T06:23:12Z</time>
</trkpt>
<trkpt lat="49.13535683" lon="11.52368149">
<ele>488.53333</ele>
<time>2011-08-03T06:23:14Z</time>
</trkpt>
<trkpt lat="49.13514493" lon="11.52364081">
<ele>488.43332</ele>
<time>2011-08-03T06:23:16Z</time>
</trkpt>
<trkpt lat="49.13494252" lon="11.52358253">
<ele>488.36667</ele>
<time>2011-08-03T06:23:18Z</time>
</trkpt>
<trkpt lat="49.13474322" lon="11.52354069">
<ele>488.33334</ele>
<time>2011-08-03T06:23:20Z</time>
</trkpt>
<trkpt lat="49.13456208" lon="11.52351975">
<ele>488.26666</ele>
<time>2011-08-03T06:23:22Z</time>
</trkpt>
<trkpt lat="49.13363029" lon="11.52367263">
<ele>488.0</ele>
<time>2011-08-03T06:23:34Z</time>
</trkpt>
<trkpt lat="49.13116563" lon="11.52316041">
<ele>487.56668</ele>
<time>2011-08-03T06:24:05Z</time>
</trkpt>
<trkpt lat="49.13098769" lon="11.52305082">
<ele>487.16666</ele>
<time>2011-08-03T06:24:07Z</time>
</trkpt>
<trkpt lat="49.13076164" lon="11.52291516">
<ele>486.66666</ele>
<time>2011-08-03T06:24:10Z</time>
</trkpt>
<trkpt lat="49.13037884" lon="11.52290383">
<ele>486.53333</ele>
<time>2011-08-03T06:24:16Z</time>
</trkpt>
<trkpt lat="49.1301524" lon="11.52284705">
<ele>486.3</ele>
<time>2011-08-03T06:24:19Z</time>
</trkpt>
<trkpt lat="49.12993249" lon="11.52279583">
<ele>485.53333</ele>
<time>2011-08-03T06:24:22Z</time>
</trkpt>
<trkpt lat="49.12975112" lon="11.5227561">
<ele>484.66666</ele>
<time>2011-08-03T06:24:25Z</time>
</trkpt>
<trkpt lat="49.12951642" lon="11.52268231">
<ele>483.86667</ele>
<time>2011-08-03T06:24:29Z</time>
</trkpt>
<trkpt lat="49.12929817" lon="11.52260239">
<ele>483.8</ele>
<time>2011-08-03T06:24:33Z</time>
</trkpt>
<trkpt lat="49.12908623" lon="11.52255385">
<ele>483.66666</ele>
<time>2011-08-03T06:24:37Z</time>
</trkpt>
<trkpt lat="49.12886803" lon="11.52251092">
<ele>483.26666</ele>
<time>2011-08-03T06:24:42Z</time>
</trkpt>
<trkpt lat="49.12865231" lon="11.52246792">
<ele>482.8</ele>
<time>2011-08-03T06:24:46Z</time>
</trkpt>
<trkpt lat="49.12843349" lon="11.52241635">
<ele>482.16666</ele>
<time>2011-08-03T06:24:50Z</time>
</trkpt>
<trkpt lat="49.12819433" lon="11.52240447">
<ele>481.7</ele>
<time>2011-08-03T06:24:55Z</time>
</trkpt>
<trkpt lat="49.12800667" lon="11.52240787">
<ele>481.53333</ele>
<time>2011-08-03T06:24:59Z</time>
</trkpt>
<trkpt lat="49.12780256" lon="11.52239101">
<ele>481.56668</ele>
<time>2011-08-03T06:25:08Z</time>
</trkpt>
<trkpt lat="49.12776086" lon="11.52211701">
<ele>481.13333</ele>
<time>2011-08-03T06:25:30Z</time>
</trkpt>
<trkpt lat="49.12757437" lon="11.52197133">
<ele>479.7</ele>
<time>2011-08-03T06:26:01Z</time>
</trkpt>
<trkpt lat="49.1273607" lon="11.52188607">
<ele>480.13333</ele>
<time>2011-08-03T06:26:06Z</time>
</trkpt>
<trkpt lat="49.12713888" lon="11.52165459">
<ele>482.36667</ele>
<time>2011-08-03T06:26:10Z</time>
</trkpt>
<trkpt lat="49.12696329" lon="11.52145422">
<ele>485.43332</ele>
<time>2011-08-03T06:26:13Z</time>
</trkpt>
<trkpt lat="49.12679387" lon="11.52125083">
<ele>486.96667</ele>
<time>2011-08-03T06:26:16Z</time>
</trkpt>
<trkpt lat="49.12664087" lon="11.52104908">
<ele>486.46667</ele>
<time>2011-08-03T06:26:19Z</time>
</trkpt>
<trkpt lat="49.12646643" lon="11.52082084">
<ele>486.4</ele>
<time>2011-08-03T06:26:22Z</time>
</trkpt>
<trkpt lat="49.12624075" lon="11.52056907">
<ele>486.53333</ele>
<time>2011-08-03T06:26:26Z</time>
</trkpt>
<trkpt lat="49.12607702" lon="11.52040371">
<ele>487.36667</ele>
<time>2011-08-03T06:26:29Z</time>
</trkpt>
<trkpt lat="49.12591193" lon="11.52022189">
<ele>487.73334</ele>
<time>2011-08-03T06:26:32Z</time>
</trkpt>
<trkpt lat="49.1257554" lon="11.52005012">
<ele>487.63333</ele>
<time>2011-08-03T06:26:35Z</time>
</trkpt>
<trkpt lat="49.12555603" lon="11.51982116">
<ele>487.0</ele>
<time>2011-08-03T06:26:39Z</time>
</trkpt>
<trkpt lat="49.12536953" lon="11.51963172">
<ele>486.06668</ele>
<time>2011-08-03T06:26:43Z</time>
</trkpt>
<trkpt lat="49.1251908" lon="11.51946185">
<ele>485.2</ele>
<time>2011-08-03T06:26:47Z</time>
</trkpt>
<trkpt lat="49.12490358" lon="11.51925583">
<ele>485.3</ele>
<time>2011-08-03T06:26:52Z</time>
</trkpt>
<trkpt lat="49.124731" lon="11.51911716">
<ele>486.06668</ele>
<time>2011-08-03T06:26:55Z</time>
</trkpt>
<trkpt lat="49.12455486" lon="11.51900021">
<ele>486.7</ele>
<time>2011-08-03T06:26:58Z</time>
</trkpt>
<trkpt lat="49.12437913" lon="11.51885502">
<ele>487.53333</ele>
<time>2011-08-03T06:27:01Z</time>
</trkpt>
<trkpt lat="49.12414162" lon="11.51861105">
<ele>487.9</ele>
<time>2011-08-03T06:27:05Z</time>
</trkpt>
<trkpt lat="49.12397013" lon="11.51845688">
<ele>488.13333</ele>
<time>2011-08-03T06:27:08Z</time>
</trkpt>
<trkpt lat="49.12377263" lon="11.51829889">
<ele>487.56668</ele>
<time>2011-08-03T06:27:11Z</time>
</trkpt>
<trkpt lat="49.12359703" lon="11.51806906">
<ele>487.03333</ele>
<time>2011-08-03T06:27:14Z</time>
</trkpt>
<trkpt lat="49.12337313" lon="11.51779113">
<ele>486.5</ele>
<time>2011-08-03T06:27:18Z</time>
</trkpt>
<trkpt lat="49.12321212" lon="11.51763223">
<ele>485.86667</ele>
<time>2011-08-03T06:27:21Z</time>
</trkpt>
<trkpt lat="49.12305443" lon="11.51746522">
<ele>485.43332</ele>
<time>2011-08-03T06:27:24Z</time>
</trkpt>
<trkpt lat="49.1228481" lon="11.51729527">
<ele>484.86667</ele>
<time>2011-08-03T06:27:28Z</time>
</trkpt>
<trkpt lat="49.12264404" lon="11.5171746">
<ele>484.33334</ele>
<time>2011-08-03T06:27:32Z</time>
</trkpt>
<trkpt lat="49.12243459" lon="11.51705703">
<ele>483.8</ele>
<time>2011-08-03T06:27:36Z</time>
</trkpt>
<trkpt lat="49.12220538" lon="11.51702901">
<ele>483.2</ele>
<time>2011-08-03T06:27:41Z</time>
</trkpt>
<trkpt lat="49.12201662" lon="11.51683432">
<ele>482.96667</ele>
<time>2011-08-03T06:27:45Z</time>
</trkpt>
<trkpt lat="49.12187644" lon="11.51656763">
<ele>482.86667</ele>
<time>2011-08-03T06:27:49Z</time>
</trkpt>
<trkpt lat="49.12171107" lon="11.51640084">
<ele>483.6</ele>
<time>2011-08-03T06:27:52Z</time>
</trkpt>
<trkpt lat="49.12143381" lon="11.51609523">
<ele>484.06668</ele>
<time>2011-08-03T06:27:57Z</time>
</trkpt>
<trkpt lat="49.12128087" lon="11.51594481">
<ele>484.43332</ele>
<time>2011-08-03T06:28:00Z</time>
</trkpt>
<trkpt lat="49.12109996" lon="11.51582603">
<ele>484.36667</ele>
<time>2011-08-03T06:28:03Z</time>
</trkpt>
<trkpt lat="49.12092002" lon="11.51573721">
<ele>484.43332</ele>
<time>2011-08-03T06:28:06Z</time>
</trkpt>
<trkpt lat="49.12067937" lon="11.51557015">
<ele>484.66666</ele>
<time>2011-08-03T06:28:10Z</time>
</trkpt>
<trkpt lat="49.12049511" lon="11.51547769">
<ele>484.43332</ele>
<time>2011-08-03T06:28:13Z</time>
</trkpt>
<trkpt lat="49.12027674" lon="11.51536207">
<ele>484.63333</ele>
<time>2011-08-03T06:28:17Z</time>
</trkpt>
<trkpt lat="49.12009585" lon="11.51536427">
<ele>484.53333</ele>
<time>2011-08-03T06:28:20Z</time>
</trkpt>
<trkpt lat="49.11991254" lon="11.5153193">
<ele>484.6</ele>
<time>2011-08-03T06:28:23Z</time>
</trkpt>
<trkpt lat="49.11973225" lon="11.51527585">
<ele>484.3</ele>
<time>2011-08-03T06:28:26Z</time>
</trkpt>
<trkpt lat="49.11954346" lon="11.51529412">
<ele>484.03333</ele>
<time>2011-08-03T06:28:29Z</time>
</trkpt>
<trkpt lat="49.11932498" lon="11.51525912">
<ele>483.6</ele>
<time>2011-08-03T06:28:33Z</time>
</trkpt>
<trkpt lat="49.11909236" lon="11.51525337">
<ele>483.1</ele>
<time>2011-08-03T06:28:37Z</time>
</trkpt>
<trkpt lat="49.11891006" lon="11.51528077">
<ele>482.6</ele>
<time>2011-08-03T06:28:40Z</time>
</trkpt>
<trkpt lat="49.11873107" lon="11.5153304">
<ele>482.56668</ele>
<time>2011-08-03T06:28:43Z</time>
</trkpt>
<trkpt lat="49.11854974" lon="11.51537814">
<ele>482.5</ele>
<time>2011-08-03T06:28:46Z</time>
</trkpt>
<trkpt lat="49.11835615" lon="11.51545726">
<ele>482.6</ele>
<time>2011-08-03T06:28:49Z</time>
</trkpt>
<trkpt lat="49.11817412" lon="11.51552728">
<ele>482.26666</ele>
<time>2011-08-03T06:28:52Z</time>
</trkpt>
<trkpt lat="49.1179792" lon="11.51561097">
<ele>482.0</ele>
<time>2011-08-03T06:28:55Z</time>
</trkpt>
<trkpt lat="49.11778927" lon="11.51568928">
<ele>481.26666</ele>
<time>2011-08-03T06:28:58Z</time>
</trkpt>
<trkpt lat="49.11752804" lon="11.51579375">
<ele>481.16666</ele>
<time>2011-08-03T06:29:02Z</time>
</trkpt>
<trkpt lat="49.11733012" lon="11.51589447">
<ele>481.26666</ele>
<time>2011-08-03T06:29:05Z</time>
</trkpt>
<trkpt lat="49.11712645" lon="11.51598618">
<ele>481.26666</ele>
<time>2011-08-03T06:29:08Z</time>
</trkpt>
<trkpt lat="49.11691439" lon="11.51607578">
<ele>480.7</ele>
<time>2011-08-03T06:29:11Z</time>
</trkpt>
<trkpt lat="49.11662171" lon="11.51620523">
<ele>480.16666</ele>
<time>2011-08-03T06:29:15Z</time>
</trkpt>
<trkpt lat="49.11641471" lon="11.51630085">
<ele>480.06668</ele>
<time>2011-08-03T06:29:18Z</time>
</trkpt>
<trkpt lat="49.11619504" lon="11.51640409">
<ele>479.93332</ele>
<time>2011-08-03T06:29:21Z</time>
</trkpt>
<trkpt lat="49.11598639" lon="11.51650636">
<ele>479.5</ele>
<time>2011-08-03T06:29:24Z</time>
</trkpt>
<trkpt lat="49.11569471" lon="11.51662448">
<ele>478.73334</ele>
<time>2011-08-03T06:29:28Z</time>
</trkpt>
<trkpt lat="49.11547813" lon="11.51668419">
<ele>478.1</ele>
<time>2011-08-03T06:29:31Z</time>
</trkpt>
<trkpt lat="49.11525778" lon="11.51669193">
<ele>477.33334</ele>
<time>2011-08-03T06:29:34Z</time>
</trkpt>
<trkpt lat="49.11503749" lon="11.51666689">
<ele>476.86667</ele>
<time>2011-08-03T06:29:37Z</time>
</trkpt>
<trkpt lat="49.11476232" lon="11.51655159">
<ele>476.46667</ele>
<time>2011-08-03T06:29:41Z</time>
</trkpt>
<trkpt lat="49.11457127" lon="11.51641895">
<ele>476.1</ele>
<time>2011-08-03T06:29:44Z</time>
</trkpt>
<trkpt lat="49.11439252" lon="11.51626322">
<ele>475.66666</ele>
<time>2011-08-03T06:29:47Z</time>
</trkpt>
<trkpt lat="49.11423641" lon="11.51606839">
<ele>475.13333</ele>
<time>2011-08-03T06:29:50Z</time>
</trkpt>
<trkpt lat="49.11405674" lon="11.51579143">
<ele>474.9</ele>
<time>2011-08-03T06:29:54Z</time>
</trkpt>
<trkpt lat="49.11394283" lon="11.51556581">
<ele>474.86667</ele>
<time>2011-08-03T06:29:57Z</time>
</trkpt>
<trkpt lat="49.11384668" lon="11.51531577">
<ele>474.6</ele>
<time>2011-08-03T06:30:00Z</time>
</trkpt>
<trkpt lat="49.11377767" lon="11.51506049">
<ele>474.23334</ele>
<time>2011-08-03T06:30:03Z</time>
</trkpt>
<trkpt lat="49.11370765" lon="11.5146865">
<ele>473.76666</ele>
<time>2011-08-03T06:30:07Z</time>
</trkpt>
<trkpt lat="49.11367275" lon="11.51441304">
<ele>473.26666</ele>
<time>2011-08-03T06:30:10Z</time>
</trkpt>
<trkpt lat="49.11365819" lon="11.51411769">
<ele>472.3</ele>
<time>2011-08-03T06:30:14Z</time>
</trkpt>
<trkpt lat="49.11355866" lon="11.51387447">
<ele>470.93332</ele>
<time>2011-08-03T06:30:20Z</time>
</trkpt>
<trkpt lat="49.11336504" lon="11.5137391">
<ele>469.23334</ele>
<time>2011-08-03T06:30:25Z</time>
</trkpt>
<trkpt lat="49.11321458" lon="11.51344155">
<ele>467.43332</ele>
<time>2011-08-03T06:30:33Z</time>
</trkpt>
<trkpt lat="49.11312141" lon="11.51317892">
<ele>466.8</ele>
<time>2011-08-03T06:30:38Z</time>
</trkpt>
<trkpt lat="49.1130413" lon="11.512814">
<ele>466.26666</ele>
<time>2011-08-03T06:30:43Z</time>
</trkpt>
<trkpt lat="49.11291027" lon="11.51254102">
<ele>465.93332</ele>
<time>2011-08-03T06:30:48Z</time>
</trkpt>
<trkpt lat="49.1127694" lon="11.51230243">
<ele>465.23334</ele>
<time>2011-08-03T06:30:53Z</time>
</trkpt>
<trkpt lat="49.11261437" lon="11.51215443">
<ele>464.86667</ele>
<time>2011-08-03T06:30:59Z</time>
</trkpt>
<trkpt lat="49.1123999" lon="11.51206952">
<ele>464.7</ele>
<time>2011-08-03T06:31:04Z</time>
</trkpt>
<trkpt lat="49.11220467" lon="11.51202435">
<ele>463.5</ele>
<time>2011-08-03T06:31:08Z</time>
</trkpt>
<trkpt lat="49.11197954" lon="11.51199759">
<ele>462.36667</ele>
<time>2011-08-03T06:31:45Z</time>
</trkpt>
<trkpt lat="49.11167697" lon="11.51194688">
<ele>462.16666</ele>
<time>2011-08-03T06:31:51Z</time>
</trkpt>
<trkpt lat="49.1114981" lon="11.51185333">
<ele>462.56668</ele>
<time>2011-08-03T06:31:54Z</time>
</trkpt>
<trkpt lat="49.11134422" lon="11.51170291">
<ele>463.0</ele>
<time>2011-08-03T06:31:57Z</time>
</trkpt>
<trkpt lat="49.1111959" lon="11.51151097">
<ele>463.26666</ele>
<time>2011-08-03T06:32:00Z</time>
</trkpt>
<trkpt lat="49.11100757" lon="11.51136201">
<ele>463.16666</ele>
<time>2011-08-03T06:32:04Z</time>
</trkpt>
<trkpt lat="49.11081317" lon="11.51125542">
<ele>463.06668</ele>
<time>2011-08-03T06:32:08Z</time>
</trkpt>
<trkpt lat="49.11063075" lon="11.51120505">
<ele>461.9</ele>
<time>2011-08-03T06:32:56Z</time>
</trkpt>
<trkpt lat="49.11044197" lon="11.51111644">
<ele>460.03333</ele>
<time>2011-08-03T06:33:02Z</time>
</trkpt>
<trkpt lat="49.11020115" lon="11.5109283">
<ele>458.33334</ele>
<time>2011-08-03T06:33:09Z</time>
</trkpt>
<trkpt lat="49.11002165" lon="11.51077101">
<ele>457.63333</ele>
<time>2011-08-03T06:33:13Z</time>
</trkpt>
<trkpt lat="49.10982593" lon="11.51075277">
<ele>458.93332</ele>
<time>2011-08-03T06:33:16Z</time>
</trkpt>
<trkpt lat="49.10963864" lon="11.51075788">
<ele>461.1</ele>
<time>2011-08-03T06:33:19Z</time>
</trkpt>
<trkpt lat="49.10940895" lon="11.51078339">
<ele>462.43332</ele>
<time>2011-08-03T06:33:23Z</time>
</trkpt>
<trkpt lat="49.10918126" lon="11.51081758">
<ele>463.3</ele>
<time>2011-08-03T06:33:27Z</time>
</trkpt>
<trkpt lat="49.10895331" lon="11.51087088">
<ele>463.4</ele>
<time>2011-08-03T06:33:31Z</time>
</trkpt>
<trkpt lat="49.10874438" lon="11.51100091">
<ele>463.76666</ele>
<time>2011-08-03T06:33:35Z</time>
</trkpt>
<trkpt lat="49.10857012" lon="11.51111276">
<ele>463.66666</ele>
<time>2011-08-03T06:33:40Z</time>
</trkpt>
<trkpt lat="49.10833538" lon="11.51132015">
<ele>464.0</ele>
<time>2011-08-03T06:34:14Z</time>
</trkpt>
<trkpt lat="49.10814867" lon="11.51144067">
<ele>463.96667</ele>
<time>2011-08-03T06:34:18Z</time>
</trkpt>
<trkpt lat="49.10796707" lon="11.51159408">
<ele>463.66666</ele>
<time>2011-08-03T06:34:23Z</time>
</trkpt>
<trkpt lat="49.10779522" lon="11.51174299">
<ele>463.06668</ele>
<time>2011-08-03T06:34:27Z</time>
</trkpt>
<trkpt lat="49.10760614" lon="11.51193347">
<ele>463.1</ele>
<time>2011-08-03T06:34:31Z</time>
</trkpt>
<trkpt lat="49.1074296" lon="11.51216087">
<ele>463.33334</ele>
<time>2011-08-03T06:34:35Z</time>
</trkpt>
<trkpt lat="49.10715282" lon="11.51249701">
<ele>463.23334</ele>
<time>2011-08-03T06:34:40Z</time>
</trkpt>
<trkpt lat="49.1070113" lon="11.51270125">
<ele>462.76666</ele>
<time>2011-08-03T06:34:43Z</time>
</trkpt>
<trkpt lat="49.10685285" lon="11.51290924">
<ele>462.23334</ele>
<time>2011-08-03T06:34:46Z</time>
</trkpt>
<trkpt lat="49.10671719" lon="11.51314324">
<ele>461.76666</ele>
<time>2011-08-03T06:34:49Z</time>
</trkpt>
<trkpt lat="49.10654715" lon="11.51351571">
<ele>460.86667</ele>
<time>2011-08-03T06:34:53Z</time>
</trkpt>
<trkpt lat="49.10644385" lon="11.51379426">
<ele>460.16666</ele>
<time>2011-08-03T06:34:56Z</time>
</trkpt>
<trkpt lat="49.10633694" lon="11.5140663">
<ele>459.56668</ele>
<time>2011-08-03T06:34:59Z</time>
</trkpt>
<trkpt lat="49.10623067" lon="11.51433546">
<ele>459.93332</ele>
<time>2011-08-03T06:35:02Z</time>
</trkpt>
<trkpt lat="49.10609578" lon="11.51472528">
<ele>460.36667</ele>
<time>2011-08-03T06:35:06Z</time>
</trkpt>
<trkpt lat="49.10600074" lon="11.51501399">
<ele>461.13333</ele>
<time>2011-08-03T06:35:09Z</time>
</trkpt>
<trkpt lat="49.10591078" lon="11.51531361">
<ele>461.33334</ele>
<time>2011-08-03T06:35:12Z</time>
</trkpt>
<trkpt lat="49.10582562" lon="11.51561134">
<ele>461.76666</ele>
<time>2011-08-03T06:35:15Z</time>
</trkpt>
<trkpt lat="49.10572668" lon="11.51601018">
<ele>461.8</ele>
<time>2011-08-03T06:35:19Z</time>
</trkpt>
<trkpt lat="49.10563792" lon="11.51630528">
<ele>462.03333</ele>
<time>2011-08-03T06:35:22Z</time>
</trkpt>
<trkpt lat="49.10554299" lon="11.51659003">
<ele>461.93332</ele>
<time>2011-08-03T06:35:25Z</time>
</trkpt>
<trkpt lat="49.10542683" lon="11.51683933">
<ele>461.8</ele>
<time>2011-08-03T06:35:28Z</time>
</trkpt>
<trkpt lat="49.10526934" lon="11.51716254">
<ele>461.56668</ele>
<time>2011-08-03T06:35:32Z</time>
</trkpt>
<trkpt lat="49.10515269" lon="11.51739806">
<ele>461.23334</ele>
<time>2011-08-03T06:35:35Z</time>
</trkpt>
<trkpt lat="49.10501912" lon="11.51768989">
<ele>461.0</ele>
<time>2011-08-03T06:35:38Z</time>
</trkpt>
<trkpt lat="49.10488128" lon="11.51792629">
<ele>460.83334</ele>
<time>2011-08-03T06:35:41Z</time>
</trkpt>
<trkpt lat="49.10465983" lon="11.51824226">
<ele>461.3</ele>
<time>2011-08-03T06:35:45Z</time>
</trkpt>
<trkpt lat="49.10448667" lon="11.51844519">
<ele>461.2</ele>
<time>2011-08-03T06:35:48Z</time>
</trkpt>
<trkpt lat="49.10431084" lon="11.51860517">
<ele>461.0</ele>
<time>2011-08-03T06:35:51Z</time>
</trkpt>
<trkpt lat="49.10410492" lon="11.51872507">
<ele>460.8</ele>
<time>2011-08-03T06:35:54Z</time>
</trkpt>
<trkpt lat="49.10384429" lon="11.5188687">
<ele>461.56668</ele>
<time>2011-08-03T06:35:58Z</time>
</trkpt>
<trkpt lat="49.10365342" lon="11.51899426">
<ele>461.9</ele>
<time>2011-08-03T06:36:01Z</time>
</trkpt>
<trkpt lat="49.10346705" lon="11.51912298">
<ele>461.56668</ele>
<time>2011-08-03T06:36:04Z</time>
</trkpt>
<trkpt lat="49.09243151" lon="11.54545302">
<ele>451.8</ele>
<time>2011-08-03T06:43:01Z</time>
</trkpt>
<trkpt lat="49.09226087" lon="11.54562239">
<ele>450.53333</ele>
<time>2011-08-03T06:43:04Z</time>
</trkpt>
<trkpt lat="49.09211203" lon="11.54592585">
<ele>449.8</ele>
<time>2011-08-03T06:43:08Z</time>
</trkpt>
<trkpt lat="49.09201929" lon="11.5461839">
<ele>449.33334</ele>
<time>2011-08-03T06:43:11Z</time>
</trkpt>
<trkpt lat="49.09185507" lon="11.54642138">
<ele>451.06668</ele>
<time>2011-08-03T06:43:15Z</time>
</trkpt>
<trkpt lat="49.09172171" lon="11.54661423">
<ele>452.56668</ele>
<time>2011-08-03T06:43:18Z</time>
</trkpt>
<trkpt lat="49.09157523" lon="11.54688113">
<ele>453.6</ele>
<time>2011-08-03T06:43:22Z</time>
</trkpt>
<trkpt lat="49.09139475" lon="11.54719444">
<ele>453.86667</ele>
<time>2011-08-03T06:43:27Z</time>
</trkpt>
<trkpt lat="49.09126034" lon="11.54741477">
<ele>454.2</ele>
<time>2011-08-03T06:43:30Z</time>
</trkpt>
<trkpt lat="49.0911417" lon="11.54763806">
<ele>455.0</ele>
<time>2011-08-03T06:43:33Z</time>
</trkpt>
<trkpt lat="49.09103834" lon="11.54795149">
<ele>455.43332</ele>
<time>2011-08-03T06:43:37Z</time>
</trkpt>
<trkpt lat="49.09095669" lon="11.54820477">
<ele>455.16666</ele>
<time>2011-08-03T06:43:40Z</time>
</trkpt>
<trkpt lat="49.0908844" lon="11.54845677">
<ele>454.43332</ele>
<time>2011-08-03T06:43:43Z</time>
</trkpt>
<trkpt lat="49.09080571" lon="11.54879009">
<ele>453.73334</ele>
<time>2011-08-03T06:43:47Z</time>
</trkpt>
<trkpt lat="49.09074122" lon="11.54904962">
<ele>453.03333</ele>
<time>2011-08-03T06:43:50Z</time>
</trkpt>
<trkpt lat="49.09067295" lon="11.54940262">
<ele>452.83334</ele>
<time>2011-08-03T06:43:54Z</time>
</trkpt>
<trkpt lat="49.09058758" lon="11.54968388">
<ele>452.56668</ele>
<time>2011-08-03T06:43:57Z</time>
</trkpt>
<trkpt lat="49.0905088" lon="11.5499567">
<ele>452.93332</ele>
<time>2011-08-03T06:44:00Z</time>
</trkpt>
<trkpt lat="49.09038459" lon="11.55048502">
<ele>453.16666</ele>
<time>2011-08-03T06:44:06Z</time>
</trkpt>
<trkpt lat="49.0902945" lon="11.5507393">
<ele>453.46667</ele>
<time>2011-08-03T06:44:09Z</time>
</trkpt>
<trkpt lat="49.09018758" lon="11.55100121">
<ele>453.73334</ele>
<time>2011-08-03T06:44:12Z</time>
</trkpt>
<trkpt lat="49.09008792" lon="11.55126682">
<ele>453.73334</ele>
<time>2011-08-03T06:44:15Z</time>
</trkpt>
<trkpt lat="49.08991474" lon="11.55162498">
<ele>454.26666</ele>
<time>2011-08-03T06:44:19Z</time>
</trkpt>
<trkpt lat="49.08979654" lon="11.5518838">
<ele>454.46667</ele>
<time>2011-08-03T06:44:22Z</time>
</trkpt>
<trkpt lat="49.08966837" lon="11.55213427">
<ele>454.7</ele>
<time>2011-08-03T06:44:25Z</time>
</trkpt>
<trkpt lat="49.08952263" lon="11.55234941">
<ele>454.73334</ele>
<time>2011-08-03T06:44:28Z</time>
</trkpt>
<trkpt lat="49.08932244" lon="11.55263125">
<ele>454.56668</ele>
<time>2011-08-03T06:44:32Z</time>
</trkpt>
<trkpt lat="49.08916721" lon="11.55281444">
<ele>454.43332</ele>
<time>2011-08-03T06:44:35Z</time>
</trkpt>
<trkpt lat="49.08899928" lon="11.55297374">
<ele>453.7</ele>
<time>2011-08-03T06:44:38Z</time>
</trkpt>
<trkpt lat="49.08882349" lon="11.55311749">
<ele>453.1</ele>
<time>2011-08-03T06:44:41Z</time>
</trkpt>
<trkpt lat="49.08858819" lon="11.55331584">
<ele>451.9</ele>
<time>2011-08-03T06:44:45Z</time>
</trkpt>
<trkpt lat="49.08840116" lon="11.5534393">
<ele>450.8</ele>
<time>2011-08-03T06:44:48Z</time>
</trkpt>
<trkpt lat="49.08821705" lon="11.55356735">
<ele>449.7</ele>
<time>2011-08-03T06:44:51Z</time>
</trkpt>
<trkpt lat="49.08804432" lon="11.55372154">
<ele>449.2</ele>
<time>2011-08-03T06:44:54Z</time>
</trkpt>
<trkpt lat="49.08781188" lon="11.5538711">
<ele>449.06668</ele>
<time>2011-08-03T06:44:58Z</time>
</trkpt>
<trkpt lat="49.0876208" lon="11.5539313">
<ele>449.06668</ele>
<time>2011-08-03T06:45:01Z</time>
</trkpt>
<trkpt lat="49.08742518" lon="11.55407615">
<ele>449.2</ele>
<time>2011-08-03T06:45:05Z</time>
</trkpt>
<trkpt lat="49.08716814" lon="11.55429797">
<ele>449.1</ele>
<time>2011-08-03T06:45:11Z</time>
</trkpt>
<trkpt lat="49.08699891" lon="11.55446571">
<ele>449.93332</ele>
<time>2011-08-03T06:45:16Z</time>
</trkpt>
<trkpt lat="49.08685931" lon="11.55466291">
<ele>450.36667</ele>
<time>2011-08-03T06:45:21Z</time>
</trkpt>
<trkpt lat="49.08669175" lon="11.55479076">
<ele>451.16666</ele>
<time>2011-08-03T06:45:26Z</time>
</trkpt>
<trkpt lat="49.08653469" lon="11.55496453">
<ele>451.36667</ele>
<time>2011-08-03T06:45:32Z</time>
</trkpt>
<trkpt lat="49.08642692" lon="11.55520841">
<ele>451.83334</ele>
<time>2011-08-03T06:45:37Z</time>
</trkpt>
<trkpt lat="49.08629526" lon="11.55540294">
<ele>452.3</ele>
<time>2011-08-03T06:45:42Z</time>
</trkpt>
<trkpt lat="49.08618866" lon="11.5556421">
<ele>452.7</ele>
<time>2011-08-03T06:45:47Z</time>
</trkpt>
<trkpt lat="49.08605828" lon="11.55583308">
<ele>453.43332</ele>
<time>2011-08-03T06:45:52Z</time>
</trkpt>
<trkpt lat="49.08589346" lon="11.55601772">
<ele>453.96667</ele>
<time>2011-08-03T06:45:58Z</time>
</trkpt>
<trkpt lat="49.08576603" lon="11.55621322">
<ele>455.0</ele>
<time>2011-08-03T06:46:03Z</time>
</trkpt>
<trkpt lat="49.08564621" lon="11.55642489">
<ele>456.43332</ele>
<time>2011-08-03T06:46:08Z</time>
</trkpt>
<trkpt lat="49.08544959" lon="11.55677841">
<ele>458.53333</ele>
<time>2011-08-03T06:46:16Z</time>
</trkpt>
<trkpt lat="49.08528751" lon="11.55701475">
<ele>460.06668</ele>
<time>2011-08-03T06:46:21Z</time>
</trkpt>
<trkpt lat="49.08514461" lon="11.55718343">
<ele>460.86667</ele>
<time>2011-08-03T06:46:25Z</time>
</trkpt>
<trkpt lat="49.08498296" lon="11.55733744">
<ele>460.66666</ele>
<time>2011-08-03T06:46:29Z</time>
</trkpt>
<trkpt lat="49.08482427" lon="11.55747328">
<ele>460.6</ele>
<time>2011-08-03T06:46:33Z</time>
</trkpt>
<trkpt lat="49.08466353" lon="11.55762633">
<ele>460.43332</ele>
<time>2011-08-03T06:46:37Z</time>
</trkpt>
<trkpt lat="49.08445092" lon="11.55777369">
<ele>460.83334</ele>
<time>2011-08-03T06:46:42Z</time>
</trkpt>
<trkpt lat="49.08426321" lon="11.55785103">
<ele>461.0</ele>
<time>2011-08-03T06:46:46Z</time>
</trkpt>
<trkpt lat="49.08407231" lon="11.55791485">
<ele>461.63333</ele>
<time>2011-08-03T06:46:50Z</time>
</trkpt>
<trkpt lat="49.08384" lon="11.55794238">
<ele>462.16666</ele>
<time>2011-08-03T06:46:55Z</time>
</trkpt>
<trkpt lat="49.08365554" lon="11.55794457">
<ele>462.3</ele>
<time>2011-08-03T06:46:59Z</time>
</trkpt>
<trkpt lat="49.08346391" lon="11.55792402">
<ele>461.7</ele>
<time>2011-08-03T06:47:03Z</time>
</trkpt>
<trkpt lat="49.08325335" lon="11.55789055">
<ele>461.13333</ele>
<time>2011-08-03T06:47:08Z</time>
</trkpt>
<trkpt lat="49.08303617" lon="11.55786055">
<ele>461.1</ele>
<time>2011-08-03T06:47:13Z</time>
</trkpt>
<trkpt lat="49.08285927" lon="11.55766394">
<ele>461.33334</ele>
<time>2011-08-03T06:47:17Z</time>
</trkpt>
<trkpt lat="49.08262943" lon="11.55745495">
<ele>461.13333</ele>
<time>2011-08-03T06:47:21Z</time>
</trkpt>
<trkpt lat="49.08244552" lon="11.55724839">
<ele>460.5</ele>
<time>2011-08-03T06:47:24Z</time>
</trkpt>
<trkpt lat="49.08225212" lon="11.55703696">
<ele>459.33334</ele>
<time>2011-08-03T06:47:27Z</time>
</trkpt>
<trkpt lat="49.08203158" lon="11.55682574">
<ele>457.7</ele>
<time>2011-08-03T06:47:30Z</time>
</trkpt>
<trkpt lat="49.08170419" lon="11.55648573">
<ele>455.46667</ele>
<time>2011-08-03T06:47:34Z</time>
</trkpt>
<trkpt lat="49.08155216" lon="11.55627414">
<ele>453.86667</ele>
<time>2011-08-03T06:47:36Z</time>
</trkpt>
<trkpt lat="49.08138848" lon="11.55598594">
<ele>452.83334</ele>
<time>2011-08-03T06:47:38Z</time>
</trkpt>
<trkpt lat="49.08124168" lon="11.55577501">
<ele>451.56668</ele>
<time>2011-08-03T06:47:40Z</time>
</trkpt>
<trkpt lat="49.08107566" lon="11.55559155">
<ele>450.4</ele>
<time>2011-08-03T06:47:42Z</time>
</trkpt>
<trkpt lat="49.08090248" lon="11.55544418">
<ele>449.63333</ele>
<time>2011-08-03T06:47:44Z</time>
</trkpt>
<trkpt lat="49.08058992" lon="11.55551733">
<ele>449.63333</ele>
<time>2011-08-03T06:47:47Z</time>
</trkpt>
<trkpt lat="49.08041125" lon="11.55559512">
<ele>449.76666</ele>
<time>2011-08-03T06:47:49Z</time>
</trkpt>
<trkpt lat="49.08023152" lon="11.55567172">
<ele>449.93332</ele>
<time>2011-08-03T06:47:51Z</time>
</trkpt>
<trkpt lat="49.08000974" lon="11.55573438">
<ele>450.46667</ele>
<time>2011-08-03T06:47:54Z</time>
</trkpt>
<trkpt lat="49.07981797" lon="11.55572369">
<ele>450.73334</ele>
<time>2011-08-03T06:47:57Z</time>
</trkpt>
<trkpt lat="49.07962028" lon="11.55566299">
<ele>450.8</ele>
<time>2011-08-03T06:48:00Z</time>
</trkpt>
<trkpt lat="49.07940627" lon="11.55565508">
<ele>450.73334</ele>
<time>2011-08-03T06:48:03Z</time>
</trkpt>
<trkpt lat="49.07922682" lon="11.55555277">
<ele>450.8</ele>
<time>2011-08-03T06:48:06Z</time>
</trkpt>
<trkpt lat="49.07901227" lon="11.55551404">
<ele>450.36667</ele>
<time>2011-08-03T06:48:09Z</time>
</trkpt>
<trkpt lat="49.07871786" lon="11.5555442">
<ele>449.73334</ele>
<time>2011-08-03T06:48:13Z</time>
</trkpt>
<trkpt lat="49.07851855" lon="11.55557114">
<ele>448.8</ele>
<time>2011-08-03T06:48:16Z</time>
</trkpt>
<trkpt lat="49.07831014" lon="11.5555765">
<ele>448.5</ele>
<time>2011-08-03T06:48:19Z</time>
</trkpt>
<trkpt lat="49.07811813" lon="11.55559394">
<ele>448.4</ele>
<time>2011-08-03T06:48:22Z</time>
</trkpt>
<trkpt lat="49.07785755" lon="11.55561076">
<ele>448.46667</ele>
<time>2011-08-03T06:48:26Z</time>
</trkpt>
<trkpt lat="49.07766445" lon="11.55563703">
<ele>448.3</ele>
<time>2011-08-03T06:48:29Z</time>
</trkpt>
<trkpt lat="49.07747432" lon="11.5556923">
<ele>448.2</ele>
<time>2011-08-03T06:48:32Z</time>
</trkpt>
<trkpt lat="49.07728447" lon="11.55578502">
<ele>448.0</ele>
<time>2011-08-03T06:48:35Z</time>
</trkpt>
<trkpt lat="49.07701589" lon="11.55587717">
<ele>447.8</ele>
<time>2011-08-03T06:48:39Z</time>
</trkpt>
<trkpt lat="49.07682459" lon="11.55595396">
<ele>447.3</ele>
<time>2011-08-03T06:48:42Z</time>
</trkpt>
<trkpt lat="49.07663888" lon="11.55604284">
<ele>446.26666</ele>
<time>2011-08-03T06:48:45Z</time>
</trkpt>
<trkpt lat="49.07645016" lon="11.55612696">
<ele>444.56668</ele>
<time>2011-08-03T06:48:48Z</time>
</trkpt>
<trkpt lat="49.07620985" lon="11.55624476">
<ele>442.76666</ele>
<time>2011-08-03T06:48:52Z</time>
</trkpt>
<trkpt lat="49.07601694" lon="11.55638238">
<ele>441.33334</ele>
<time>2011-08-03T06:48:55Z</time>
</trkpt>
<trkpt lat="49.0758294" lon="11.55654152">
<ele>440.73334</ele>
<time>2011-08-03T06:48:58Z</time>
</trkpt>
<trkpt lat="49.07565653" lon="11.55672072">
<ele>440.5</ele>
<time>2011-08-03T06:49:01Z</time>
</trkpt>
<trkpt lat="49.07542965" lon="11.55700166">
<ele>441.1</ele>
<time>2011-08-03T06:49:05Z</time>
</trkpt>
<trkpt lat="49.075279" lon="11.55724539">
<ele>441.5</ele>
<time>2011-08-03T06:49:08Z</time>
</trkpt>
<trkpt lat="49.07511885" lon="11.55749039">
<ele>442.03333</ele>
<time>2011-08-03T06:49:11Z</time>
</trkpt>
<trkpt lat="49.07498322" lon="11.557724">
<ele>441.9</ele>
<time>2011-08-03T06:49:14Z</time>
</trkpt>
<trkpt lat="49.07476996" lon="11.55801733">
<ele>442.26666</ele>
<time>2011-08-03T06:49:18Z</time>
</trkpt>
<trkpt lat="49.07460541" lon="11.558232">
<ele>442.93332</ele>
<time>2011-08-03T06:49:21Z</time>
</trkpt>
<trkpt lat="49.07444986" lon="11.55842397">
<ele>443.93332</ele>
<time>2011-08-03T06:49:24Z</time>
</trkpt>
<trkpt lat="49.07429605" lon="11.55861398">
<ele>444.8</ele>
<time>2011-08-03T06:49:27Z</time>
</trkpt>
<trkpt lat="49.07407562" lon="11.55886163">
<ele>445.1</ele>
<time>2011-08-03T06:49:31Z</time>
</trkpt>
<trkpt lat="49.07391826" lon="11.55903923">
<ele>445.23334</ele>
<time>2011-08-03T06:49:34Z</time>
</trkpt>
<trkpt lat="49.07375637" lon="11.55917537">
<ele>444.96667</ele>
<time>2011-08-03T06:49:37Z</time>
</trkpt>
<trkpt lat="49.07359337" lon="11.55931205">
<ele>444.73334</ele>
<time>2011-08-03T06:49:40Z</time>
</trkpt>
<trkpt lat="49.07334813" lon="11.55947472">
<ele>444.23334</ele>
<time>2011-08-03T06:49:44Z</time>
</trkpt>
<trkpt lat="49.07317699" lon="11.55956347">
<ele>443.83334</ele>
<time>2011-08-03T06:49:47Z</time>
</trkpt>
<trkpt lat="49.07300274" lon="11.55966658">
<ele>443.6</ele>
<time>2011-08-03T06:49:50Z</time>
</trkpt>
<trkpt lat="49.0728378" lon="11.55978243">
<ele>443.53333</ele>
<time>2011-08-03T06:49:53Z</time>
</trkpt>
<trkpt lat="49.07261941" lon="11.55991052">
<ele>443.56668</ele>
<time>2011-08-03T06:49:57Z</time>
</trkpt>
<trkpt lat="49.07245068" lon="11.56003138">
<ele>443.7</ele>
<time>2011-08-03T06:50:00Z</time>
</trkpt>
<trkpt lat="49.07224207" lon="11.56020769">
<ele>443.83334</ele>
<time>2011-08-03T06:50:04Z</time>
</trkpt>
<trkpt lat="49.07208852" lon="11.56036767">
<ele>443.8</ele>
<time>2011-08-03T06:50:07Z</time>
</trkpt>
<trkpt lat="49.07193778" lon="11.56054577">
<ele>443.5</ele>
<time>2011-08-03T06:50:10Z</time>
</trkpt>
<trkpt lat="49.07178679" lon="11.56072478">
<ele>443.5</ele>
<time>2011-08-03T06:50:13Z</time>
</trkpt>
<trkpt lat="49.0716379" lon="11.56092639">
<ele>443.73334</ele>
<time>2011-08-03T06:50:16Z</time>
</trkpt>
<trkpt lat="49.07148813" lon="11.56114012">
<ele>443.93332</ele>
<time>2011-08-03T06:50:19Z</time>
</trkpt>
<trkpt lat="49.07129323" lon="11.56139325">
<ele>443.8</ele>
<time>2011-08-03T06:50:23Z</time>
</trkpt>
<trkpt lat="49.07116448" lon="11.56160519">
<ele>443.63333</ele>
<time>2011-08-03T06:50:26Z</time>
</trkpt>
<trkpt lat="49.07101522" lon="11.56181569">
<ele>443.6</ele>
<time>2011-08-03T06:50:29Z</time>
</trkpt>
<trkpt lat="49.07086616" lon="11.5620606">
<ele>443.5</ele>
<time>2011-08-03T06:50:32Z</time>
</trkpt>
<trkpt lat="49.07066076" lon="11.56240641">
<ele>443.26666</ele>
<time>2011-08-03T06:50:36Z</time>
</trkpt>
<trkpt lat="49.07052383" lon="11.56264783">
<ele>442.66666</ele>
<time>2011-08-03T06:50:39Z</time>
</trkpt>
<trkpt lat="49.07038509" lon="11.56288598">
<ele>442.16666</ele>
<time>2011-08-03T06:50:42Z</time>
</trkpt>
<trkpt lat="49.07023078" lon="11.56311804">
<ele>441.6</ele>
<time>2011-08-03T06:50:45Z</time>
</trkpt>
<trkpt lat="49.07003601" lon="11.56335011">
<ele>441.56668</ele>
<time>2011-08-03T06:50:49Z</time>
</trkpt>
<trkpt lat="49.06987102" lon="11.56350013">
<ele>442.2</ele>
<time>2011-08-03T06:50:52Z</time>
</trkpt>
<trkpt lat="49.06967741" lon="11.56355784">
<ele>442.73334</ele>
<time>2011-08-03T06:50:55Z</time>
</trkpt>
<trkpt lat="49.06953054" lon="11.56336998">
<ele>442.93332</ele>
<time>2011-08-03T06:50:58Z</time>
</trkpt>
<trkpt lat="49.06934756" lon="11.56308913">
<ele>442.3</ele>
<time>2011-08-03T06:51:02Z</time>
</trkpt>
<trkpt lat="49.06916688" lon="11.56301651">
<ele>441.6</ele>
<time>2011-08-03T06:51:06Z</time>
</trkpt>
<trkpt lat="49.06935244" lon="11.56316722">
<ele>440.9</ele>
<time>2011-08-03T06:54:15Z</time>
</trkpt>
<trkpt lat="49.06949025" lon="11.56337417">
<ele>440.53333</ele>
<time>2011-08-03T06:54:20Z</time>
</trkpt>
<trkpt lat="49.06960945" lon="11.56359729">
<ele>440.66666</ele>
<time>2011-08-03T06:54:26Z</time>
</trkpt>
<trkpt lat="49.06947407" lon="11.56385763">
<ele>440.6</ele>
<time>2011-08-03T06:54:32Z</time>
</trkpt>
<trkpt lat="49.0693509" lon="11.56407422">
<ele>440.2</ele>
<time>2011-08-03T06:54:36Z</time>
</trkpt>
<trkpt lat="49.06920572" lon="11.56430187">
<ele>439.66666</ele>
<time>2011-08-03T06:54:40Z</time>
</trkpt>
<trkpt lat="49.06904194" lon="11.56455027">
<ele>439.5</ele>
<time>2011-08-03T06:54:44Z</time>
</trkpt>
<trkpt lat="49.0688848" lon="11.56478019">
<ele>439.63333</ele>
<time>2011-08-03T06:54:48Z</time>
</trkpt>
<trkpt lat="49.06874001" lon="11.56503717">
<ele>439.56668</ele>
<time>2011-08-03T06:54:52Z</time>
</trkpt>
<trkpt lat="49.0685676" lon="11.56537899">
<ele>439.66666</ele>
<time>2011-08-03T06:54:57Z</time>
</trkpt>
<trkpt lat="49.06845322" lon="11.56562495">
<ele>439.26666</ele>
<time>2011-08-03T06:55:00Z</time>
</trkpt>
<trkpt lat="49.06833991" lon="11.56584534">
<ele>439.23334</ele>
<time>2011-08-03T06:55:03Z</time>
</trkpt>
<trkpt lat="49.06821436" lon="11.56606434">
<ele>438.76666</ele>
<time>2011-08-03T06:55:06Z</time>
</trkpt>
<trkpt lat="49.06805052" lon="11.566322">
<ele>438.96667</ele>
<time>2011-08-03T06:55:10Z</time>
</trkpt>
<trkpt lat="49.06789624" lon="11.56651334">
<ele>438.56668</ele>
<time>2011-08-03T06:55:13Z</time>
</trkpt>
<trkpt lat="49.0677171" lon="11.56669923">
<ele>438.23334</ele>
<time>2011-08-03T06:55:17Z</time>
</trkpt>
<trkpt lat="49.06756636" lon="11.56685568">
<ele>437.6</ele>
<time>2011-08-03T06:55:20Z</time>
</trkpt>
<trkpt lat="49.06741681" lon="11.56703437">
<ele>437.86667</ele>
<time>2011-08-03T06:55:25Z</time>
</trkpt>
<trkpt lat="49.06726391" lon="11.56721336">
<ele>439.1</ele>
<time>2011-08-03T06:55:31Z</time>
</trkpt>
<trkpt lat="49.06712361" lon="11.56743615">
<ele>440.63333</ele>
<time>2011-08-03T06:55:38Z</time>
</trkpt>
<trkpt lat="49.06702979" lon="11.56767138">
<ele>441.73334</ele>
<time>2011-08-03T06:55:44Z</time>
</trkpt>
<trkpt lat="49.06691896" lon="11.56792841">
<ele>442.8</ele>
<time>2011-08-03T06:55:52Z</time>
</trkpt>
<trkpt lat="49.06688351" lon="11.56822321">
<ele>442.83334</ele>
<time>2011-08-03T06:56:20Z</time>
</trkpt>
<trkpt lat="49.06678639" lon="11.56847185">
<ele>442.63333</ele>
<time>2011-08-03T06:56:30Z</time>
</trkpt>
<trkpt lat="49.06673006" lon="11.56873722">
<ele>442.76666</ele>
<time>2011-08-03T06:56:42Z</time>
</trkpt>
<trkpt lat="49.06666573" lon="11.56906303">
<ele>444.86667</ele>
<time>2011-08-03T06:56:54Z</time>
</trkpt>
<trkpt lat="49.06657879" lon="11.56930835">
<ele>447.93332</ele>
<time>2011-08-03T06:57:04Z</time>
</trkpt>
<trkpt lat="49.06648715" lon="11.56954851">
<ele>449.73334</ele>
<time>2011-08-03T06:57:11Z</time>
</trkpt>
<trkpt lat="49.06638349" lon="11.56979727">
<ele>451.7</ele>
<time>2011-08-03T06:57:17Z</time>
</trkpt>
<trkpt lat="49.06628068" lon="11.57005986">
<ele>453.43332</ele>
<time>2011-08-03T06:57:22Z</time>
</trkpt>
<trkpt lat="49.06615791" lon="11.57027341">
<ele>456.86667</ele>
<time>2011-08-03T06:57:26Z</time>
</trkpt>
<trkpt lat="49.06612067" lon="11.57057252">
<ele>458.73334</ele>
<time>2011-08-03T06:57:30Z</time>
</trkpt>
<trkpt lat="49.06600123" lon="11.57087632">
<ele>459.73334</ele>
<time>2011-08-03T06:57:35Z</time>
</trkpt>
<trkpt lat="49.06588119" lon="11.57115371">
<ele>459.43332</ele>
<time>2011-08-03T06:57:39Z</time>
</trkpt>
<trkpt lat="49.06571513" lon="11.57143627">
<ele>458.63333</ele>
<time>2011-08-03T06:57:42Z</time>
</trkpt>
<trkpt lat="49.06556539" lon="11.57177865">
<ele>457.6</ele>
<time>2011-08-03T06:57:46Z</time>
</trkpt>
<trkpt lat="49.06546837" lon="11.57207834">
<ele>456.13333</ele>
<time>2011-08-03T06:57:49Z</time>
</trkpt>
<trkpt lat="49.06534743" lon="11.57234925">
<ele>455.5</ele>
<time>2011-08-03T06:57:52Z</time>
</trkpt>
<trkpt lat="49.06525193" lon="11.57260717">
<ele>454.96667</ele>
<time>2011-08-03T06:57:55Z</time>
</trkpt>
<trkpt lat="49.06518277" lon="11.57304203">
<ele>454.5</ele>
<time>2011-08-03T06:58:00Z</time>
</trkpt>
<trkpt lat="49.0650751" lon="11.57333717">
<ele>453.8</ele>
<time>2011-08-03T06:58:03Z</time>
</trkpt>
<trkpt lat="49.06496066" lon="11.57357131">
<ele>453.46667</ele>
<time>2011-08-03T06:58:06Z</time>
</trkpt>
<trkpt lat="49.06486079" lon="11.57386253">
<ele>453.26666</ele>
<time>2011-08-03T06:58:11Z</time>
</trkpt>
<trkpt lat="49.06476102" lon="11.5740917">
<ele>453.13333</ele>
<time>2011-08-03T06:58:15Z</time>
</trkpt>
<trkpt lat="49.06464169" lon="11.57433408">
<ele>453.0</ele>
<time>2011-08-03T06:58:19Z</time>
</trkpt>
<trkpt lat="49.06451259" lon="11.57487209">
<ele>452.9</ele>
<time>2011-08-03T06:58:24Z</time>
</trkpt>
<trkpt lat="49.06441393" lon="11.57517505">
<ele>452.93332</ele>
<time>2011-08-03T06:58:27Z</time>
</trkpt>
<trkpt lat="49.06425057" lon="11.57539296">
<ele>453.0</ele>
<time>2011-08-03T06:58:30Z</time>
</trkpt>
<trkpt lat="49.06410396" lon="11.57558483">
<ele>453.06668</ele>
<time>2011-08-03T06:58:33Z</time>
</trkpt>
<trkpt lat="49.06387871" lon="11.57596329">
<ele>453.26666</ele>
<time>2011-08-03T06:58:37Z</time>
</trkpt>
<trkpt lat="49.06371591" lon="11.5762863">
<ele>453.4</ele>
<time>2011-08-03T06:58:40Z</time>
</trkpt>
<trkpt lat="49.06359497" lon="11.57656624">
<ele>453.4</ele>
<time>2011-08-03T06:58:43Z</time>
</trkpt>
<trkpt lat="49.06345305" lon="11.57686235">
<ele>453.3</ele>
<time>2011-08-03T06:58:46Z</time>
</trkpt>
<trkpt lat="49.06327082" lon="11.57718621">
<ele>453.36667</ele>
<time>2011-08-03T06:58:50Z</time>
</trkpt>
<trkpt lat="49.06318005" lon="11.57748024">
<ele>453.56668</ele>
<time>2011-08-03T06:58:53Z</time>
</trkpt>
<trkpt lat="49.0631407" lon="11.57779009">
<ele>453.66666</ele>
<time>2011-08-03T06:58:56Z</time>
</trkpt>
<trkpt lat="49.06308849" lon="11.57808882">
<ele>453.56668</ele>
<time>2011-08-03T06:58:59Z</time>
</trkpt>
<trkpt lat="49.06299225" lon="11.57859565">
<ele>453.53333</ele>
<time>2011-08-03T06:59:03Z</time>
</trkpt>
<trkpt lat="49.06287594" lon="11.57889739">
<ele>453.56668</ele>
<time>2011-08-03T06:59:06Z</time>
</trkpt>
<trkpt lat="49.06280212" lon="11.5791988">
<ele>453.33334</ele>
<time>2011-08-03T06:59:08Z</time>
</trkpt>
<trkpt lat="49.06268067" lon="11.57946123">
<ele>452.83334</ele>
<time>2011-08-03T06:59:11Z</time>
</trkpt>
<trkpt lat="49.06251872" lon="11.57991849">
<ele>452.26666</ele>
<time>2011-08-03T06:59:16Z</time>
</trkpt>
<trkpt lat="49.06241831" lon="11.5801859">
<ele>452.1</ele>
<time>2011-08-03T06:59:19Z</time>
</trkpt>
<trkpt lat="49.06232587" lon="11.58045292">
<ele>451.63333</ele>
<time>2011-08-03T06:59:22Z</time>
</trkpt>
<trkpt lat="49.0622074" lon="11.58073435">
<ele>451.36667</ele>
<time>2011-08-03T06:59:25Z</time>
</trkpt>
<trkpt lat="49.06206116" lon="11.58104089">
<ele>450.6</ele>
<time>2011-08-03T06:59:29Z</time>
</trkpt>
<trkpt lat="49.06195132" lon="11.58130527">
<ele>449.86667</ele>
<time>2011-08-03T06:59:33Z</time>
</trkpt>
<trkpt lat="49.06182224" lon="11.58151493">
<ele>449.16666</ele>
<time>2011-08-03T06:59:37Z</time>
</trkpt>
<trkpt lat="49.06164016" lon="11.58179408">
<ele>448.03333</ele>
<time>2011-08-03T06:59:42Z</time>
</trkpt>
<trkpt lat="49.06149226" lon="11.58197672">
<ele>446.26666</ele>
<time>2011-08-03T06:59:46Z</time>
</trkpt>
<trkpt lat="49.06131909" lon="11.58218398">
<ele>444.06668</ele>
<time>2011-08-03T06:59:50Z</time>
</trkpt>
<trkpt lat="49.06114148" lon="11.58237473">
<ele>442.03333</ele>
<time>2011-08-03T06:59:55Z</time>
</trkpt>
<trkpt lat="49.06099272" lon="11.58259551">
<ele>440.6</ele>
<time>2011-08-03T07:00:00Z</time>
</trkpt>
<trkpt lat="49.06089935" lon="11.5828739">
<ele>438.86667</ele>
<time>2011-08-03T07:00:04Z</time>
</trkpt>
<trkpt lat="49.06076917" lon="11.58314495">
<ele>437.06668</ele>
<time>2011-08-03T07:00:09Z</time>
</trkpt>
<trkpt lat="49.06066179" lon="11.58339123">
<ele>435.4</ele>
<time>2011-08-03T07:00:13Z</time>
</trkpt>
<trkpt lat="49.06051145" lon="11.58354896">
<ele>434.7</ele>
<time>2011-08-03T07:02:18Z</time>
</trkpt>
<trkpt lat="49.06066936" lon="11.58341473">
<ele>432.66666</ele>
<time>2011-08-03T07:02:40Z</time>
</trkpt>
<trkpt lat="49.06048696" lon="11.58355674">
<ele>429.46667</ele>
<time>2011-08-03T07:03:35Z</time>
</trkpt>
<trkpt lat="49.06032895" lon="11.58374393">
<ele>426.86667</ele>
<time>2011-08-03T07:03:40Z</time>
</trkpt>
<trkpt lat="49.06018772" lon="11.58392708">
<ele>426.36667</ele>
<time>2011-08-03T07:03:44Z</time>
</trkpt>
<trkpt lat="49.0600257" lon="11.58415315">
<ele>427.13333</ele>
<time>2011-08-03T07:03:48Z</time>
</trkpt>
<trkpt lat="49.05987319" lon="11.58438683">
<ele>427.73334</ele>
<time>2011-08-03T07:03:52Z</time>
</trkpt>
<trkpt lat="49.0597325" lon="11.5846482">
<ele>427.86667</ele>
<time>2011-08-03T07:03:56Z</time>
</trkpt>
<trkpt lat="49.05959609" lon="11.58491123">
<ele>427.96667</ele>
<time>2011-08-03T07:04:00Z</time>
</trkpt>
<trkpt lat="49.05944987" lon="11.58510953">
<ele>427.13333</ele>
<time>2011-08-03T07:04:04Z</time>
</trkpt>
<trkpt lat="49.0592621" lon="11.58539811">
<ele>426.96667</ele>
<time>2011-08-03T07:04:09Z</time>
</trkpt>
<trkpt lat="49.05913742" lon="11.58566799">
<ele>427.13333</ele>
<time>2011-08-03T07:04:13Z</time>
</trkpt>
<trkpt lat="49.05900389" lon="11.5859496">
<ele>427.3</ele>
<time>2011-08-03T07:04:17Z</time>
</trkpt>
<trkpt lat="49.0588611" lon="11.58634876">
<ele>427.03333</ele>
<time>2011-08-03T07:04:22Z</time>
</trkpt>
<trkpt lat="49.0587826" lon="11.5866834">
<ele>426.86667</ele>
<time>2011-08-03T07:04:26Z</time>
</trkpt>
<trkpt lat="49.05871614" lon="11.58702884">
<ele>426.9</ele>
<time>2011-08-03T07:04:30Z</time>
</trkpt>
<trkpt lat="49.05863565" lon="11.5874384">
<ele>427.03333</ele>
<time>2011-08-03T07:04:35Z</time>
</trkpt>
<trkpt lat="49.05858489" lon="11.58771951">
<ele>426.96667</ele>
<time>2011-08-03T07:04:39Z</time>
</trkpt>
<trkpt lat="49.05856617" lon="11.58806828">
<ele>426.86667</ele>
<time>2011-08-03T07:04:44Z</time>
</trkpt>
<trkpt lat="49.05857399" lon="11.58838171">
<ele>426.86667</ele>
<time>2011-08-03T07:04:48Z</time>
</trkpt>
<trkpt lat="49.05852481" lon="11.58865457">
<ele>426.7</ele>
<time>2011-08-03T07:04:51Z</time>
</trkpt>
<trkpt lat="49.05848472" lon="11.58900088">
<ele>426.13333</ele>
<time>2011-08-03T07:04:55Z</time>
</trkpt>
<trkpt lat="49.05843523" lon="11.5895321">
<ele>425.3</ele>
<time>2011-08-03T07:05:01Z</time>
</trkpt>
<trkpt lat="49.05842153" lon="11.58981942">
<ele>424.8</ele>
<time>2011-08-03T07:05:04Z</time>
</trkpt>
<trkpt lat="49.05840752" lon="11.59010724">
<ele>424.63333</ele>
<time>2011-08-03T07:05:07Z</time>
</trkpt>
<trkpt lat="49.05839378" lon="11.59038914">
<ele>424.73334</ele>
<time>2011-08-03T07:05:10Z</time>
</trkpt>
<trkpt lat="49.05838679" lon="11.59075978">
<ele>424.26666</ele>
<time>2011-08-03T07:05:14Z</time>
</trkpt>
<trkpt lat="49.05837999" lon="11.59104236">
<ele>423.6</ele>
<time>2011-08-03T07:05:17Z</time>
</trkpt>
<trkpt lat="49.05841729" lon="11.59131199">
<ele>423.1</ele>
<time>2011-08-03T07:05:20Z</time>
</trkpt>
<trkpt lat="49.05846566" lon="11.59165375">
<ele>423.06668</ele>
<time>2011-08-03T07:05:24Z</time>
</trkpt>
<trkpt lat="49.05851676" lon="11.59197318">
<ele>423.3</ele>
<time>2011-08-03T07:05:28Z</time>
</trkpt>
<trkpt lat="49.05856667" lon="11.59230668">
<ele>423.53333</ele>
<time>2011-08-03T07:05:32Z</time>
</trkpt>
<trkpt lat="49.05855416" lon="11.5926175">
<ele>424.06668</ele>
<time>2011-08-03T07:05:36Z</time>
</trkpt>
<trkpt lat="49.0585062" lon="11.59288736">
<ele>424.6</ele>
<time>2011-08-03T07:05:45Z</time>
</trkpt>
<trkpt lat="49.05849034" lon="11.59318219">
<ele>425.4</ele>
<time>2011-08-03T07:06:53Z</time>
</trkpt>
<trkpt lat="49.058499" lon="11.59345761">
<ele>426.46667</ele>
<time>2011-08-03T07:06:59Z</time>
</trkpt>
<trkpt lat="49.05856509" lon="11.59374883">
<ele>428.36667</ele>
<time>2011-08-03T07:07:03Z</time>
</trkpt>
<trkpt lat="49.05848551" lon="11.59407235">
<ele>430.93332</ele>
<time>2011-08-03T07:07:11Z</time>
</trkpt>
<trkpt lat="49.05829225" lon="11.5942029">
<ele>433.56668</ele>
<time>2011-08-03T07:07:15Z</time>
</trkpt>
<trkpt lat="49.0580956" lon="11.59432791">
<ele>435.3</ele>
<time>2011-08-03T07:07:19Z</time>
</trkpt>
<trkpt lat="49.05788089" lon="11.59445558">
<ele>436.03333</ele>
<time>2011-08-03T07:07:24Z</time>
</trkpt>
<trkpt lat="49.05774529" lon="11.59468016">
<ele>436.2</ele>
<time>2011-08-03T07:07:29Z</time>
</trkpt>
<trkpt lat="49.05754271" lon="11.59499204">
<ele>435.96667</ele>
<time>2011-08-03T07:07:37Z</time>
</trkpt>
<trkpt lat="49.05743931" lon="11.59524035">
<ele>435.26666</ele>
<time>2011-08-03T07:07:43Z</time>
</trkpt>
<trkpt lat="49.0572603" lon="11.59546346">
<ele>434.53333</ele>
<time>2011-08-03T07:07:50Z</time>
</trkpt>
<trkpt lat="49.05715022" lon="11.59571053">
<ele>434.4</ele>
<time>2011-08-03T07:07:54Z</time>
</trkpt>
<trkpt lat="49.05704624" lon="11.59595199">
<ele>433.33334</ele>
<time>2011-08-03T07:07:58Z</time>
</trkpt>
<trkpt lat="49.05691915" lon="11.59620462">
<ele>432.4</ele>
<time>2011-08-03T07:08:04Z</time>
</trkpt>
<trkpt lat="49.05682612" lon="11.59646475">
<ele>432.06668</ele>
<time>2011-08-03T07:08:10Z</time>
</trkpt>
<trkpt lat="49.05669333" lon="11.59677054">
<ele>433.4</ele>
<time>2011-08-03T07:08:16Z</time>
</trkpt>
<trkpt lat="49.0565603" lon="11.59703435">
<ele>434.83334</ele>
<time>2011-08-03T07:08:21Z</time>
</trkpt>
<trkpt lat="49.0564443" lon="11.5973988">
<ele>436.13333</ele>
<time>2011-08-03T07:08:29Z</time>
</trkpt>
<trkpt lat="49.05636853" lon="11.59770654">
<ele>436.63333</ele>
<time>2011-08-03T07:08:34Z</time>
</trkpt>
<trkpt lat="49.05627369" lon="11.59807188">
<ele>438.1</ele>
<time>2011-08-03T07:08:42Z</time>
</trkpt>
<trkpt lat="49.05619454" lon="11.59835645">
<ele>439.1</ele>
<time>2011-08-03T07:08:47Z</time>
</trkpt>
<trkpt lat="49.05608931" lon="11.59876002">
<ele>440.3</ele>
<time>2011-08-03T07:08:55Z</time>
</trkpt>
<trkpt lat="49.05600721" lon="11.59901642">
<ele>439.7</ele>
<time>2011-08-03T07:09:00Z</time>
</trkpt>
<trkpt lat="49.05590943" lon="11.59928503">
<ele>438.5</ele>
<time>2011-08-03T07:09:05Z</time>
</trkpt>
<trkpt lat="49.05581518" lon="11.59954401">
<ele>438.23334</ele>
<time>2011-08-03T07:09:10Z</time>
</trkpt>
<trkpt lat="49.05575742" lon="11.59986353">
<ele>437.66666</ele>
<time>2011-08-03T07:09:15Z</time>
</trkpt>
<trkpt lat="49.05576909" lon="11.60014506">
<ele>436.43332</ele>
<time>2011-08-03T07:09:22Z</time>
</trkpt>
<trkpt lat="49.05572506" lon="11.600445">
<ele>434.8</ele>
<time>2011-08-03T07:09:39Z</time>
</trkpt>
<trkpt lat="49.05568976" lon="11.60093867">
<ele>435.63333</ele>
<time>2011-08-03T07:10:39Z</time>
</trkpt>
<trkpt lat="49.05562468" lon="11.60125557">
<ele>438.1</ele>
<time>2011-08-03T07:10:42Z</time>
</trkpt>
<trkpt lat="49.05553208" lon="11.60152791">
<ele>439.66666</ele>
<time>2011-08-03T07:10:45Z</time>
</trkpt>
<trkpt lat="49.05542304" lon="11.60188324">
<ele>438.56668</ele>
<time>2011-08-03T07:10:49Z</time>
</trkpt>
<trkpt lat="49.05536517" lon="11.60219363">
<ele>435.66666</ele>
<time>2011-08-03T07:10:52Z</time>
</trkpt>
<trkpt lat="49.05529413" lon="11.60244981">
<ele>433.1</ele>
<time>2011-08-03T07:10:55Z</time>
</trkpt>
<trkpt lat="49.0551933" lon="11.60275898">
<ele>431.7</ele>
<time>2011-08-03T07:10:59Z</time>
</trkpt>
<trkpt lat="49.05497326" lon="11.60315195">
<ele>431.9</ele>
<time>2011-08-03T07:11:05Z</time>
</trkpt>
<trkpt lat="49.05482183" lon="11.60341705">
<ele>431.93332</ele>
<time>2011-08-03T07:11:09Z</time>
</trkpt>
<trkpt lat="49.0546822" lon="11.60363258">
<ele>431.3</ele>
<time>2011-08-03T07:11:12Z</time>
</trkpt>
<trkpt lat="49.05451607" lon="11.60383644">
<ele>430.16666</ele>
<time>2011-08-03T07:11:15Z</time>
</trkpt>
<trkpt lat="49.05434046" lon="11.60394866">
<ele>429.46667</ele>
<time>2011-08-03T07:11:20Z</time>
</trkpt>
<trkpt lat="49.05411636" lon="11.60372077">
<ele>430.43332</ele>
<time>2011-08-03T07:12:36Z</time>
</trkpt>
<trkpt lat="49.05391259" lon="11.60358053">
<ele>431.2</ele>
<time>2011-08-03T07:12:40Z</time>
</trkpt>
<trkpt lat="49.05373951" lon="11.60347035">
<ele>431.3</ele>
<time>2011-08-03T07:12:43Z</time>
</trkpt>
<trkpt lat="49.05357839" lon="11.60334562">
<ele>430.66666</ele>
<time>2011-08-03T07:12:46Z</time>
</trkpt>
<trkpt lat="49.0533829" lon="11.60315882">
<ele>430.33334</ele>
<time>2011-08-03T07:12:50Z</time>
</trkpt>
<trkpt lat="49.05322312" lon="11.60298941">
<ele>430.4</ele>
<time>2011-08-03T07:12:54Z</time>
</trkpt>
<trkpt lat="49.05310842" lon="11.60277717">
<ele>430.03333</ele>
<time>2011-08-03T07:13:09Z</time>
</trkpt>
<trkpt lat="49.05298987" lon="11.60253716">
<ele>429.43332</ele>
<time>2011-08-03T07:13:19Z</time>
</trkpt>
<trkpt lat="49.05283749" lon="11.60238761">
<ele>429.03333</ele>
<time>2011-08-03T07:13:24Z</time>
</trkpt>
<trkpt lat="49.05269051" lon="11.60222492">
<ele>428.73334</ele>
<time>2011-08-03T07:13:29Z</time>
</trkpt>
<trkpt lat="49.05254166" lon="11.60203781">
<ele>428.53333</ele>
<time>2011-08-03T07:13:34Z</time>
</trkpt>
<trkpt lat="49.05226987" lon="11.6019338">
<ele>428.46667</ele>
<time>2011-08-03T07:13:41Z</time>
</trkpt>
<trkpt lat="49.05204946" lon="11.60188402">
<ele>428.3</ele>
<time>2011-08-03T07:13:46Z</time>
</trkpt>
<trkpt lat="49.05185726" lon="11.60184113">
<ele>428.2</ele>
<time>2011-08-03T07:13:50Z</time>
</trkpt>
<trkpt lat="49.05165159" lon="11.60178969">
<ele>428.13333</ele>
<time>2011-08-03T07:13:54Z</time>
</trkpt>
<trkpt lat="49.05145026" lon="11.60171487">
<ele>428.36667</ele>
<time>2011-08-03T07:13:58Z</time>
</trkpt>
<trkpt lat="49.05124716" lon="11.60161501">
<ele>428.63333</ele>
<time>2011-08-03T07:14:02Z</time>
</trkpt>
<trkpt lat="49.05100208" lon="11.60143058">
<ele>428.83334</ele>
<time>2011-08-03T07:14:07Z</time>
</trkpt>
<trkpt lat="49.05081193" lon="11.60127695">
<ele>428.73334</ele>
<time>2011-08-03T07:14:11Z</time>
</trkpt>
<trkpt lat="49.05061488" lon="11.60114574">
<ele>428.63333</ele>
<time>2011-08-03T07:14:15Z</time>
</trkpt>
<trkpt lat="49.05035874" lon="11.60099975">
<ele>428.26666</ele>
<time>2011-08-03T07:14:20Z</time>
</trkpt>
<trkpt lat="49.0501389" lon="11.60089215">
<ele>428.0</ele>
<time>2011-08-03T07:14:24Z</time>
</trkpt>
<trkpt lat="49.04991707" lon="11.60077901">
<ele>427.6</ele>
<time>2011-08-03T07:14:28Z</time>
</trkpt>
<trkpt lat="49.0496353" lon="11.60063053">
<ele>427.6</ele>
<time>2011-08-03T07:14:33Z</time>
</trkpt>
<trkpt lat="49.04940549" lon="11.60052928">
<ele>427.4</ele>
<time>2011-08-03T07:14:37Z</time>
</trkpt>
<trkpt lat="49.04919709" lon="11.60036884">
<ele>427.43332</ele>
<time>2011-08-03T07:14:41Z</time>
</trkpt>
<trkpt lat="49.04893393" lon="11.60015525">
<ele>427.16666</ele>
<time>2011-08-03T07:14:46Z</time>
</trkpt>
<trkpt lat="49.04877274" lon="11.60002934">
<ele>427.16666</ele>
<time>2011-08-03T07:14:49Z</time>
</trkpt>
<trkpt lat="49.04856488" lon="11.59987912">
<ele>427.0</ele>
<time>2011-08-03T07:14:53Z</time>
</trkpt>
<trkpt lat="49.04827345" lon="11.59962353">
<ele>427.16666</ele>
<time>2011-08-03T07:14:59Z</time>
</trkpt>
<trkpt lat="49.04810449" lon="11.59952259">
<ele>427.03333</ele>
<time>2011-08-03T07:15:02Z</time>
</trkpt>
<trkpt lat="49.04787755" lon="11.5993991">
<ele>426.96667</ele>
<time>2011-08-03T07:15:06Z</time>
</trkpt>
<trkpt lat="49.04756835" lon="11.59922533">
<ele>427.13333</ele>
<time>2011-08-03T07:15:12Z</time>
</trkpt>
<trkpt lat="49.04740022" lon="11.5991171">
<ele>426.4</ele>
<time>2011-08-03T07:15:29Z</time>
</trkpt>
<trkpt lat="49.04725155" lon="11.59894831">
<ele>426.26666</ele>
<time>2011-08-03T07:16:40Z</time>
</trkpt>
<trkpt lat="49.04707339" lon="11.59883944">
<ele>426.23334</ele>
<time>2011-08-03T07:16:45Z</time>
</trkpt>
<trkpt lat="49.04690471" lon="11.59872659">
<ele>428.16666</ele>
<time>2011-08-03T07:16:49Z</time>
</trkpt>
<trkpt lat="49.04671493" lon="11.59859304">
<ele>428.46667</ele>
<time>2011-08-03T07:16:52Z</time>
</trkpt>
<trkpt lat="49.04651613" lon="11.59844884">
<ele>428.03333</ele>
<time>2011-08-03T07:16:56Z</time>
</trkpt>
<trkpt lat="49.04631921" lon="11.5982846">
<ele>426.63333</ele>
<time>2011-08-03T07:17:00Z</time>
</trkpt>
<trkpt lat="49.0461489" lon="11.59812362">
<ele>426.6</ele>
<time>2011-08-03T07:17:04Z</time>
</trkpt>
<trkpt lat="49.04597966" lon="11.59790675">
<ele>427.13333</ele>
<time>2011-08-03T07:17:09Z</time>
</trkpt>
<trkpt lat="49.04583325" lon="11.59772062">
<ele>428.23334</ele>
<time>2011-08-03T07:17:14Z</time>
</trkpt>
<trkpt lat="49.04564285" lon="11.59753052">
<ele>429.1</ele>
<time>2011-08-03T07:17:19Z</time>
</trkpt>
<trkpt lat="49.04546358" lon="11.59734763">
<ele>429.5</ele>
<time>2011-08-03T07:17:23Z</time>
</trkpt>
<trkpt lat="49.04531854" lon="11.597171">
<ele>429.23334</ele>
<time>2011-08-03T07:17:26Z</time>
</trkpt>
<trkpt lat="49.04518529" lon="11.59697066">
<ele>428.4</ele>
<time>2011-08-03T07:17:29Z</time>
</trkpt>
<trkpt lat="49.04500944" lon="11.59667126">
<ele>427.73334</ele>
<time>2011-08-03T07:17:33Z</time>
</trkpt>
<trkpt lat="49.04489088" lon="11.59642764">
<ele>427.1</ele>
<time>2011-08-03T07:17:36Z</time>
</trkpt>
<trkpt lat="49.04476734" lon="11.59620239">
<ele>426.9</ele>
<time>2011-08-03T07:17:39Z</time>
</trkpt>
<trkpt lat="49.04463738" lon="11.59598853">
<ele>426.46667</ele>
<time>2011-08-03T07:17:42Z</time>
</trkpt>
<trkpt lat="49.04445538" lon="11.5957086">
<ele>425.8</ele>
<time>2011-08-03T07:17:46Z</time>
</trkpt>
<trkpt lat="49.04426675" lon="11.59547383">
<ele>424.96667</ele>
<time>2011-08-03T07:17:50Z</time>
</trkpt>
<trkpt lat="49.0441215" lon="11.59529538">
<ele>424.2</ele>
<time>2011-08-03T07:17:53Z</time>
</trkpt>
<trkpt lat="49.0439701" lon="11.59512314">
<ele>423.76666</ele>
<time>2011-08-03T07:17:56Z</time>
</trkpt>
<trkpt lat="49.04378917" lon="11.59492424">
<ele>423.43332</ele>
<time>2011-08-03T07:18:00Z</time>
</trkpt>
<trkpt lat="49.04363026" lon="11.59472207">
<ele>423.23334</ele>
<time>2011-08-03T07:18:04Z</time>
</trkpt>
<trkpt lat="49.04349062" lon="11.59447996">
<ele>423.26666</ele>
<time>2011-08-03T07:18:08Z</time>
</trkpt>
<trkpt lat="49.04334272" lon="11.59425067">
<ele>423.4</ele>
<time>2011-08-03T07:18:12Z</time>
</trkpt>
<trkpt lat="49.04316062" lon="11.59410971">
<ele>423.43332</ele>
<time>2011-08-03T07:18:16Z</time>
</trkpt>
<trkpt lat="49.04297983" lon="11.59397238">
<ele>423.43332</ele>
<time>2011-08-03T07:18:20Z</time>
</trkpt>
<trkpt lat="49.04276748" lon="11.59381969">
<ele>423.56668</ele>
<time>2011-08-03T07:18:25Z</time>
</trkpt>
<trkpt lat="49.04261063" lon="11.59364944">
<ele>423.7</ele>
<time>2011-08-03T07:19:05Z</time>
</trkpt>
<trkpt lat="49.0424523" lon="11.5934322">
<ele>424.16666</ele>
<time>2011-08-03T07:19:11Z</time>
</trkpt>
<trkpt lat="49.04239509" lon="11.59316625">
<ele>424.56668</ele>
<time>2011-08-03T07:19:14Z</time>
</trkpt>
<trkpt lat="49.04230255" lon="11.59289996">
<ele>424.9</ele>
<time>2011-08-03T07:19:17Z</time>
</trkpt>
<trkpt lat="49.04217641" lon="11.59268199">
<ele>425.16666</ele>
<time>2011-08-03T07:19:20Z</time>
</trkpt>
<trkpt lat="49.04203327" lon="11.59251425">
<ele>425.5</ele>
<time>2011-08-03T07:19:23Z</time>
</trkpt>
<trkpt lat="49.04184577" lon="11.592286">
<ele>426.13333</ele>
<time>2011-08-03T07:19:27Z</time>
</trkpt>
<trkpt lat="49.04165782" lon="11.59208245">
<ele>426.36667</ele>
<time>2011-08-03T07:19:31Z</time>
</trkpt>
<trkpt lat="49.04147583" lon="11.59186226">
<ele>426.4</ele>
<time>2011-08-03T07:19:35Z</time>
</trkpt>
<trkpt lat="49.0412903" lon="11.591644">
<ele>426.13333</ele>
<time>2011-08-03T07:19:39Z</time>
</trkpt>
<trkpt lat="49.04110376" lon="11.59144749">
<ele>425.5</ele>
<time>2011-08-03T07:19:43Z</time>
</trkpt>
<trkpt lat="49.04091036" lon="11.5912601">
<ele>424.7</ele>
<time>2011-08-03T07:19:47Z</time>
</trkpt>
<trkpt lat="49.04069873" lon="11.5911093">
<ele>424.03333</ele>
<time>2011-08-03T07:19:51Z</time>
</trkpt>
<trkpt lat="49.04044093" lon="11.59090358">
<ele>423.56668</ele>
<time>2011-08-03T07:19:56Z</time>
</trkpt>
<trkpt lat="49.04022529" lon="11.59077686">
<ele>423.26666</ele>
<time>2011-08-03T07:20:00Z</time>
</trkpt>
<trkpt lat="49.04002784" lon="11.59065959">
<ele>423.03333</ele>
<time>2011-08-03T07:20:04Z</time>
</trkpt>
<trkpt lat="49.03982477" lon="11.59049637">
<ele>422.83334</ele>
<time>2011-08-03T07:20:09Z</time>
</trkpt>
<trkpt lat="49.03966373" lon="11.590358">
<ele>422.46667</ele>
<time>2011-08-03T07:20:13Z</time>
</trkpt>
<trkpt lat="49.03947139" lon="11.59021856">
<ele>421.9</ele>
<time>2011-08-03T07:20:18Z</time>
</trkpt>
<trkpt lat="49.03928475" lon="11.59005018">
<ele>421.4</ele>
<time>2011-08-03T07:20:23Z</time>
</trkpt>
<trkpt lat="49.03908633" lon="11.58989911">
<ele>421.1</ele>
<time>2011-08-03T07:20:28Z</time>
</trkpt>
<trkpt lat="49.03890252" lon="11.58983107">
<ele>421.03333</ele>
<time>2011-08-03T07:20:32Z</time>
</trkpt>
<trkpt lat="49.03869228" lon="11.58979959">
<ele>421.06668</ele>
<time>2011-08-03T07:20:36Z</time>
</trkpt>
<trkpt lat="49.03850784" lon="11.58970096">
<ele>421.13333</ele>
<time>2011-08-03T07:20:40Z</time>
</trkpt>
<trkpt lat="49.03832583" lon="11.58951689">
<ele>421.1</ele>
<time>2011-08-03T07:20:44Z</time>
</trkpt>
<trkpt lat="49.0381664" lon="11.58932815">
<ele>420.8</ele>
<time>2011-08-03T07:20:48Z</time>
</trkpt>
<trkpt lat="49.0380069" lon="11.5891318">
<ele>420.83334</ele>
<time>2011-08-03T07:20:52Z</time>
</trkpt>
<trkpt lat="49.03784186" lon="11.5889093">
<ele>420.76666</ele>
<time>2011-08-03T07:20:57Z</time>
</trkpt>
<trkpt lat="49.03764085" lon="11.58878422">
<ele>420.23334</ele>
<time>2011-08-03T07:21:01Z</time>
</trkpt>
<trkpt lat="49.03742474" lon="11.58863793">
<ele>419.1</ele>
<time>2011-08-03T07:21:05Z</time>
</trkpt>
<trkpt lat="49.03725271" lon="11.5885031">
<ele>417.66666</ele>
<time>2011-08-03T07:21:08Z</time>
</trkpt>
<trkpt lat="49.03702686" lon="11.58826408">
<ele>416.7</ele>
<time>2011-08-03T07:21:14Z</time>
</trkpt>
<trkpt lat="49.0368209" lon="11.58814565">
<ele>416.23334</ele>
<time>2011-08-03T07:21:19Z</time>
</trkpt>
<trkpt lat="49.03666749" lon="11.58797962">
<ele>415.96667</ele>
<time>2011-08-03T07:21:23Z</time>
</trkpt>
<trkpt lat="49.03651068" lon="11.58781362">
<ele>415.76666</ele>
<time>2011-08-03T07:21:27Z</time>
</trkpt>
<trkpt lat="49.03633571" lon="11.58767299">
<ele>415.8</ele>
<time>2011-08-03T07:21:32Z</time>
</trkpt>
<trkpt lat="49.03616777" lon="11.58743">
<ele>415.83334</ele>
<time>2011-08-03T07:21:37Z</time>
</trkpt>
<trkpt lat="49.03601587" lon="11.58722494">
<ele>415.46667</ele>
<time>2011-08-03T07:21:41Z</time>
</trkpt>
<trkpt lat="49.03587499" lon="11.58700165">
<ele>414.8</ele>
<time>2011-08-03T07:21:45Z</time>
</trkpt>
<trkpt lat="49.03578214" lon="11.58671691">
<ele>414.63333</ele>
<time>2011-08-03T07:21:49Z</time>
</trkpt>
<trkpt lat="49.03572749" lon="11.58637817">
<ele>415.13333</ele>
<time>2011-08-03T07:21:53Z</time>
</trkpt>
<trkpt lat="49.03569638" lon="11.58608711">
<ele>415.36667</ele>
<time>2011-08-03T07:21:57Z</time>
</trkpt>
<trkpt lat="49.03551819" lon="11.58621729">
<ele>415.86667</ele>
<time>2011-08-03T07:23:46Z</time>
</trkpt>
<trkpt lat="49.03543423" lon="11.58647059">
<ele>416.6</ele>
<time>2011-08-03T07:23:51Z</time>
</trkpt>
<trkpt lat="49.03534136" lon="11.5867498">
<ele>417.66666</ele>
<time>2011-08-03T07:23:56Z</time>
</trkpt>
<trkpt lat="49.03518324" lon="11.58691767">
<ele>417.9</ele>
<time>2011-08-03T07:24:04Z</time>
</trkpt>
<trkpt lat="49.0350843" lon="11.58719676">
<ele>418.6</ele>
<time>2011-08-03T07:25:57Z</time>
</trkpt>
<trkpt lat="49.03495297" lon="11.58741241">
<ele>420.16666</ele>
<time>2011-08-03T07:26:03Z</time>
</trkpt>
<trkpt lat="49.03477823" lon="11.58770654">
<ele>419.6</ele>
<time>2011-08-03T07:26:08Z</time>
</trkpt>
<trkpt lat="49.03471031" lon="11.5880455">
<ele>418.1</ele>
<time>2011-08-03T07:26:13Z</time>
</trkpt>
<trkpt lat="49.034624" lon="11.588353">
<ele>415.83334</ele>
<time>2011-08-03T07:26:18Z</time>
</trkpt>
<trkpt lat="49.03452869" lon="11.58865992">
<ele>415.56668</ele>
<time>2011-08-03T07:26:23Z</time>
</trkpt>
<trkpt lat="49.03446921" lon="11.58893768">
<ele>415.1</ele>
<time>2011-08-03T07:26:27Z</time>
</trkpt>
<trkpt lat="49.03439206" lon="11.58923348">
<ele>414.3</ele>
<time>2011-08-03T07:26:32Z</time>
</trkpt>
<trkpt lat="49.03429375" lon="11.58963821">
<ele>415.13333</ele>
<time>2011-08-03T07:26:39Z</time>
</trkpt>
<trkpt lat="49.03424031" lon="11.58990433">
<ele>416.26666</ele>
<time>2011-08-03T07:26:44Z</time>
</trkpt>
<trkpt lat="49.03413694" lon="11.59018668">
<ele>415.7</ele>
<time>2011-08-03T07:26:52Z</time>
</trkpt>
<trkpt lat="49.03406992" lon="11.59049894">
<ele>412.13333</ele>
<time>2011-08-03T07:26:57Z</time>
</trkpt>
<trkpt lat="49.03402007" lon="11.59078762">
<ele>408.33334</ele>
<time>2011-08-03T07:27:01Z</time>
</trkpt>
<trkpt lat="49.03395159" lon="11.59110101">
<ele>405.9</ele>
<time>2011-08-03T07:27:07Z</time>
</trkpt>
<trkpt lat="49.03389183" lon="11.59143529">
<ele>405.53333</ele>
<time>2011-08-03T07:27:12Z</time>
</trkpt>
<trkpt lat="49.03375896" lon="11.5917015">
<ele>405.36667</ele>
<time>2011-08-03T07:27:18Z</time>
</trkpt>
<trkpt lat="49.0336507" lon="11.59198943">
<ele>406.16666</ele>
<time>2011-08-03T07:27:22Z</time>
</trkpt>
<trkpt lat="49.03356054" lon="11.59225883">
<ele>407.56668</ele>
<time>2011-08-03T07:27:26Z</time>
</trkpt>
<trkpt lat="49.03344373" lon="11.59251864">
<ele>409.8</ele>
<time>2011-08-03T07:27:31Z</time>
</trkpt>
<trkpt lat="49.0335388" lon="11.59224914">
<ele>413.03333</ele>
<time>2011-08-03T07:28:03Z</time>
</trkpt>
<trkpt lat="49.03364081" lon="11.59199762">
<ele>415.23334</ele>
<time>2011-08-03T07:28:06Z</time>
</trkpt>
<trkpt lat="49.03374583" lon="11.59170532">
<ele>416.63333</ele>
<time>2011-08-03T07:28:10Z</time>
</trkpt>
<trkpt lat="49.03385907" lon="11.59139431">
<ele>416.33334</ele>
<time>2011-08-03T07:28:14Z</time>
</trkpt>
<trkpt lat="49.03393711" lon="11.59112073">
<ele>416.16666</ele>
<time>2011-08-03T07:28:17Z</time>
</trkpt>
<trkpt lat="49.03401117" lon="11.59077944">
<ele>416.03333</ele>
<time>2011-08-03T07:28:20Z</time>
</trkpt>
<trkpt lat="49.03408463" lon="11.59043118">
<ele>416.03333</ele>
<time>2011-08-03T07:28:23Z</time>
</trkpt>
<trkpt lat="49.03418497" lon="11.59017907">
<ele>415.93332</ele>
<time>2011-08-03T07:28:27Z</time>
</trkpt>
<trkpt lat="49.033998" lon="11.58997765">
<ele>415.83334</ele>
<time>2011-08-03T07:28:33Z</time>
</trkpt>
<trkpt lat="49.0338101" lon="11.58986901">
<ele>415.43332</ele>
<time>2011-08-03T07:28:37Z</time>
</trkpt>
<trkpt lat="49.03362228" lon="11.58976929">
<ele>415.06668</ele>
<time>2011-08-03T07:28:40Z</time>
</trkpt>
<trkpt lat="49.03344747" lon="11.58965702">
<ele>414.63333</ele>
<time>2011-08-03T07:28:43Z</time>
</trkpt>
<trkpt lat="49.03328008" lon="11.58953251">
<ele>414.53333</ele>
<time>2011-08-03T07:28:46Z</time>
</trkpt>
<trkpt lat="49.03307897" lon="11.58935605">
<ele>414.13333</ele>
<time>2011-08-03T07:28:50Z</time>
</trkpt>
<trkpt lat="49.03290852" lon="11.5892512">
<ele>413.23334</ele>
<time>2011-08-03T07:28:53Z</time>
</trkpt>
<trkpt lat="49.03275627" lon="11.58908034">
<ele>412.7</ele>
<time>2011-08-03T07:28:56Z</time>
</trkpt>
<trkpt lat="49.03247581" lon="11.58870893">
<ele>412.73334</ele>
<time>2011-08-03T07:29:02Z</time>
</trkpt>
<trkpt lat="49.03232492" lon="11.58854415">
<ele>413.33334</ele>
<time>2011-08-03T07:29:05Z</time>
</trkpt>
<trkpt lat="49.03214044" lon="11.58832753">
<ele>413.5</ele>
<time>2011-08-03T07:29:09Z</time>
</trkpt>
<trkpt lat="49.0318612" lon="11.58808118">
<ele>412.83334</ele>
<time>2011-08-03T07:29:15Z</time>
</trkpt>
<trkpt lat="49.03166429" lon="11.58786885">
<ele>411.96667</ele>
<time>2011-08-03T07:29:19Z</time>
</trkpt>
<trkpt lat="49.03153637" lon="11.58765775">
<ele>411.46667</ele>
<time>2011-08-03T07:29:22Z</time>
</trkpt>
<trkpt lat="49.03138718" lon="11.58747849">
<ele>411.46667</ele>
<time>2011-08-03T07:29:25Z</time>
</trkpt>
<trkpt lat="49.03120949" lon="11.58725922">
<ele>411.46667</ele>
<time>2011-08-03T07:29:29Z</time>
</trkpt>
<trkpt lat="49.03105666" lon="11.58704977">
<ele>410.9</ele>
<time>2011-08-03T07:29:32Z</time>
</trkpt>
<trkpt lat="49.03092042" lon="11.58682005">
<ele>410.2</ele>
<time>2011-08-03T07:29:35Z</time>
</trkpt>
<trkpt lat="49.03078358" lon="11.58659581">
<ele>409.73334</ele>
<time>2011-08-03T07:29:38Z</time>
</trkpt>
<trkpt lat="49.03062471" lon="11.58632232">
<ele>409.43332</ele>
<time>2011-08-03T07:29:42Z</time>
</trkpt>
<trkpt lat="49.0304878" lon="11.58614377">
<ele>409.4</ele>
<time>2011-08-03T07:29:45Z</time>
</trkpt>
<trkpt lat="49.0303437" lon="11.58596689">
<ele>409.6</ele>
<time>2011-08-03T07:29:48Z</time>
</trkpt>
<trkpt lat="49.03018794" lon="11.58580497">
<ele>409.46667</ele>
<time>2011-08-03T07:29:51Z</time>
</trkpt>
<trkpt lat="49.03003326" lon="11.58564156">
<ele>409.16666</ele>
<time>2011-08-03T07:29:54Z</time>
</trkpt>
<trkpt lat="49.02989956" lon="11.58542902">
<ele>408.96667</ele>
<time>2011-08-03T07:29:57Z</time>
</trkpt>
<trkpt lat="49.02972546" lon="11.58525628">
<ele>408.9</ele>
<time>2011-08-03T07:30:00Z</time>
</trkpt>
<trkpt lat="49.0295427" lon="11.58501723">
<ele>409.76666</ele>
<time>2011-08-03T07:30:04Z</time>
</trkpt>
<trkpt lat="49.02936756" lon="11.58487309">
<ele>410.93332</ele>
<time>2011-08-03T07:30:08Z</time>
</trkpt>
<trkpt lat="49.0291656" lon="11.58474222">
<ele>412.36667</ele>
<time>2011-08-03T07:30:12Z</time>
</trkpt>
<trkpt lat="49.02897238" lon="11.58458975">
<ele>412.73334</ele>
<time>2011-08-03T07:30:16Z</time>
</trkpt>
<trkpt lat="49.02877657" lon="11.58433404">
<ele>412.23334</ele>
<time>2011-08-03T07:30:20Z</time>
</trkpt>
<trkpt lat="49.02858398" lon="11.58412869">
<ele>412.06668</ele>
<time>2011-08-03T07:30:24Z</time>
</trkpt>
<trkpt lat="49.02835906" lon="11.58413367">
<ele>412.33334</ele>
<time>2011-08-03T07:30:28Z</time>
</trkpt>
<trkpt lat="49.02805712" lon="11.58392156">
<ele>412.63333</ele>
<time>2011-08-03T07:30:33Z</time>
</trkpt>
<trkpt lat="49.02806784" lon="11.58356531">
<ele>412.46667</ele>
<time>2011-08-03T07:30:36Z</time>
</trkpt>
<trkpt lat="49.0280867" lon="11.58323683">
<ele>412.6</ele>
<time>2011-08-03T07:30:40Z</time>
</trkpt>
<trkpt lat="49.02793873" lon="11.58289091">
<ele>413.13333</ele>
<time>2011-08-03T07:30:46Z</time>
</trkpt>
<trkpt lat="49.02777088" lon="11.58279032">
<ele>413.26666</ele>
<time>2011-08-03T07:32:09Z</time>
</trkpt>
<trkpt lat="49.02758731" lon="11.58280043">
<ele>413.2</ele>
<time>2011-08-03T07:32:14Z</time>
</trkpt>
<trkpt lat="49.02740316" lon="11.58273529">
<ele>412.73334</ele>
<time>2011-08-03T07:32:19Z</time>
</trkpt>
<trkpt lat="49.0272032" lon="11.58267006">
<ele>412.96667</ele>
<time>2011-08-03T07:32:25Z</time>
</trkpt>
<trkpt lat="49.0273996" lon="11.58266998">
<ele>412.4</ele>
<time>2011-08-03T07:33:05Z</time>
</trkpt>
<trkpt lat="49.02758914" lon="11.5827556">
<ele>411.96667</ele>
<time>2011-08-03T07:33:09Z</time>
</trkpt>
<trkpt lat="49.02780172" lon="11.58271026">
<ele>411.66666</ele>
<time>2011-08-03T07:33:14Z</time>
</trkpt>
<trkpt lat="49.02774799" lon="11.58232948">
<ele>412.03333</ele>
<time>2011-08-03T07:33:22Z</time>
</trkpt>
<trkpt lat="49.027641" lon="11.58209333">
<ele>412.6</ele>
<time>2011-08-03T07:33:26Z</time>
</trkpt>
<trkpt lat="49.02753036" lon="11.58185152">
<ele>413.26666</ele>
<time>2011-08-03T07:33:30Z</time>
</trkpt>
<trkpt lat="49.02740083" lon="11.58155187">
<ele>414.03333</ele>
<time>2011-08-03T07:33:35Z</time>
</trkpt>
<trkpt lat="49.02728733" lon="11.58132768">
<ele>414.8</ele>
<time>2011-08-03T07:33:39Z</time>
</trkpt>
<trkpt lat="49.02718402" lon="11.58109605">
<ele>415.2</ele>
<time>2011-08-03T07:33:43Z</time>
</trkpt>
<trkpt lat="49.02705077" lon="11.58080927">
<ele>415.53333</ele>
<time>2011-08-03T07:33:48Z</time>
</trkpt>
<trkpt lat="49.02691593" lon="11.58057183">
<ele>415.63333</ele>
<time>2011-08-03T07:33:52Z</time>
</trkpt>
<trkpt lat="49.02678193" lon="11.5803346">
<ele>416.13333</ele>
<time>2011-08-03T07:33:56Z</time>
</trkpt>
<trkpt lat="49.02659439" lon="11.58006961">
<ele>416.83334</ele>
<time>2011-08-03T07:34:01Z</time>
</trkpt>
<trkpt lat="49.02644262" lon="11.5799218">
<ele>417.9</ele>
<time>2011-08-03T07:34:06Z</time>
</trkpt>
<trkpt lat="49.02627303" lon="11.57971389">
<ele>418.76666</ele>
<time>2011-08-03T07:34:14Z</time>
</trkpt>
<trkpt lat="49.02617763" lon="11.57946924">
<ele>418.73334</ele>
<time>2011-08-03T07:34:19Z</time>
</trkpt>
<trkpt lat="49.02619645" lon="11.57916044">
<ele>418.16666</ele>
<time>2011-08-03T07:34:27Z</time>
</trkpt>
<trkpt lat="49.02637277" lon="11.57905768">
<ele>416.86667</ele>
<time>2011-08-03T07:35:34Z</time>
</trkpt>
<trkpt lat="49.02659691" lon="11.57916132">
<ele>415.46667</ele>
<time>2011-08-03T07:35:38Z</time>
</trkpt>
<trkpt lat="49.02673571" lon="11.57943507">
<ele>413.76666</ele>
<time>2011-08-03T07:35:41Z</time>
</trkpt>
<trkpt lat="49.02691942" lon="11.57947745">
<ele>411.83334</ele>
<time>2011-08-03T07:35:46Z</time>
</trkpt>
<trkpt lat="49.02696742" lon="11.5792021">
<ele>410.16666</ele>
<time>2011-08-03T07:35:49Z</time>
</trkpt>
<trkpt lat="49.02701587" lon="11.57885093">
<ele>408.66666</ele>
<time>2011-08-03T07:35:53Z</time>
</trkpt>
<trkpt lat="49.02700835" lon="11.57834504">
<ele>408.16666</ele>
<time>2011-08-03T07:35:58Z</time>
</trkpt>
<trkpt lat="49.02698517" lon="11.57807205">
<ele>408.26666</ele>
<time>2011-08-03T07:36:01Z</time>
</trkpt>
<trkpt lat="49.02694522" lon="11.57779617">
<ele>408.76666</ele>
<time>2011-08-03T07:36:04Z</time>
</trkpt>
<trkpt lat="49.02689744" lon="11.57751834">
<ele>409.0</ele>
<time>2011-08-03T07:36:07Z</time>
</trkpt>
<trkpt lat="49.02677273" lon="11.5771744">
<ele>409.3</ele>
<time>2011-08-03T07:36:11Z</time>
</trkpt>
<trkpt lat="49.02667813" lon="11.57690773">
<ele>409.43332</ele>
<time>2011-08-03T07:36:14Z</time>
</trkpt>
<trkpt lat="49.02657311" lon="11.57664769">
<ele>409.5</ele>
<time>2011-08-03T07:36:17Z</time>
</trkpt>
<trkpt lat="49.02646596" lon="11.57639808">
<ele>409.56668</ele>
<time>2011-08-03T07:36:20Z</time>
</trkpt>
<trkpt lat="49.0263376" lon="11.57606165">
<ele>409.76666</ele>
<time>2011-08-03T07:36:24Z</time>
</trkpt>
<trkpt lat="49.02623758" lon="11.57580028">
<ele>409.86667</ele>
<time>2011-08-03T07:36:27Z</time>
</trkpt>
<trkpt lat="49.02613963" lon="11.57554301">
<ele>409.76666</ele>
<time>2011-08-03T07:36:30Z</time>
</trkpt>
<trkpt lat="49.02604944" lon="11.57527963">
<ele>409.86667</ele>
<time>2011-08-03T07:36:33Z</time>
</trkpt>
<trkpt lat="49.02591486" lon="11.574941">
<ele>410.06668</ele>
<time>2011-08-03T07:36:37Z</time>
</trkpt>
<trkpt lat="49.02579058" lon="11.57471708">
<ele>410.26666</ele>
<time>2011-08-03T07:36:40Z</time>
</trkpt>
<trkpt lat="49.02565214" lon="11.57451044">
<ele>410.33334</ele>
<time>2011-08-03T07:36:43Z</time>
</trkpt>
<trkpt lat="49.02547507" lon="11.57427313">
<ele>410.6</ele>
<time>2011-08-03T07:36:47Z</time>
</trkpt>
<trkpt lat="49.02531435" lon="11.57403646">
<ele>410.83334</ele>
<time>2011-08-03T07:36:51Z</time>
</trkpt>
<trkpt lat="49.02519287" lon="11.57376571">
<ele>411.3</ele>
<time>2011-08-03T07:36:55Z</time>
</trkpt>
<trkpt lat="49.02507354" lon="11.57348456">
<ele>411.8</ele>
<time>2011-08-03T07:36:59Z</time>
</trkpt>
<trkpt lat="49.02496213" lon="11.57322809">
<ele>412.4</ele>
<time>2011-08-03T07:37:03Z</time>
</trkpt>
<trkpt lat="49.02493911" lon="11.57295109">
<ele>412.33334</ele>
<time>2011-08-03T07:37:13Z</time>
</trkpt>
<trkpt lat="49.02507299" lon="11.57268935">
<ele>411.76666</ele>
<time>2011-08-03T07:37:25Z</time>
</trkpt>
<trkpt lat="49.02521219" lon="11.57243935">
<ele>411.33334</ele>
<time>2011-08-03T07:37:30Z</time>
</trkpt>
<trkpt lat="49.02534086" lon="11.57219126">
<ele>411.13333</ele>
<time>2011-08-03T07:37:35Z</time>
</trkpt>
<trkpt lat="49.02506363" lon="11.57191036">
<ele>410.8</ele>
<time>2011-08-03T07:37:42Z</time>
</trkpt>
<trkpt lat="49.02492323" lon="11.57164537">
<ele>410.1</ele>
<time>2011-08-03T07:37:46Z</time>
</trkpt>
<trkpt lat="49.02488509" lon="11.5713409">
<ele>409.7</ele>
<time>2011-08-03T07:37:49Z</time>
</trkpt>
<trkpt lat="49.02487899" lon="11.57106752">
<ele>409.73334</ele>
<time>2011-08-03T07:37:52Z</time>
</trkpt>
<trkpt lat="49.02485926" lon="11.57075214">
<ele>409.76666</ele>
<time>2011-08-03T07:37:55Z</time>
</trkpt>
<trkpt lat="49.02479403" lon="11.57040599">
<ele>409.7</ele>
<time>2011-08-03T07:37:59Z</time>
</trkpt>
<trkpt lat="49.02468356" lon="11.57017466">
<ele>410.06668</ele>
<time>2011-08-03T07:38:02Z</time>
</trkpt>
<trkpt lat="49.02455128" lon="11.56997795">
<ele>410.33334</ele>
<time>2011-08-03T07:38:05Z</time>
</trkpt>
<trkpt lat="49.02436933" lon="11.56975166">
<ele>410.46667</ele>
<time>2011-08-03T07:38:09Z</time>
</trkpt>
<trkpt lat="49.0241972" lon="11.56950433">
<ele>409.93332</ele>
<time>2011-08-03T07:38:13Z</time>
</trkpt>
<trkpt lat="49.02410487" lon="11.5692536">
<ele>409.53333</ele>
<time>2011-08-03T07:38:16Z</time>
</trkpt>
<trkpt lat="49.02422011" lon="11.56873574">
<ele>408.7</ele>
<time>2011-08-03T07:38:21Z</time>
</trkpt>
<trkpt lat="49.02429091" lon="11.56847484">
<ele>408.46667</ele>
<time>2011-08-03T07:38:24Z</time>
</trkpt>
<trkpt lat="49.02426431" lon="11.56815871">
<ele>408.23334</ele>
<time>2011-08-03T07:38:28Z</time>
</trkpt>
<trkpt lat="49.02396408" lon="11.56783996">
<ele>408.46667</ele>
<time>2011-08-03T07:38:34Z</time>
</trkpt>
<trkpt lat="49.02378506" lon="11.56771224">
<ele>408.53333</ele>
<time>2011-08-03T07:38:37Z</time>
</trkpt>
<trkpt lat="49.02362264" lon="11.56758424">
<ele>409.1</ele>
<time>2011-08-03T07:38:40Z</time>
</trkpt>
<trkpt lat="49.0234483" lon="11.56747519">
<ele>409.8</ele>
<time>2011-08-03T07:38:43Z</time>
</trkpt>
<trkpt lat="49.02321449" lon="11.56732992">
<ele>410.6</ele>
<time>2011-08-03T07:38:47Z</time>
</trkpt>
<trkpt lat="49.02303545" lon="11.56719045">
<ele>410.66666</ele>
<time>2011-08-03T07:38:50Z</time>
</trkpt>
<trkpt lat="49.02286671" lon="11.56701664">
<ele>410.66666</ele>
<time>2011-08-03T07:38:54Z</time>
</trkpt>
<trkpt lat="49.02266483" lon="11.56694799">
<ele>410.76666</ele>
<time>2011-08-03T07:38:57Z</time>
</trkpt>
<trkpt lat="49.0224818" lon="11.56677483">
<ele>411.23334</ele>
<time>2011-08-03T07:39:01Z</time>
</trkpt>
<trkpt lat="49.02227392" lon="11.56661194">
<ele>411.43332</ele>
<time>2011-08-03T07:39:05Z</time>
</trkpt>
<trkpt lat="49.02207255" lon="11.56643908">
<ele>411.1</ele>
<time>2011-08-03T07:39:09Z</time>
</trkpt>
<trkpt lat="49.02186717" lon="11.56628714">
<ele>410.56668</ele>
<time>2011-08-03T07:39:13Z</time>
</trkpt>
<trkpt lat="49.02169489" lon="11.56618579">
<ele>410.06668</ele>
<time>2011-08-03T07:39:16Z</time>
</trkpt>
<trkpt lat="49.02151158" lon="11.56608933">
<ele>409.7</ele>
<time>2011-08-03T07:39:19Z</time>
</trkpt>
<trkpt lat="49.02132854" lon="11.56597996">
<ele>409.3</ele>
<time>2011-08-03T07:39:22Z</time>
</trkpt>
<trkpt lat="49.02117304" lon="11.5656989">
<ele>408.46667</ele>
<time>2011-08-03T07:39:26Z</time>
</trkpt>
<trkpt lat="49.02106423" lon="11.56547898">
<ele>407.33334</ele>
<time>2011-08-03T07:39:29Z</time>
</trkpt>
<trkpt lat="49.02096042" lon="11.56515842">
<ele>407.03333</ele>
<time>2011-08-03T07:39:33Z</time>
</trkpt>
<trkpt lat="49.02092237" lon="11.56488274">
<ele>408.1</ele>
<time>2011-08-03T07:39:36Z</time>
</trkpt>
<trkpt lat="49.02088269" lon="11.56455215">
<ele>409.83334</ele>
<time>2011-08-03T07:39:40Z</time>
</trkpt>
<trkpt lat="49.0208362" lon="11.56426564">
<ele>410.86667</ele>
<time>2011-08-03T07:39:43Z</time>
</trkpt>
<trkpt lat="49.02080061" lon="11.56398078">
<ele>410.96667</ele>
<time>2011-08-03T07:39:46Z</time>
</trkpt>
<trkpt lat="49.02075921" lon="11.56370419">
<ele>410.7</ele>
<time>2011-08-03T07:39:49Z</time>
</trkpt>
<trkpt lat="49.02072703" lon="11.56340532">
<ele>410.5</ele>
<time>2011-08-03T07:39:53Z</time>
</trkpt>
<trkpt lat="49.02078129" lon="11.56313777">
<ele>410.46667</ele>
<time>2011-08-03T07:39:56Z</time>
</trkpt>
<trkpt lat="49.02087308" lon="11.562823">
<ele>410.26666</ele>
<time>2011-08-03T07:40:00Z</time>
</trkpt>
<trkpt lat="49.02103553" lon="11.56251439">
<ele>409.86667</ele>
<time>2011-08-03T07:40:05Z</time>
</trkpt>
<trkpt lat="49.02110028" lon="11.56221499">
<ele>410.1</ele>
<time>2011-08-03T07:40:09Z</time>
</trkpt>
<trkpt lat="49.02116784" lon="11.56188954">
<ele>410.7</ele>
<time>2011-08-03T07:40:13Z</time>
</trkpt>
<trkpt lat="49.0210476" lon="11.56166522">
<ele>411.2</ele>
<time>2011-08-03T07:40:20Z</time>
</trkpt>
<trkpt lat="49.02092312" lon="11.561456">
<ele>410.66666</ele>
<time>2011-08-03T07:40:24Z</time>
</trkpt>
<trkpt lat="49.02076803" lon="11.56127532">
<ele>409.6</ele>
<time>2011-08-03T07:40:28Z</time>
</trkpt>
<trkpt lat="49.02060532" lon="11.56109082">
<ele>408.93332</ele>
<time>2011-08-03T07:40:32Z</time>
</trkpt>
<trkpt lat="49.02042764" lon="11.56086974">
<ele>408.6</ele>
<time>2011-08-03T07:40:36Z</time>
</trkpt>
<trkpt lat="49.02024427" lon="11.56068419">
<ele>408.43332</ele>
<time>2011-08-03T07:40:40Z</time>
</trkpt>
<trkpt lat="49.02004951" lon="11.56047094">
<ele>408.3</ele>
<time>2011-08-03T07:40:44Z</time>
</trkpt>
<trkpt lat="49.01988037" lon="11.56026161">
<ele>407.86667</ele>
<time>2011-08-03T07:40:48Z</time>
</trkpt>
<trkpt lat="49.01969774" lon="11.5600418">
<ele>407.4</ele>
<time>2011-08-03T07:40:52Z</time>
</trkpt>
<trkpt lat="49.01940576" lon="11.55976324">
<ele>407.73334</ele>
<time>2011-08-03T07:40:57Z</time>
</trkpt>
<trkpt lat="49.01923236" lon="11.55954655">
<ele>408.5</ele>
<time>2011-08-03T07:41:02Z</time>
</trkpt>
<trkpt lat="49.01905989" lon="11.55931811">
<ele>409.46667</ele>
<time>2011-08-03T07:41:06Z</time>
</trkpt>
<trkpt lat="49.01886562" lon="11.55911413">
<ele>409.7</ele>
<time>2011-08-03T07:41:10Z</time>
</trkpt>
<trkpt lat="49.01868325" lon="11.55896216">
<ele>410.73334</ele>
<time>2011-08-03T07:41:14Z</time>
</trkpt>
<trkpt lat="49.01850773" lon="11.55878119">
<ele>411.16666</ele>
<time>2011-08-03T07:41:17Z</time>
</trkpt>
<trkpt lat="49.01822588" lon="11.55851833">
<ele>412.03333</ele>
<time>2011-08-03T07:41:23Z</time>
</trkpt>
<trkpt lat="49.01807356" lon="11.55835873">
<ele>411.23334</ele>
<time>2011-08-03T07:41:26Z</time>
</trkpt>
<trkpt lat="49.017901" lon="11.55817478">
<ele>411.53333</ele>
<time>2011-08-03T07:41:30Z</time>
</trkpt>
<trkpt lat="49.01762395" lon="11.55788491">
<ele>411.13333</ele>
<time>2011-08-03T07:41:36Z</time>
</trkpt>
<trkpt lat="49.01747375" lon="11.55768163">
<ele>411.93332</ele>
<time>2011-08-03T07:41:40Z</time>
</trkpt>
<trkpt lat="49.01723068" lon="11.55768782">
<ele>412.26666</ele>
<time>2011-08-03T07:41:44Z</time>
</trkpt>
<trkpt lat="49.01691612" lon="11.5575444">
<ele>412.93332</ele>
<time>2011-08-03T07:41:49Z</time>
</trkpt>
<trkpt lat="49.01671175" lon="11.55746478">
<ele>413.16666</ele>
<time>2011-08-03T07:41:52Z</time>
</trkpt>
<trkpt lat="49.01652412" lon="11.55738638">
<ele>413.23334</ele>
<time>2011-08-03T07:41:55Z</time>
</trkpt>
<trkpt lat="49.01632282" lon="11.55730372">
<ele>412.93332</ele>
<time>2011-08-03T07:41:58Z</time>
</trkpt>
<trkpt lat="49.01605658" lon="11.5571955">
<ele>412.5</ele>
<time>2011-08-03T07:42:02Z</time>
</trkpt>
<trkpt lat="49.01586033" lon="11.55712964">
<ele>412.13333</ele>
<time>2011-08-03T07:42:05Z</time>
</trkpt>
<trkpt lat="49.01565546" lon="11.5570666">
<ele>412.0</ele>
<time>2011-08-03T07:42:08Z</time>
</trkpt>
<trkpt lat="49.01545093" lon="11.55698594">
<ele>412.26666</ele>
<time>2011-08-03T07:42:11Z</time>
</trkpt>
<trkpt lat="49.01518044" lon="11.55686001">
<ele>412.73334</ele>
<time>2011-08-03T07:42:15Z</time>
</trkpt>
<trkpt lat="49.01498749" lon="11.55677768">
<ele>413.13333</ele>
<time>2011-08-03T07:42:18Z</time>
</trkpt>
<trkpt lat="49.01481472" lon="11.55669733">
<ele>414.13333</ele>
<time>2011-08-03T07:42:21Z</time>
</trkpt>
<trkpt lat="49.0146009" lon="11.55657041">
<ele>415.43332</ele>
<time>2011-08-03T07:42:24Z</time>
</trkpt>
<trkpt lat="49.01432528" lon="11.55635696">
<ele>416.7</ele>
<time>2011-08-03T07:42:28Z</time>
</trkpt>
<trkpt lat="49.01413327" lon="11.55621975">
<ele>417.3</ele>
<time>2011-08-03T07:42:31Z</time>
</trkpt>
<trkpt lat="49.01391539" lon="11.55605302">
<ele>417.7</ele>
<time>2011-08-03T07:42:36Z</time>
</trkpt>
<trkpt lat="49.01359371" lon="11.55590841">
<ele>418.16666</ele>
<time>2011-08-03T07:42:41Z</time>
</trkpt>
<trkpt lat="49.01342731" lon="11.55578313">
<ele>418.7</ele>
<time>2011-08-03T07:42:44Z</time>
</trkpt>
<trkpt lat="49.0132543" lon="11.55566785">
<ele>418.36667</ele>
<time>2011-08-03T07:42:46Z</time>
</trkpt>
<trkpt lat="49.01304571" lon="11.5554748">
<ele>417.13333</ele>
<time>2011-08-03T07:42:49Z</time>
</trkpt>
<trkpt lat="49.01287753" lon="11.55499501">
<ele>415.23334</ele>
<time>2011-08-03T07:42:54Z</time>
</trkpt>
<trkpt lat="49.01283868" lon="11.55467837">
<ele>413.8</ele>
<time>2011-08-03T07:42:57Z</time>
</trkpt>
<trkpt lat="49.01277079" lon="11.55437725">
<ele>413.0</ele>
<time>2011-08-03T07:43:00Z</time>
</trkpt>
<trkpt lat="49.01273887" lon="11.55408397">
<ele>412.3</ele>
<time>2011-08-03T07:43:03Z</time>
</trkpt>
<trkpt lat="49.01266625" lon="11.5536645">
<ele>411.6</ele>
<time>2011-08-03T07:43:07Z</time>
</trkpt>
<trkpt lat="49.01260356" lon="11.5532926">
<ele>411.06668</ele>
<time>2011-08-03T07:43:10Z</time>
</trkpt>
<trkpt lat="49.01255984" lon="11.55298188">
<ele>410.66666</ele>
<time>2011-08-03T07:43:13Z</time>
</trkpt>
<trkpt lat="49.01249415" lon="11.55271102">
<ele>410.63333</ele>
<time>2011-08-03T07:43:16Z</time>
</trkpt>
<trkpt lat="49.01244575" lon="11.55231535">
<ele>409.96667</ele>
<time>2011-08-03T07:43:20Z</time>
</trkpt>
<trkpt lat="49.01237197" lon="11.55204107">
<ele>409.76666</ele>
<time>2011-08-03T07:43:23Z</time>
</trkpt>
<trkpt lat="49.01230359" lon="11.55167865">
<ele>409.33334</ele>
<time>2011-08-03T07:43:27Z</time>
</trkpt>
<trkpt lat="49.012238" lon="11.55136964">
<ele>409.43332</ele>
<time>2011-08-03T07:43:30Z</time>
</trkpt>
<trkpt lat="49.01217986" lon="11.55110726">
<ele>409.53333</ele>
<time>2011-08-03T07:43:33Z</time>
</trkpt>
<trkpt lat="49.01212705" lon="11.55081664">
<ele>409.63333</ele>
<time>2011-08-03T07:43:36Z</time>
</trkpt>
<trkpt lat="49.01207554" lon="11.55054951">
<ele>409.66666</ele>
<time>2011-08-03T07:43:39Z</time>
</trkpt>
<trkpt lat="49.01203105" lon="11.55027311">
<ele>409.5</ele>
<time>2011-08-03T07:43:42Z</time>
</trkpt>
<trkpt lat="49.0119863" lon="11.54999184">
<ele>409.4</ele>
<time>2011-08-03T07:43:46Z</time>
</trkpt>
<trkpt lat="49.01189897" lon="11.54968048">
<ele>409.73334</ele>
<time>2011-08-03T07:43:50Z</time>
</trkpt>
<trkpt lat="49.0118345" lon="11.54938957">
<ele>409.93332</ele>
<time>2011-08-03T07:43:53Z</time>
</trkpt>
<trkpt lat="49.01170839" lon="11.54887772">
<ele>410.0</ele>
<time>2011-08-03T07:43:59Z</time>
</trkpt>
<trkpt lat="49.01169531" lon="11.54860417">
<ele>409.5</ele>
<time>2011-08-03T07:44:02Z</time>
</trkpt>
<trkpt lat="49.01163082" lon="11.54833143">
<ele>409.3</ele>
<time>2011-08-03T07:44:05Z</time>
</trkpt>
<trkpt lat="49.01159898" lon="11.54799789">
<ele>409.2</ele>
<time>2011-08-03T07:44:08Z</time>
</trkpt>
<trkpt lat="49.01153884" lon="11.54760492">
<ele>409.63333</ele>
<time>2011-08-03T07:44:12Z</time>
</trkpt>
<trkpt lat="49.01147657" lon="11.54729801">
<ele>409.63333</ele>
<time>2011-08-03T07:44:15Z</time>
</trkpt>
<trkpt lat="49.01140171" lon="11.54698683">
<ele>409.8</ele>
<time>2011-08-03T07:44:18Z</time>
</trkpt>
<trkpt lat="49.01134199" lon="11.54666216">
<ele>409.4</ele>
<time>2011-08-03T07:44:21Z</time>
</trkpt>
<trkpt lat="49.01126502" lon="11.54624624">
<ele>408.93332</ele>
<time>2011-08-03T07:44:25Z</time>
</trkpt>
<trkpt lat="49.01117882" lon="11.54595693">
<ele>408.5</ele>
<time>2011-08-03T07:44:28Z</time>
</trkpt>
<trkpt lat="49.01120018" lon="11.54565941">
<ele>408.43332</ele>
<time>2011-08-03T07:44:30Z</time>
</trkpt>
<trkpt lat="49.01123448" lon="11.54531095">
<ele>408.7</ele>
<time>2011-08-03T07:44:33Z</time>
</trkpt>
<trkpt lat="49.01127514" lon="11.54472985">
<ele>408.3</ele>
<time>2011-08-03T07:44:38Z</time>
</trkpt>
<trkpt lat="49.01131547" lon="11.54437505">
<ele>407.73334</ele>
<time>2011-08-03T07:44:41Z</time>
</trkpt>
<trkpt lat="49.01134902" lon="11.54407044">
<ele>406.8</ele>
<time>2011-08-03T07:44:44Z</time>
</trkpt>
<trkpt lat="49.01136696" lon="11.54376288">
<ele>406.3</ele>
<time>2011-08-03T07:44:47Z</time>
</trkpt>
<trkpt lat="49.01140027" lon="11.54329176">
<ele>405.5</ele>
<time>2011-08-03T07:44:51Z</time>
</trkpt>
<trkpt lat="49.01142737" lon="11.54299443">
<ele>404.93332</ele>
<time>2011-08-03T07:44:54Z</time>
</trkpt>
<trkpt lat="49.01145008" lon="11.54267186">
<ele>404.33334</ele>
<time>2011-08-03T07:44:57Z</time>
</trkpt>
<trkpt lat="49.01147106" lon="11.54232219">
<ele>404.16666</ele>
<time>2011-08-03T07:45:00Z</time>
</trkpt>
<trkpt lat="49.01150708" lon="11.5419385">
<ele>404.1</ele>
<time>2011-08-03T07:45:04Z</time>
</trkpt>
<trkpt lat="49.01152924" lon="11.54160018">
<ele>403.86667</ele>
<time>2011-08-03T07:45:07Z</time>
</trkpt>
<trkpt lat="49.01160106" lon="11.5412723">
<ele>403.63333</ele>
<time>2011-08-03T07:45:10Z</time>
</trkpt>
<trkpt lat="49.01167145" lon="11.54096005">
<ele>403.66666</ele>
<time>2011-08-03T07:45:13Z</time>
</trkpt>
<trkpt lat="49.0117688" lon="11.54055002">
<ele>403.9</ele>
<time>2011-08-03T07:45:17Z</time>
</trkpt>
<trkpt lat="49.01183421" lon="11.54022916">
<ele>403.96667</ele>
<time>2011-08-03T07:45:20Z</time>
</trkpt>
<trkpt lat="49.01190098" lon="11.53991903">
<ele>403.66666</ele>
<time>2011-08-03T07:45:23Z</time>
</trkpt>
<trkpt lat="49.01196537" lon="11.53960709">
<ele>403.66666</ele>
<time>2011-08-03T07:45:26Z</time>
</trkpt>
<trkpt lat="49.01204868" lon="11.53918657">
<ele>403.93332</ele>
<time>2011-08-03T07:45:30Z</time>
</trkpt>
<trkpt lat="49.01211106" lon="11.53887091">
<ele>404.23334</ele>
<time>2011-08-03T07:45:33Z</time>
</trkpt>
<trkpt lat="49.01217134" lon="11.53855704">
<ele>404.0</ele>
<time>2011-08-03T07:45:36Z</time>
</trkpt>
<trkpt lat="49.01223762" lon="11.53824444">
<ele>403.83334</ele>
<time>2011-08-03T07:45:39Z</time>
</trkpt>
<trkpt lat="49.01232415" lon="11.5378165">
<ele>403.46667</ele>
<time>2011-08-03T07:45:43Z</time>
</trkpt>
<trkpt lat="49.01239047" lon="11.5374878">
<ele>403.5</ele>
<time>2011-08-03T07:45:46Z</time>
</trkpt>
<trkpt lat="49.01245688" lon="11.53716325">
<ele>403.2</ele>
<time>2011-08-03T07:45:49Z</time>
</trkpt>
<trkpt lat="49.01252929" lon="11.53685213">
<ele>403.23334</ele>
<time>2011-08-03T07:45:52Z</time>
</trkpt>
<trkpt lat="49.0126174" lon="11.53641781">
<ele>403.13333</ele>
<time>2011-08-03T07:45:56Z</time>
</trkpt>
<trkpt lat="49.01269203" lon="11.53611304">
<ele>403.33334</ele>
<time>2011-08-03T07:45:59Z</time>
</trkpt>
<trkpt lat="49.01275756" lon="11.53579018">
<ele>403.7</ele>
<time>2011-08-03T07:46:02Z</time>
</trkpt>
<trkpt lat="49.01281704" lon="11.53546201">
<ele>404.26666</ele>
<time>2011-08-03T07:46:05Z</time>
</trkpt>
<trkpt lat="49.01291032" lon="11.53504357">
<ele>404.66666</ele>
<time>2011-08-03T07:46:09Z</time>
</trkpt>
<trkpt lat="49.01298139" lon="11.53472861">
<ele>404.83334</ele>
<time>2011-08-03T07:46:12Z</time>
</trkpt>
<trkpt lat="49.01304314" lon="11.53440931">
<ele>404.6</ele>
<time>2011-08-03T07:46:15Z</time>
</trkpt>
<trkpt lat="49.01311447" lon="11.53409835">
<ele>404.4</ele>
<time>2011-08-03T07:46:18Z</time>
</trkpt>
<trkpt lat="49.01320332" lon="11.53367593">
<ele>404.23334</ele>
<time>2011-08-03T07:46:22Z</time>
</trkpt>
<trkpt lat="49.01326856" lon="11.5333604">
<ele>404.26666</ele>
<time>2011-08-03T07:46:25Z</time>
</trkpt>
<trkpt lat="49.01333402" lon="11.53304499">
<ele>404.33334</ele>
<time>2011-08-03T07:46:28Z</time>
</trkpt>
<trkpt lat="49.01340252" lon="11.53272928">
<ele>404.3</ele>
<time>2011-08-03T07:46:31Z</time>
</trkpt>
<trkpt lat="49.01348562" lon="11.53230991">
<ele>404.36667</ele>
<time>2011-08-03T07:46:35Z</time>
</trkpt>
<trkpt lat="49.01355515" lon="11.53199085">
<ele>404.33334</ele>
<time>2011-08-03T07:46:38Z</time>
</trkpt>
<trkpt lat="49.01361468" lon="11.53168011">
<ele>404.5</ele>
<time>2011-08-03T07:46:41Z</time>
</trkpt>
<trkpt lat="49.01370588" lon="11.53136333">
<ele>404.43332</ele>
<time>2011-08-03T07:46:44Z</time>
</trkpt>
<trkpt lat="49.01388843" lon="11.53101148">
<ele>404.8</ele>
<time>2011-08-03T07:46:48Z</time>
</trkpt>
<trkpt lat="49.01401284" lon="11.53075692">
<ele>405.4</ele>
<time>2011-08-03T07:46:51Z</time>
</trkpt>
<trkpt lat="49.01414111" lon="11.53050218">
<ele>406.6</ele>
<time>2011-08-03T07:46:54Z</time>
</trkpt>
<trkpt lat="49.01426179" lon="11.53025598">
<ele>407.6</ele>
<time>2011-08-03T07:46:57Z</time>
</trkpt>
<trkpt lat="49.01443271" lon="11.52992309">
<ele>408.2</ele>
<time>2011-08-03T07:47:01Z</time>
</trkpt>
<trkpt lat="49.0145582" lon="11.52967215">
<ele>408.36667</ele>
<time>2011-08-03T07:47:04Z</time>
</trkpt>
<trkpt lat="49.01468621" lon="11.5294267">
<ele>408.46667</ele>
<time>2011-08-03T07:47:07Z</time>
</trkpt>
<trkpt lat="49.01481551" lon="11.52917919">
<ele>408.7</ele>
<time>2011-08-03T07:47:10Z</time>
</trkpt>
<trkpt lat="49.01498309" lon="11.52884954">
<ele>409.26666</ele>
<time>2011-08-03T07:47:14Z</time>
</trkpt>
<trkpt lat="49.01510665" lon="11.52859801">
<ele>409.76666</ele>
<time>2011-08-03T07:47:17Z</time>
</trkpt>
<trkpt lat="49.01523004" lon="11.52836041">
<ele>410.43332</ele>
<time>2011-08-03T07:47:20Z</time>
</trkpt>
<trkpt lat="49.015368" lon="11.5281344">
<ele>410.93332</ele>
<time>2011-08-03T07:47:23Z</time>
</trkpt>
<trkpt lat="49.01555147" lon="11.52782986">
<ele>411.33334</ele>
<time>2011-08-03T07:47:27Z</time>
</trkpt>
<trkpt lat="49.01568966" lon="11.52760566">
<ele>411.46667</ele>
<time>2011-08-03T07:47:30Z</time>
</trkpt>
<trkpt lat="49.01583644" lon="11.52738437">
<ele>411.26666</ele>
<time>2011-08-03T07:47:33Z</time>
</trkpt>
<trkpt lat="49.01597943" lon="11.52716224">
<ele>411.16666</ele>
<time>2011-08-03T07:47:36Z</time>
</trkpt>
<trkpt lat="49.01616538" lon="11.52686538">
<ele>411.03333</ele>
<time>2011-08-03T07:47:40Z</time>
</trkpt>
<trkpt lat="49.01630464" lon="11.52663833">
<ele>411.23334</ele>
<time>2011-08-03T07:47:43Z</time>
</trkpt>
<trkpt lat="49.01644458" lon="11.52642233">
<ele>411.43332</ele>
<time>2011-08-03T07:47:46Z</time>
</trkpt>
<trkpt lat="49.01658593" lon="11.52620061">
<ele>411.73334</ele>
<time>2011-08-03T07:47:49Z</time>
</trkpt>
<trkpt lat="49.01677539" lon="11.52590059">
<ele>411.9</ele>
<time>2011-08-03T07:47:53Z</time>
</trkpt>
<trkpt lat="49.0169109" lon="11.52567195">
<ele>412.0</ele>
<time>2011-08-03T07:47:56Z</time>
</trkpt>
<trkpt lat="49.01702417" lon="11.5254155">
<ele>412.2</ele>
<time>2011-08-03T07:47:59Z</time>
</trkpt>
<trkpt lat="49.01713163" lon="11.52516086">
<ele>412.23334</ele>
<time>2011-08-03T07:48:02Z</time>
</trkpt>
<trkpt lat="49.01727117" lon="11.52481636">
<ele>412.43332</ele>
<time>2011-08-03T07:48:06Z</time>
</trkpt>
<trkpt lat="49.0173615" lon="11.52454124">
<ele>412.63333</ele>
<time>2011-08-03T07:48:09Z</time>
</trkpt>
<trkpt lat="49.01745854" lon="11.52427177">
<ele>413.06668</ele>
<time>2011-08-03T07:48:12Z</time>
</trkpt>
<trkpt lat="49.01756377" lon="11.5240046">
<ele>413.53333</ele>
<time>2011-08-03T07:48:15Z</time>
</trkpt>
<trkpt lat="49.01769892" lon="11.52363663">
<ele>413.8</ele>
<time>2011-08-03T07:48:19Z</time>
</trkpt>
<trkpt lat="49.01780154" lon="11.52337208">
<ele>413.7</ele>
<time>2011-08-03T07:48:22Z</time>
</trkpt>
<trkpt lat="49.01789895" lon="11.52312738">
<ele>413.3</ele>
<time>2011-08-03T07:48:25Z</time>
</trkpt>
<trkpt lat="49.01801722" lon="11.52280122">
<ele>412.73334</ele>
<time>2011-08-03T07:48:29Z</time>
</trkpt>
<trkpt lat="49.0181033" lon="11.52254878">
<ele>412.3</ele>
<time>2011-08-03T07:48:32Z</time>
</trkpt>
<trkpt lat="49.01820036" lon="11.52230348">
<ele>412.0</ele>
<time>2011-08-03T07:48:35Z</time>
</trkpt>
<trkpt lat="49.01829338" lon="11.52206089">
<ele>411.93332</ele>
<time>2011-08-03T07:48:38Z</time>
</trkpt>
<trkpt lat="49.01838621" lon="11.52180938">
<ele>411.93332</ele>
<time>2011-08-03T07:48:41Z</time>
</trkpt>
<trkpt lat="49.01849894" lon="11.52147217">
<ele>411.86667</ele>
<time>2011-08-03T07:48:45Z</time>
</trkpt>
<trkpt lat="49.01861779" lon="11.5211736">
<ele>411.7</ele>
<time>2011-08-03T07:48:49Z</time>
</trkpt>
<trkpt lat="49.01873933" lon="11.52091925">
<ele>411.4</ele>
<time>2011-08-03T07:48:53Z</time>
</trkpt>
<trkpt lat="49.0189305" lon="11.52057605">
<ele>410.16666</ele>
<time>2011-08-03T07:48:58Z</time>
</trkpt>
<trkpt lat="49.01894323" lon="11.52026737">
<ele>409.66666</ele>
<time>2011-08-03T07:49:03Z</time>
</trkpt>
<trkpt lat="49.01899825" lon="11.51995921">
<ele>409.83334</ele>
<time>2011-08-03T07:49:07Z</time>
</trkpt>
<trkpt lat="49.01906326" lon="11.51962774">
<ele>410.2</ele>
<time>2011-08-03T07:49:11Z</time>
</trkpt>
<trkpt lat="49.01904151" lon="11.51932157">
<ele>409.23334</ele>
<time>2011-08-03T07:49:15Z</time>
</trkpt>
<trkpt lat="49.01887587" lon="11.51919118">
<ele>407.83334</ele>
<time>2011-08-03T07:49:19Z</time>
</trkpt>
<trkpt lat="49.01858086" lon="11.51907065">
<ele>407.53333</ele>
<time>2011-08-03T07:49:24Z</time>
</trkpt>
<trkpt lat="49.0183883" lon="11.51894621">
<ele>408.0</ele>
<time>2011-08-03T07:49:28Z</time>
</trkpt>
<trkpt lat="49.01819069" lon="11.51883515">
<ele>408.2</ele>
<time>2011-08-03T07:49:32Z</time>
</trkpt>
<trkpt lat="49.01794889" lon="11.51868883">
<ele>409.03333</ele>
<time>2011-08-03T07:49:37Z</time>
</trkpt>
<trkpt lat="49.01776126" lon="11.51858821">
<ele>409.36667</ele>
<time>2011-08-03T07:49:41Z</time>
</trkpt>
<trkpt lat="49.01755376" lon="11.51858103">
<ele>409.5</ele>
<time>2011-08-03T07:49:45Z</time>
</trkpt>
<trkpt lat="49.01733372" lon="11.51842735">
<ele>408.73334</ele>
<time>2011-08-03T07:49:50Z</time>
</trkpt>
<trkpt lat="49.0174263" lon="11.51818967">
<ele>408.23334</ele>
<time>2011-08-03T07:49:54Z</time>
</trkpt>
<trkpt lat="49.01749421" lon="11.51788778">
<ele>408.0</ele>
<time>2011-08-03T07:49:58Z</time>
</trkpt>
<trkpt lat="49.01756023" lon="11.51749147">
<ele>407.76666</ele>
<time>2011-08-03T07:50:03Z</time>
</trkpt>
<trkpt lat="49.01761191" lon="11.51721926">
<ele>407.6</ele>
<time>2011-08-03T07:50:06Z</time>
</trkpt>
<trkpt lat="49.01765384" lon="11.51692378">
<ele>407.86667</ele>
<time>2011-08-03T07:50:09Z</time>
</trkpt>
<trkpt lat="49.01768419" lon="11.51663779">
<ele>408.7</ele>
<time>2011-08-03T07:50:12Z</time>
</trkpt>
<trkpt lat="49.01764261" lon="11.51626133">
<ele>409.83334</ele>
<time>2011-08-03T07:50:16Z</time>
</trkpt>
<trkpt lat="49.01759321" lon="11.51599037">
<ele>410.66666</ele>
<time>2011-08-03T07:50:19Z</time>
</trkpt>
<trkpt lat="49.01753787" lon="11.51571393">
<ele>411.0</ele>
<time>2011-08-03T07:50:22Z</time>
</trkpt>
<trkpt lat="49.01750462" lon="11.5154119">
<ele>411.23334</ele>
<time>2011-08-03T07:50:25Z</time>
</trkpt>
<trkpt lat="49.01744009" lon="11.51500641">
<ele>411.6</ele>
<time>2011-08-03T07:50:29Z</time>
</trkpt>
<trkpt lat="49.01741495" lon="11.51471198">
<ele>412.33334</ele>
<time>2011-08-03T07:50:32Z</time>
</trkpt>
<trkpt lat="49.01736476" lon="11.51442853">
<ele>412.66666</ele>
<time>2011-08-03T07:50:35Z</time>
</trkpt>
<trkpt lat="49.01732265" lon="11.51409646">
<ele>412.46667</ele>
<time>2011-08-03T07:50:38Z</time>
</trkpt>
<trkpt lat="49.01725554" lon="11.51363753">
<ele>411.93332</ele>
<time>2011-08-03T07:50:42Z</time>
</trkpt>
<trkpt lat="49.01721853" lon="11.51326662">
<ele>411.8</ele>
<time>2011-08-03T07:50:45Z</time>
</trkpt>
<trkpt lat="49.01717725" lon="11.51293279">
<ele>411.93332</ele>
<time>2011-08-03T07:50:48Z</time>
</trkpt>
<trkpt lat="49.01713876" lon="11.51259041">
<ele>412.23334</ele>
<time>2011-08-03T07:50:51Z</time>
</trkpt>
<trkpt lat="49.01708637" lon="11.51218553">
<ele>412.1</ele>
<time>2011-08-03T07:50:55Z</time>
</trkpt>
<trkpt lat="49.01704709" lon="11.5118575">
<ele>412.03333</ele>
<time>2011-08-03T07:50:58Z</time>
</trkpt>
<trkpt lat="49.01705001" lon="11.51150905">
<ele>411.36667</ele>
<time>2011-08-03T07:51:01Z</time>
</trkpt>
<trkpt lat="49.01707749" lon="11.51116454">
<ele>410.9</ele>
<time>2011-08-03T07:51:04Z</time>
</trkpt>
<trkpt lat="49.0171408" lon="11.51075715">
<ele>410.53333</ele>
<time>2011-08-03T07:51:08Z</time>
</trkpt>
<trkpt lat="49.01724168" lon="11.51042766">
<ele>409.96667</ele>
<time>2011-08-03T07:51:11Z</time>
</trkpt>
<trkpt lat="49.01733257" lon="11.51012634">
<ele>409.46667</ele>
<time>2011-08-03T07:51:14Z</time>
</trkpt>
<trkpt lat="49.01739975" lon="11.50983112">
<ele>409.53333</ele>
<time>2011-08-03T07:51:17Z</time>
</trkpt>
<trkpt lat="49.01747049" lon="11.50940508">
<ele>410.16666</ele>
<time>2011-08-03T07:51:21Z</time>
</trkpt>
<trkpt lat="49.0175425" lon="11.5090835">
<ele>410.46667</ele>
<time>2011-08-03T07:51:24Z</time>
</trkpt>
<trkpt lat="49.01760074" lon="11.5087454">
<ele>410.23334</ele>
<time>2011-08-03T07:51:27Z</time>
</trkpt>
<trkpt lat="49.01766354" lon="11.50841109">
<ele>409.8</ele>
<time>2011-08-03T07:51:30Z</time>
</trkpt>
<trkpt lat="49.01776832" lon="11.50797785">
<ele>409.6</ele>
<time>2011-08-03T07:51:34Z</time>
</trkpt>
<trkpt lat="49.01785252" lon="11.50765436">
<ele>409.3</ele>
<time>2011-08-03T07:51:37Z</time>
</trkpt>
<trkpt lat="49.0179328" lon="11.50732545">
<ele>408.96667</ele>
<time>2011-08-03T07:51:40Z</time>
</trkpt>
<trkpt lat="49.01801581" lon="11.50699588">
<ele>408.93332</ele>
<time>2011-08-03T07:51:43Z</time>
</trkpt>
<trkpt lat="49.01812274" lon="11.50656066">
<ele>409.2</ele>
<time>2011-08-03T07:51:47Z</time>
</trkpt>
<trkpt lat="49.01820739" lon="11.50623161">
<ele>409.5</ele>
<time>2011-08-03T07:51:50Z</time>
</trkpt>
<trkpt lat="49.01828901" lon="11.50589241">
<ele>409.6</ele>
<time>2011-08-03T07:51:53Z</time>
</trkpt>
<trkpt lat="49.0183317" lon="11.50554661">
<ele>409.4</ele>
<time>2011-08-03T07:51:56Z</time>
</trkpt>
<trkpt lat="49.01834936" lon="11.50509549">
<ele>409.26666</ele>
<time>2011-08-03T07:52:00Z</time>
</trkpt>
<trkpt lat="49.01839631" lon="11.50474002">
<ele>409.33334</ele>
<time>2011-08-03T07:52:03Z</time>
</trkpt>
<trkpt lat="49.01840841" lon="11.50439611">
<ele>409.2</ele>
<time>2011-08-03T07:52:06Z</time>
</trkpt>
<trkpt lat="49.01841765" lon="11.50401899">
<ele>409.13333</ele>
<time>2011-08-03T07:52:09Z</time>
</trkpt>
<trkpt lat="49.0184151" lon="11.50352418">
<ele>408.93332</ele>
<time>2011-08-03T07:52:13Z</time>
</trkpt>
<trkpt lat="49.01838712" lon="11.50317486">
<ele>408.96667</ele>
<time>2011-08-03T07:52:16Z</time>
</trkpt>
<trkpt lat="49.01837829" lon="11.50280906">
<ele>409.4</ele>
<time>2011-08-03T07:52:19Z</time>
</trkpt>
<trkpt lat="49.01837099" lon="11.50244331">
<ele>410.26666</ele>
<time>2011-08-03T07:52:22Z</time>
</trkpt>
<trkpt lat="49.01835605" lon="11.50194859">
<ele>411.46667</ele>
<time>2011-08-03T07:52:26Z</time>
</trkpt>
<trkpt lat="49.01834279" lon="11.50157977">
<ele>412.16666</ele>
<time>2011-08-03T07:52:29Z</time>
</trkpt>
<trkpt lat="49.01833695" lon="11.50122111">
<ele>412.43332</ele>
<time>2011-08-03T07:52:32Z</time>
</trkpt>
<trkpt lat="49.01833793" lon="11.50085337">
<ele>412.16666</ele>
<time>2011-08-03T07:52:35Z</time>
</trkpt>
<trkpt lat="49.01832422" lon="11.50037078">
<ele>412.13333</ele>
<time>2011-08-03T07:52:39Z</time>
</trkpt>
<trkpt lat="49.01831498" lon="11.50000944">
<ele>412.13333</ele>
<time>2011-08-03T07:52:42Z</time>
</trkpt>
<trkpt lat="49.01831353" lon="11.49965442">
<ele>412.36667</ele>
<time>2011-08-03T07:52:45Z</time>
</trkpt>
<trkpt lat="49.01830946" lon="11.49931836">
<ele>412.46667</ele>
<time>2011-08-03T07:52:48Z</time>
</trkpt>
<trkpt lat="49.0182839" lon="11.49888573">
<ele>412.7</ele>
<time>2011-08-03T07:52:52Z</time>
</trkpt>
<trkpt lat="49.01831375" lon="11.49853672">
<ele>412.76666</ele>
<time>2011-08-03T07:52:55Z</time>
</trkpt>
<trkpt lat="49.01840415" lon="11.49822287">
<ele>413.16666</ele>
<time>2011-08-03T07:52:58Z</time>
</trkpt>
<trkpt lat="49.01847382" lon="11.49790403">
<ele>413.5</ele>
<time>2011-08-03T07:53:01Z</time>
</trkpt>
<trkpt lat="49.01857446" lon="11.49750785">
<ele>413.7</ele>
<time>2011-08-03T07:53:05Z</time>
</trkpt>
<trkpt lat="49.01863709" lon="11.49719093">
<ele>413.46667</ele>
<time>2011-08-03T07:53:08Z</time>
</trkpt>
<trkpt lat="49.01870592" lon="11.49686554">
<ele>413.16666</ele>
<time>2011-08-03T07:53:11Z</time>
</trkpt>
<trkpt lat="49.01878015" lon="11.49653908">
<ele>413.13333</ele>
<time>2011-08-03T07:53:14Z</time>
</trkpt>
<trkpt lat="49.01887334" lon="11.49610095">
<ele>413.13333</ele>
<time>2011-08-03T07:53:18Z</time>
</trkpt>
<trkpt lat="49.01894073" lon="11.49577293">
<ele>412.8</ele>
<time>2011-08-03T07:53:21Z</time>
</trkpt>
<trkpt lat="49.01900929" lon="11.49545416">
<ele>412.36667</ele>
<time>2011-08-03T07:53:24Z</time>
</trkpt>
<trkpt lat="49.01906527" lon="11.49512961">
<ele>411.76666</ele>
<time>2011-08-03T07:53:27Z</time>
</trkpt>
<trkpt lat="49.01905546" lon="11.49468103">
<ele>411.23334</ele>
<time>2011-08-03T07:53:31Z</time>
</trkpt>
<trkpt lat="49.01902455" lon="11.49433854">
<ele>410.6</ele>
<time>2011-08-03T07:53:34Z</time>
</trkpt>
<trkpt lat="49.01901925" lon="11.49398145">
<ele>410.63333</ele>
<time>2011-08-03T07:53:37Z</time>
</trkpt>
<trkpt lat="49.01905402" lon="11.49366792">
<ele>411.26666</ele>
<time>2011-08-03T07:53:40Z</time>
</trkpt>
<trkpt lat="49.01913069" lon="11.49326095">
<ele>412.33334</ele>
<time>2011-08-03T07:53:44Z</time>
</trkpt>
<trkpt lat="49.01917495" lon="11.49294167">
<ele>413.0</ele>
<time>2011-08-03T07:53:47Z</time>
</trkpt>
<trkpt lat="49.01919998" lon="11.49259693">
<ele>413.53333</ele>
<time>2011-08-03T07:53:50Z</time>
</trkpt>
<trkpt lat="49.01918748" lon="11.49225857">
<ele>413.7</ele>
<time>2011-08-03T07:53:53Z</time>
</trkpt>
<trkpt lat="49.01915097" lon="11.4917891">
<ele>413.76666</ele>
<time>2011-08-03T07:53:57Z</time>
</trkpt>
<trkpt lat="49.01912749" lon="11.49148003">
<ele>413.46667</ele>
<time>2011-08-03T07:54:00Z</time>
</trkpt>
<trkpt lat="49.01914635" lon="11.49111115">
<ele>413.56668</ele>
<time>2011-08-03T07:54:03Z</time>
</trkpt>
<trkpt lat="49.01915598" lon="11.49076253">
<ele>414.1</ele>
<time>2011-08-03T07:54:06Z</time>
</trkpt>
<trkpt lat="49.01919929" lon="11.49029428">
<ele>415.03333</ele>
<time>2011-08-03T07:54:10Z</time>
</trkpt>
<trkpt lat="49.01922195" lon="11.48995719">
<ele>415.73334</ele>
<time>2011-08-03T07:54:13Z</time>
</trkpt>
<trkpt lat="49.01929105" lon="11.48961491">
<ele>415.93332</ele>
<time>2011-08-03T07:54:16Z</time>
</trkpt>
<trkpt lat="49.01937993" lon="11.48929763">
<ele>415.66666</ele>
<time>2011-08-03T07:54:19Z</time>
</trkpt>
<trkpt lat="49.01946919" lon="11.48887881">
<ele>415.63333</ele>
<time>2011-08-03T07:54:23Z</time>
</trkpt>
<trkpt lat="49.01953705" lon="11.48856927">
<ele>415.7</ele>
<time>2011-08-03T07:54:26Z</time>
</trkpt>
<trkpt lat="49.0195783" lon="11.48825923">
<ele>415.7</ele>
<time>2011-08-03T07:54:29Z</time>
</trkpt>
<trkpt lat="49.01963404" lon="11.48797345">
<ele>415.63333</ele>
<time>2011-08-03T07:54:32Z</time>
</trkpt>
<trkpt lat="49.01962367" lon="11.48755398">
<ele>415.26666</ele>
<time>2011-08-03T07:54:36Z</time>
</trkpt>
<trkpt lat="49.01973119" lon="11.48723383">
<ele>414.9</ele>
<time>2011-08-03T07:54:39Z</time>
</trkpt>
<trkpt lat="49.01983608" lon="11.48694308">
<ele>414.26666</ele>
<time>2011-08-03T07:54:42Z</time>
</trkpt>
<trkpt lat="49.01987857" lon="11.48662782">
<ele>413.8</ele>
<time>2011-08-03T07:54:45Z</time>
</trkpt>
<trkpt lat="49.01993972" lon="11.48617329">
<ele>413.56668</ele>
<time>2011-08-03T07:54:49Z</time>
</trkpt>
<trkpt lat="49.01997516" lon="11.48585779">
<ele>412.93332</ele>
<time>2011-08-03T07:54:52Z</time>
</trkpt>
<trkpt lat="49.02001217" lon="11.48554138">
<ele>412.7</ele>
<time>2011-08-03T07:54:55Z</time>
</trkpt>
<trkpt lat="49.02003336" lon="11.48525583">
<ele>412.66666</ele>
<time>2011-08-03T07:54:58Z</time>
</trkpt>
<trkpt lat="49.02009545" lon="11.48484589">
<ele>413.5</ele>
<time>2011-08-03T07:55:02Z</time>
</trkpt>
<trkpt lat="49.02015375" lon="11.48455189">
<ele>413.83334</ele>
<time>2011-08-03T07:55:05Z</time>
</trkpt>
<trkpt lat="49.02022438" lon="11.48422697">
<ele>413.8</ele>
<time>2011-08-03T07:55:08Z</time>
</trkpt>
<trkpt lat="49.02026227" lon="11.48392648">
<ele>413.4</ele>
<time>2011-08-03T07:55:11Z</time>
</trkpt>
<trkpt lat="49.02030725" lon="11.48352185">
<ele>412.76666</ele>
<time>2011-08-03T07:55:15Z</time>
</trkpt>
<trkpt lat="49.02039895" lon="11.48318283">
<ele>411.8</ele>
<time>2011-08-03T07:55:19Z</time>
</trkpt>
<trkpt lat="49.02046189" lon="11.48288004">
<ele>411.2</ele>
<time>2011-08-03T07:55:22Z</time>
</trkpt>
<trkpt lat="49.02053103" lon="11.48259144">
<ele>410.9</ele>
<time>2011-08-03T07:55:25Z</time>
</trkpt>
<trkpt lat="49.02058889" lon="11.48232649">
<ele>411.16666</ele>
<time>2011-08-03T07:55:28Z</time>
</trkpt>
<trkpt lat="49.02066505" lon="11.48200909">
<ele>410.5</ele>
<time>2011-08-03T07:55:32Z</time>
</trkpt>
<trkpt lat="49.02073105" lon="11.48171466">
<ele>409.63333</ele>
<time>2011-08-03T07:55:36Z</time>
</trkpt>
<trkpt lat="49.02082289" lon="11.48129047">
<ele>408.56668</ele>
<time>2011-08-03T07:55:41Z</time>
</trkpt>
<trkpt lat="49.02087419" lon="11.48102204">
<ele>408.1</ele>
<time>2011-08-03T07:55:44Z</time>
</trkpt>
<trkpt lat="49.02093505" lon="11.48075844">
<ele>407.9</ele>
<time>2011-08-03T07:55:47Z</time>
</trkpt>
<trkpt lat="49.02100843" lon="11.48041349">
<ele>407.9</ele>
<time>2011-08-03T07:55:51Z</time>
</trkpt>
<trkpt lat="49.02107857" lon="11.4800666">
<ele>407.86667</ele>
<time>2011-08-03T07:55:55Z</time>
</trkpt>
<trkpt lat="49.02114623" lon="11.47973175">
<ele>407.9</ele>
<time>2011-08-03T07:55:59Z</time>
</trkpt>
<trkpt lat="49.02118281" lon="11.47945684">
<ele>407.96667</ele>
<time>2011-08-03T07:56:02Z</time>
</trkpt>
<trkpt lat="49.02115462" lon="11.4789934">
<ele>408.03333</ele>
<time>2011-08-03T07:56:07Z</time>
</trkpt>
<trkpt lat="49.02111733" lon="11.4787221">
<ele>408.33334</ele>
<time>2011-08-03T07:56:10Z</time>
</trkpt>
<trkpt lat="49.02103442" lon="11.47846611">
<ele>408.63333</ele>
<time>2011-08-03T07:56:14Z</time>
</trkpt>
<trkpt lat="49.02099477" lon="11.47818304">
<ele>409.03333</ele>
<time>2011-08-03T07:56:21Z</time>
</trkpt>
<trkpt lat="49.02094222" lon="11.47786305">
<ele>410.5</ele>
<time>2011-08-03T07:56:46Z</time>
</trkpt>
<trkpt lat="49.0209368" lon="11.47756143">
<ele>411.53333</ele>
<time>2011-08-03T07:56:53Z</time>
</trkpt>
<trkpt lat="49.02123203" lon="11.47736194">
<ele>411.76666</ele>
<time>2011-08-03T07:56:59Z</time>
</trkpt>
<trkpt lat="49.0214679" lon="11.47728365">
<ele>410.83334</ele>
<time>2011-08-03T07:57:03Z</time>
</trkpt>
<trkpt lat="49.02166533" lon="11.47725552">
<ele>410.0</ele>
<time>2011-08-03T07:57:06Z</time>
</trkpt>
<trkpt lat="49.02187395" lon="11.47722613">
<ele>409.96667</ele>
<time>2011-08-03T07:57:09Z</time>
</trkpt>
<trkpt lat="49.02208461" lon="11.47720746">
<ele>409.8</ele>
<time>2011-08-03T07:57:12Z</time>
</trkpt>
<trkpt lat="49.0222886" lon="11.47718531">
<ele>409.76666</ele>
<time>2011-08-03T07:57:15Z</time>
</trkpt>
<trkpt lat="49.02249609" lon="11.47715586">
<ele>409.63333</ele>
<time>2011-08-03T07:57:18Z</time>
</trkpt>
<trkpt lat="49.0227059" lon="11.47716507">
<ele>409.73334</ele>
<time>2011-08-03T07:57:21Z</time>
</trkpt>
<trkpt lat="49.02294449" lon="11.47715706">
<ele>410.7</ele>
<time>2011-08-03T07:57:25Z</time>
</trkpt>
<trkpt lat="49.02316809" lon="11.47715566">
<ele>411.76666</ele>
<time>2011-08-03T07:57:29Z</time>
</trkpt>
<trkpt lat="49.02334854" lon="11.47718523">
<ele>412.36667</ele>
<time>2011-08-03T07:57:32Z</time>
</trkpt>
<trkpt lat="49.02371701" lon="11.47718998">
<ele>412.53333</ele>
<time>2011-08-03T07:57:38Z</time>
</trkpt>
<trkpt lat="49.02392881" lon="11.47718536">
<ele>412.0</ele>
<time>2011-08-03T07:57:41Z</time>
</trkpt>
<trkpt lat="49.02412868" lon="11.47718789">
<ele>411.73334</ele>
<time>2011-08-03T07:57:44Z</time>
</trkpt>
<trkpt lat="49.02431325" lon="11.47720212">
<ele>411.1</ele>
<time>2011-08-03T07:57:47Z</time>
</trkpt>
<trkpt lat="49.02456065" lon="11.47722548">
<ele>411.2</ele>
<time>2011-08-03T07:57:51Z</time>
</trkpt>
<trkpt lat="49.0247958" lon="11.47722747">
<ele>411.43332</ele>
<time>2011-08-03T07:57:55Z</time>
</trkpt>
<trkpt lat="49.02500986" lon="11.47723663">
<ele>411.66666</ele>
<time>2011-08-03T07:57:58Z</time>
</trkpt>
<trkpt lat="49.02523921" lon="11.47724774">
<ele>411.63333</ele>
<time>2011-08-03T07:58:01Z</time>
</trkpt>
<trkpt lat="49.02545831" lon="11.47725734">
<ele>411.8</ele>
<time>2011-08-03T07:58:04Z</time>
</trkpt>
<trkpt lat="49.02565969" lon="11.47726888">
<ele>412.16666</ele>
<time>2011-08-03T07:58:07Z</time>
</trkpt>
<trkpt lat="49.02584212" lon="11.47727609">
<ele>413.0</ele>
<time>2011-08-03T07:58:10Z</time>
</trkpt>
<trkpt lat="49.02605739" lon="11.47728407">
<ele>413.6</ele>
<time>2011-08-03T07:58:14Z</time>
</trkpt>
<trkpt lat="49.02628076" lon="11.47729235">
<ele>414.13333</ele>
<time>2011-08-03T07:58:18Z</time>
</trkpt>
<trkpt lat="49.02650625" lon="11.47729629">
<ele>414.7</ele>
<time>2011-08-03T07:58:22Z</time>
</trkpt>
<trkpt lat="49.02668626" lon="11.47733264">
<ele>415.3</ele>
<time>2011-08-03T07:58:25Z</time>
</trkpt>
<trkpt lat="49.02698469" lon="11.47743413">
<ele>415.83334</ele>
<time>2011-08-03T07:58:30Z</time>
</trkpt>
<trkpt lat="49.02716603" lon="11.47754395">
<ele>416.0</ele>
<time>2011-08-03T07:58:34Z</time>
</trkpt>
<trkpt lat="49.02733283" lon="11.47765315">
<ele>416.03333</ele>
<time>2011-08-03T07:58:38Z</time>
</trkpt>
<trkpt lat="49.02758727" lon="11.47772799">
<ele>416.0</ele>
<time>2011-08-03T07:58:43Z</time>
</trkpt>
<trkpt lat="49.02777987" lon="11.47781153">
<ele>415.66666</ele>
<time>2011-08-03T07:58:47Z</time>
</trkpt>
<trkpt lat="49.02796662" lon="11.47780375">
<ele>415.6</ele>
<time>2011-08-03T07:58:51Z</time>
</trkpt>
<trkpt lat="49.02814547" lon="11.47789028">
<ele>415.66666</ele>
<time>2011-08-03T07:58:56Z</time>
</trkpt>
<trkpt lat="49.02836102" lon="11.47799728">
<ele>416.3</ele>
<time>2011-08-03T07:59:01Z</time>
</trkpt>
<trkpt lat="49.02854165" lon="11.47808688">
<ele>416.86667</ele>
<time>2011-08-03T07:59:05Z</time>
</trkpt>
<trkpt lat="49.02873031" lon="11.47817849">
<ele>417.1</ele>
<time>2011-08-03T07:59:09Z</time>
</trkpt>
<trkpt lat="49.02892672" lon="11.47827043">
<ele>417.06668</ele>
<time>2011-08-03T07:59:13Z</time>
</trkpt>
<trkpt lat="49.02915334" lon="11.47829828">
<ele>416.86667</ele>
<time>2011-08-03T07:59:17Z</time>
</trkpt>
<trkpt lat="49.02939302" lon="11.47828307">
<ele>416.36667</ele>
<time>2011-08-03T07:59:22Z</time>
</trkpt>
<trkpt lat="49.02960899" lon="11.47821982">
<ele>415.8</ele>
<time>2011-08-03T07:59:26Z</time>
</trkpt>
<trkpt lat="49.02981861" lon="11.47808865">
<ele>415.13333</ele>
<time>2011-08-03T07:59:30Z</time>
</trkpt>
<trkpt lat="49.03006704" lon="11.47787739">
<ele>414.26666</ele>
<time>2011-08-03T07:59:35Z</time>
</trkpt>
<trkpt lat="49.03023825" lon="11.47767835">
<ele>413.73334</ele>
<time>2011-08-03T07:59:39Z</time>
</trkpt>
<trkpt lat="49.03040455" lon="11.47744671">
<ele>413.26666</ele>
<time>2011-08-03T07:59:43Z</time>
</trkpt>
<trkpt lat="49.03060296" lon="11.47720751">
<ele>413.53333</ele>
<time>2011-08-03T07:59:48Z</time>
</trkpt>
<trkpt lat="49.03075322" lon="11.47704759">
<ele>413.3</ele>
<time>2011-08-03T07:59:52Z</time>
</trkpt>
<trkpt lat="49.03091415" lon="11.47690303">
<ele>413.23334</ele>
<time>2011-08-03T07:59:56Z</time>
</trkpt>
<trkpt lat="49.03112303" lon="11.47668178">
<ele>412.9</ele>
<time>2011-08-03T08:00:01Z</time>
</trkpt>
<trkpt lat="49.03132188" lon="11.4765104">
<ele>412.76666</ele>
<time>2011-08-03T08:00:05Z</time>
</trkpt>
<trkpt lat="49.03151592" lon="11.47634841">
<ele>412.6</ele>
<time>2011-08-03T08:00:09Z</time>
</trkpt>
<trkpt lat="49.03175504" lon="11.47612714">
<ele>412.83334</ele>
<time>2011-08-03T08:00:14Z</time>
</trkpt>
<trkpt lat="49.03190766" lon="11.47596873">
<ele>412.83334</ele>
<time>2011-08-03T08:00:17Z</time>
</trkpt>
<trkpt lat="49.03206534" lon="11.47579269">
<ele>412.83334</ele>
<time>2011-08-03T08:00:20Z</time>
</trkpt>
<trkpt lat="49.0322146" lon="11.47560737">
<ele>412.7</ele>
<time>2011-08-03T08:00:23Z</time>
</trkpt>
<trkpt lat="49.03241848" lon="11.47539191">
<ele>412.7</ele>
<time>2011-08-03T08:00:27Z</time>
</trkpt>
<trkpt lat="49.03262169" lon="11.47522895">
<ele>412.73334</ele>
<time>2011-08-03T08:00:31Z</time>
</trkpt>
<trkpt lat="49.03278903" lon="11.47509493">
<ele>412.86667</ele>
<time>2011-08-03T08:00:35Z</time>
</trkpt>
<trkpt lat="49.03298483" lon="11.47499004">
<ele>413.03333</ele>
<time>2011-08-03T08:00:41Z</time>
</trkpt>
<trkpt lat="49.03315869" lon="11.47487809">
<ele>413.56668</ele>
<time>2011-08-03T08:00:48Z</time>
</trkpt>
<trkpt lat="49.03340024" lon="11.47474287">
<ele>418.73334</ele>
<time>2011-08-03T08:02:11Z</time>
</trkpt>
<trkpt lat="49.03358587" lon="11.4746463">
<ele>425.03333</ele>
<time>2011-08-03T08:02:15Z</time>
</trkpt>
<trkpt lat="49.03378621" lon="11.47447135">
<ele>431.23334</ele>
<time>2011-08-03T08:02:19Z</time>
</trkpt>
<trkpt lat="49.03412232" lon="11.47431901">
<ele>432.2</ele>
<time>2011-08-03T08:02:24Z</time>
</trkpt>
<trkpt lat="49.03435106" lon="11.4741878">
<ele>431.46667</ele>
<time>2011-08-03T08:02:28Z</time>
</trkpt>
<trkpt lat="49.03453193" lon="11.474131">
<ele>430.66666</ele>
<time>2011-08-03T08:02:34Z</time>
</trkpt>
<trkpt lat="49.03472843" lon="11.47409653">
<ele>429.6</ele>
<time>2011-08-03T08:02:38Z</time>
</trkpt>
<trkpt lat="49.03491757" lon="11.47397014">
<ele>428.76666</ele>
<time>2011-08-03T08:02:42Z</time>
</trkpt>
<trkpt lat="49.0350897" lon="11.47384818">
<ele>426.9</ele>
<time>2011-08-03T08:02:46Z</time>
</trkpt>
<trkpt lat="49.03523684" lon="11.47367532">
<ele>424.76666</ele>
<time>2011-08-03T08:02:53Z</time>
</trkpt>
<trkpt lat="49.03536485" lon="11.47346673">
<ele>423.66666</ele>
<time>2011-08-03T08:03:00Z</time>
</trkpt>
<trkpt lat="49.03550427" lon="11.4732022">
<ele>423.33334</ele>
<time>2011-08-03T08:03:05Z</time>
</trkpt>
<trkpt lat="49.03561615" lon="11.47297452">
<ele>425.16666</ele>
<time>2011-08-03T08:03:08Z</time>
</trkpt>
<trkpt lat="49.03575466" lon="11.47265807">
<ele>426.3</ele>
<time>2011-08-03T08:03:11Z</time>
</trkpt>
<trkpt lat="49.03595376" lon="11.47217768">
<ele>427.16666</ele>
<time>2011-08-03T08:03:16Z</time>
</trkpt>
<trkpt lat="49.03605948" lon="11.47190566">
<ele>426.33334</ele>
<time>2011-08-03T08:03:19Z</time>
</trkpt>
<trkpt lat="49.03619196" lon="11.47161426">
<ele>425.3</ele>
<time>2011-08-03T08:03:23Z</time>
</trkpt>
<trkpt lat="49.03641847" lon="11.47128789">
<ele>424.2</ele>
<time>2011-08-03T08:03:29Z</time>
</trkpt>
<trkpt lat="49.03661981" lon="11.47120367">
<ele>422.8</ele>
<time>2011-08-03T08:03:32Z</time>
</trkpt>
<trkpt lat="49.03683501" lon="11.47109444">
<ele>421.16666</ele>
<time>2011-08-03T08:03:36Z</time>
</trkpt>
<trkpt lat="49.03716188" lon="11.47090789">
<ele>420.06668</ele>
<time>2011-08-03T08:03:42Z</time>
</trkpt>
<trkpt lat="49.03737235" lon="11.4708715">
<ele>419.93332</ele>
<time>2011-08-03T08:03:46Z</time>
</trkpt>
<trkpt lat="49.03758643" lon="11.4709922">
<ele>420.3</ele>
<time>2011-08-03T08:03:50Z</time>
</trkpt>
<trkpt lat="49.03776908" lon="11.47126924">
<ele>420.16666</ele>
<time>2011-08-03T08:03:55Z</time>
</trkpt>
<trkpt lat="49.03793527" lon="11.47148465">
<ele>420.03333</ele>
<time>2011-08-03T08:04:00Z</time>
</trkpt>
<trkpt lat="49.03812181" lon="11.47167744">
<ele>419.8</ele>
<time>2011-08-03T08:04:04Z</time>
</trkpt>
<trkpt lat="49.03831818" lon="11.47184251">
<ele>419.5</ele>
<time>2011-08-03T08:04:08Z</time>
</trkpt>
<trkpt lat="49.03848012" lon="11.47203395">
<ele>419.53333</ele>
<time>2011-08-03T08:04:12Z</time>
</trkpt>
<trkpt lat="49.03865534" lon="11.4720967">
<ele>419.16666</ele>
<time>2011-08-03T08:04:23Z</time>
</trkpt>
<trkpt lat="49.03871525" lon="11.47239689">
<ele>419.33334</ele>
<time>2011-08-03T08:04:35Z</time>
</trkpt>
<trkpt lat="49.03878839" lon="11.47270547">
<ele>419.2</ele>
<time>2011-08-03T08:04:40Z</time>
</trkpt>
<trkpt lat="49.03890353" lon="11.47301637">
<ele>419.4</ele>
<time>2011-08-03T08:04:44Z</time>
</trkpt>
<trkpt lat="49.03904235" lon="11.47323792">
<ele>419.1</ele>
<time>2011-08-03T08:04:48Z</time>
</trkpt>
<trkpt lat="49.03914374" lon="11.47351051">
<ele>418.03333</ele>
<time>2011-08-03T08:04:54Z</time>
</trkpt>
<trkpt lat="49.03931188" lon="11.47364276">
<ele>418.06668</ele>
<time>2011-08-03T08:05:39Z</time>
</trkpt>
<trkpt lat="49.03948049" lon="11.47349571">
<ele>417.86667</ele>
<time>2011-08-03T08:05:46Z</time>
</trkpt>
<trkpt lat="49.03973659" lon="11.47331069">
<ele>418.13333</ele>
<time>2011-08-03T08:05:52Z</time>
</trkpt>
<trkpt lat="49.03986426" lon="11.47308509">
<ele>417.66666</ele>
<time>2011-08-03T08:05:56Z</time>
</trkpt>
<trkpt lat="49.03996699" lon="11.47286044">
<ele>418.03333</ele>
<time>2011-08-03T08:06:01Z</time>
</trkpt>
<trkpt lat="49.03981433" lon="11.47262534">
<ele>418.5</ele>
<time>2011-08-03T08:06:11Z</time>
</trkpt>
<trkpt lat="49.03967776" lon="11.47240744">
<ele>418.7</ele>
<time>2011-08-03T08:06:15Z</time>
</trkpt>
<trkpt lat="49.03983077" lon="11.47220828">
<ele>418.23334</ele>
<time>2011-08-03T08:06:18Z</time>
</trkpt>
<trkpt lat="49.04002473" lon="11.47201943">
<ele>417.9</ele>
<time>2011-08-03T08:06:23Z</time>
</trkpt>
<trkpt lat="49.04020025" lon="11.47189487">
<ele>417.43332</ele>
<time>2011-08-03T08:06:27Z</time>
</trkpt>
<trkpt lat="49.04039879" lon="11.4717673">
<ele>417.83334</ele>
<time>2011-08-03T08:06:32Z</time>
</trkpt>
<trkpt lat="49.04058222" lon="11.47168471">
<ele>419.03333</ele>
<time>2011-08-03T08:06:36Z</time>
</trkpt>
<trkpt lat="49.04076647" lon="11.47164307">
<ele>420.76666</ele>
<time>2011-08-03T08:06:40Z</time>
</trkpt>
<trkpt lat="49.0409641" lon="11.47154321">
<ele>422.66666</ele>
<time>2011-08-03T08:06:45Z</time>
</trkpt>
<trkpt lat="49.0411412" lon="11.47147728">
<ele>424.93332</ele>
<time>2011-08-03T08:06:52Z</time>
</trkpt>
<trkpt lat="49.04127092" lon="11.47125913">
<ele>426.33334</ele>
<time>2011-08-03T08:07:03Z</time>
</trkpt>
<trkpt lat="49.04142738" lon="11.47087845">
<ele>426.4</ele>
<time>2011-08-03T08:07:10Z</time>
</trkpt>
<trkpt lat="49.04157575" lon="11.47066974">
<ele>425.43332</ele>
<time>2011-08-03T08:07:14Z</time>
</trkpt>
<trkpt lat="49.04170201" lon="11.47042792">
<ele>424.7</ele>
<time>2011-08-03T08:07:18Z</time>
</trkpt>
<trkpt lat="49.04186465" lon="11.47008613">
<ele>424.33334</ele>
<time>2011-08-03T08:07:23Z</time>
</trkpt>
<trkpt lat="49.04200964" lon="11.46981633">
<ele>423.83334</ele>
<time>2011-08-03T08:07:27Z</time>
</trkpt>
<trkpt lat="49.04206727" lon="11.46949612">
<ele>423.23334</ele>
<time>2011-08-03T08:07:31Z</time>
</trkpt>
<trkpt lat="49.04206625" lon="11.46906543">
<ele>422.83334</ele>
<time>2011-08-03T08:07:36Z</time>
</trkpt>
<trkpt lat="49.04214634" lon="11.46873937">
<ele>422.3</ele>
<time>2011-08-03T08:07:40Z</time>
</trkpt>
<trkpt lat="49.04229372" lon="11.46849209">
<ele>422.86667</ele>
<time>2011-08-03T08:07:43Z</time>
</trkpt>
<trkpt lat="49.04259659" lon="11.46819564">
<ele>423.43332</ele>
<time>2011-08-03T08:07:49Z</time>
</trkpt>
<trkpt lat="49.04278422" lon="11.46807027">
<ele>423.66666</ele>
<time>2011-08-03T08:07:52Z</time>
</trkpt>
<trkpt lat="49.042952" lon="11.46788556">
<ele>423.4</ele>
<time>2011-08-03T08:07:55Z</time>
</trkpt>
<trkpt lat="49.04310747" lon="11.46771686">
<ele>422.56668</ele>
<time>2011-08-03T08:07:58Z</time>
</trkpt>
<trkpt lat="49.04333687" lon="11.46748587">
<ele>421.96667</ele>
<time>2011-08-03T08:08:02Z</time>
</trkpt>
<trkpt lat="49.04354725" lon="11.46743085">
<ele>421.03333</ele>
<time>2011-08-03T08:08:05Z</time>
</trkpt>
<trkpt lat="49.04375909" lon="11.46740244">
<ele>420.26666</ele>
<time>2011-08-03T08:08:08Z</time>
</trkpt>
<trkpt lat="49.04396035" lon="11.46732456">
<ele>419.63333</ele>
<time>2011-08-03T08:08:11Z</time>
</trkpt>
<trkpt lat="49.04420909" lon="11.46714327">
<ele>419.2</ele>
<time>2011-08-03T08:08:15Z</time>
</trkpt>
<trkpt lat="49.04438372" lon="11.46695363">
<ele>418.83334</ele>
<time>2011-08-03T08:08:18Z</time>
</trkpt>
<trkpt lat="49.04455698" lon="11.46676485">
<ele>418.53333</ele>
<time>2011-08-03T08:08:21Z</time>
</trkpt>
<trkpt lat="49.04473605" lon="11.46657562">
<ele>418.03333</ele>
<time>2011-08-03T08:08:24Z</time>
</trkpt>
<trkpt lat="49.04497802" lon="11.4663818">
<ele>418.1</ele>
<time>2011-08-03T08:08:28Z</time>
</trkpt>
<trkpt lat="49.04515721" lon="11.46622239">
<ele>418.2</ele>
<time>2011-08-03T08:08:31Z</time>
</trkpt>
<trkpt lat="49.04534132" lon="11.46608467">
<ele>418.33334</ele>
<time>2011-08-03T08:08:34Z</time>
</trkpt>
<trkpt lat="49.04552032" lon="11.46595586">
<ele>418.46667</ele>
<time>2011-08-03T08:08:37Z</time>
</trkpt>
<trkpt lat="49.04575346" lon="11.46575291">
<ele>418.26666</ele>
<time>2011-08-03T08:08:41Z</time>
</trkpt>
<trkpt lat="49.04584252" lon="11.46548429">
<ele>418.06668</ele>
<time>2011-08-03T08:08:44Z</time>
</trkpt>
<trkpt lat="49.04585478" lon="11.46520039">
<ele>417.6</ele>
<time>2011-08-03T08:08:47Z</time>
</trkpt>
<trkpt lat="49.04599762" lon="11.46502129">
<ele>417.46667</ele>
<time>2011-08-03T08:08:50Z</time>
</trkpt>
<trkpt lat="49.04622816" lon="11.46499222">
<ele>417.7</ele>
<time>2011-08-03T08:08:54Z</time>
</trkpt>
<trkpt lat="49.04646562" lon="11.46500745">
<ele>418.26666</ele>
<time>2011-08-03T08:08:58Z</time>
</trkpt>
<trkpt lat="49.04669465" lon="11.46500046">
<ele>418.7</ele>
<time>2011-08-03T08:09:02Z</time>
</trkpt>
<trkpt lat="49.04696131" lon="11.46493725">
<ele>419.23334</ele>
<time>2011-08-03T08:09:07Z</time>
</trkpt>
<trkpt lat="49.04713951" lon="11.46486922">
<ele>419.83334</ele>
<time>2011-08-03T08:09:10Z</time>
</trkpt>
<trkpt lat="49.04733743" lon="11.46479391">
<ele>420.76666</ele>
<time>2011-08-03T08:09:13Z</time>
</trkpt>
<trkpt lat="49.04753542" lon="11.46468984">
<ele>421.03333</ele>
<time>2011-08-03T08:09:16Z</time>
</trkpt>
<trkpt lat="49.04778267" lon="11.46455012">
<ele>421.03333</ele>
<time>2011-08-03T08:09:20Z</time>
</trkpt>
<trkpt lat="49.04798639" lon="11.46450465">
<ele>420.8</ele>
<time>2011-08-03T08:09:23Z</time>
</trkpt>
<trkpt lat="49.0482149" lon="11.46448059">
<ele>421.06668</ele>
<time>2011-08-03T08:09:26Z</time>
</trkpt>
<trkpt lat="49.04840618" lon="11.46442192">
<ele>421.03333</ele>
<time>2011-08-03T08:09:29Z</time>
</trkpt>
<trkpt lat="49.04866299" lon="11.46432463">
<ele>420.93332</ele>
<time>2011-08-03T08:09:33Z</time>
</trkpt>
<trkpt lat="49.04883756" lon="11.46424563">
<ele>420.6</ele>
<time>2011-08-03T08:09:36Z</time>
</trkpt>
<trkpt lat="49.04903022" lon="11.46415783">
<ele>420.63333</ele>
<time>2011-08-03T08:09:39Z</time>
</trkpt>
<trkpt lat="49.04919641" lon="11.46404004">
<ele>420.53333</ele>
<time>2011-08-03T08:09:42Z</time>
</trkpt>
<trkpt lat="49.04945175" lon="11.46397452">
<ele>420.23334</ele>
<time>2011-08-03T08:09:46Z</time>
</trkpt>
<trkpt lat="49.04962518" lon="11.46387935">
<ele>419.83334</ele>
<time>2011-08-03T08:09:49Z</time>
</trkpt>
<trkpt lat="49.0498053" lon="11.46385995">
<ele>419.93332</ele>
<time>2011-08-03T08:09:52Z</time>
</trkpt>
<trkpt lat="49.04999872" lon="11.46389621">
<ele>420.06668</ele>
<time>2011-08-03T08:09:54Z</time>
</trkpt>
<trkpt lat="49.05033739" lon="11.46394294">
<ele>420.46667</ele>
<time>2011-08-03T08:09:59Z</time>
</trkpt>
<trkpt lat="49.05051722" lon="11.4639109">
<ele>420.43332</ele>
<time>2011-08-03T08:10:02Z</time>
</trkpt>
<trkpt lat="49.05073779" lon="11.46380221">
<ele>420.36667</ele>
<time>2011-08-03T08:10:06Z</time>
</trkpt>
<trkpt lat="49.05092233" lon="11.46370438">
<ele>419.86667</ele>
<time>2011-08-03T08:10:09Z</time>
</trkpt>
<trkpt lat="49.05110476" lon="11.46363699">
<ele>419.53333</ele>
<time>2011-08-03T08:10:12Z</time>
</trkpt>
<trkpt lat="49.05133022" lon="11.46353126">
<ele>419.2</ele>
<time>2011-08-03T08:10:16Z</time>
</trkpt>
<trkpt lat="49.05154274" lon="11.463485">
<ele>419.0</ele>
<time>2011-08-03T08:10:19Z</time>
</trkpt>
<trkpt lat="49.05175526" lon="11.46341968">
<ele>418.7</ele>
<time>2011-08-03T08:10:22Z</time>
</trkpt>
<trkpt lat="49.05195338" lon="11.46334914">
<ele>418.56668</ele>
<time>2011-08-03T08:10:25Z</time>
</trkpt>
<trkpt lat="49.05218122" lon="11.46329637">
<ele>418.33334</ele>
<time>2011-08-03T08:10:28Z</time>
</trkpt>
<trkpt lat="49.0523943" lon="11.46319407">
<ele>417.8</ele>
<time>2011-08-03T08:10:31Z</time>
</trkpt>
<trkpt lat="49.05257801" lon="11.46304926">
<ele>417.26666</ele>
<time>2011-08-03T08:10:34Z</time>
</trkpt>
<trkpt lat="49.05279441" lon="11.46292987">
<ele>417.0</ele>
<time>2011-08-03T08:10:38Z</time>
</trkpt>
<trkpt lat="49.05298523" lon="11.46282838">
<ele>416.86667</ele>
<time>2011-08-03T08:10:41Z</time>
</trkpt>
<trkpt lat="49.05316679" lon="11.46276561">
<ele>416.96667</ele>
<time>2011-08-03T08:10:44Z</time>
</trkpt>
<trkpt lat="49.05336205" lon="11.46274077">
<ele>416.93332</ele>
<time>2011-08-03T08:10:47Z</time>
</trkpt>
<trkpt lat="49.05360002" lon="11.46262183">
<ele>417.46667</ele>
<time>2011-08-03T08:10:51Z</time>
</trkpt>
<trkpt lat="49.05377386" lon="11.46245548">
<ele>417.63333</ele>
<time>2011-08-03T08:10:54Z</time>
</trkpt>
<trkpt lat="49.05388779" lon="11.46223707">
<ele>417.86667</ele>
<time>2011-08-03T08:10:57Z</time>
</trkpt>
<trkpt lat="49.05403962" lon="11.46206632">
<ele>417.76666</ele>
<time>2011-08-03T08:11:00Z</time>
</trkpt>
<trkpt lat="49.05421416" lon="11.46185151">
<ele>418.0</ele>
<time>2011-08-03T08:11:04Z</time>
</trkpt>
<trkpt lat="49.05435123" lon="11.46157577">
<ele>418.13333</ele>
<time>2011-08-03T08:11:08Z</time>
</trkpt>
<trkpt lat="49.05445241" lon="11.46128855">
<ele>418.6</ele>
<time>2011-08-03T08:11:12Z</time>
</trkpt>
<trkpt lat="49.05467279" lon="11.46109377">
<ele>418.86667</ele>
<time>2011-08-03T08:11:17Z</time>
</trkpt>
<trkpt lat="49.05489846" lon="11.46111175">
<ele>419.13333</ele>
<time>2011-08-03T08:11:21Z</time>
</trkpt>
<trkpt lat="49.05512527" lon="11.46110783">
<ele>419.3</ele>
<time>2011-08-03T08:11:25Z</time>
</trkpt>
<trkpt lat="49.05543441" lon="11.46096928">
<ele>419.8</ele>
<time>2011-08-03T08:11:30Z</time>
</trkpt>
<trkpt lat="49.05561365" lon="11.46086157">
<ele>420.3</ele>
<time>2011-08-03T08:11:33Z</time>
</trkpt>
<trkpt lat="49.05578716" lon="11.46076733">
<ele>420.33334</ele>
<time>2011-08-03T08:11:36Z</time>
</trkpt>
<trkpt lat="49.05596214" lon="11.46070224">
<ele>420.36667</ele>
<time>2011-08-03T08:11:39Z</time>
</trkpt>
<trkpt lat="49.05621836" lon="11.46070053">
<ele>420.5</ele>
<time>2011-08-03T08:11:43Z</time>
</trkpt>
<trkpt lat="49.0564086" lon="11.4607894">
<ele>420.73334</ele>
<time>2011-08-03T08:11:46Z</time>
</trkpt>
<trkpt lat="49.05658823" lon="11.46092351">
<ele>420.6</ele>
<time>2011-08-03T08:11:49Z</time>
</trkpt>
<trkpt lat="49.05676261" lon="11.46103606">
<ele>420.3</ele>
<time>2011-08-03T08:11:52Z</time>
</trkpt>
<trkpt lat="49.05702049" lon="11.46103361">
<ele>420.0</ele>
<time>2011-08-03T08:11:56Z</time>
</trkpt>
<trkpt lat="49.0572037" lon="11.46097127">
<ele>419.7</ele>
<time>2011-08-03T08:11:59Z</time>
</trkpt>
<trkpt lat="49.05739441" lon="11.46087527">
<ele>419.73334</ele>
<time>2011-08-03T08:12:02Z</time>
</trkpt>
<trkpt lat="49.0575753" lon="11.46078018">
<ele>419.73334</ele>
<time>2011-08-03T08:12:05Z</time>
</trkpt>
<trkpt lat="49.0578242" lon="11.46068087">
<ele>420.03333</ele>
<time>2011-08-03T08:12:09Z</time>
</trkpt>
<trkpt lat="49.05804507" lon="11.46057908">
<ele>420.23334</ele>
<time>2011-08-03T08:12:13Z</time>
</trkpt>
<trkpt lat="49.05824617" lon="11.46048941">
<ele>420.73334</ele>
<time>2011-08-03T08:12:16Z</time>
</trkpt>
<trkpt lat="49.05843061" lon="11.46035971">
<ele>421.3</ele>
<time>2011-08-03T08:12:19Z</time>
</trkpt>
<trkpt lat="49.05863238" lon="11.46021439">
<ele>421.76666</ele>
<time>2011-08-03T08:12:23Z</time>
</trkpt>
<trkpt lat="49.05882727" lon="11.46015709">
<ele>421.9</ele>
<time>2011-08-03T08:12:27Z</time>
</trkpt>
<trkpt lat="49.05902448" lon="11.46006991">
<ele>422.0</ele>
<time>2011-08-03T08:12:32Z</time>
</trkpt>
<trkpt lat="49.05923314" lon="11.46005235">
<ele>422.03333</ele>
<time>2011-08-03T08:12:36Z</time>
</trkpt>
<trkpt lat="49.05949277" lon="11.46003808">
<ele>421.46667</ele>
<time>2011-08-03T08:12:39Z</time>
</trkpt>
<trkpt lat="49.05972071" lon="11.45998784">
<ele>419.6</ele>
<time>2011-08-03T08:12:42Z</time>
</trkpt>
<trkpt lat="49.05990474" lon="11.45992363">
<ele>417.76666</ele>
<time>2011-08-03T08:12:45Z</time>
</trkpt>
<trkpt lat="49.06014358" lon="11.45984548">
<ele>416.96667</ele>
<time>2011-08-03T08:12:49Z</time>
</trkpt>
<trkpt lat="49.06034933" lon="11.45982001">
<ele>417.16666</ele>
<time>2011-08-03T08:12:52Z</time>
</trkpt>
<trkpt lat="49.06053667" lon="11.4597741">
<ele>417.6</ele>
<time>2011-08-03T08:12:55Z</time>
</trkpt>
<trkpt lat="49.06073766" lon="11.45975594">
<ele>417.83334</ele>
<time>2011-08-03T08:12:58Z</time>
</trkpt>
<trkpt lat="49.06092858" lon="11.45971115">
<ele>418.3</ele>
<time>2011-08-03T08:13:01Z</time>
</trkpt>
<trkpt lat="49.06112234" lon="11.45967437">
<ele>418.43332</ele>
<time>2011-08-03T08:13:04Z</time>
</trkpt>
<trkpt lat="49.06132019" lon="11.45963244">
<ele>418.4</ele>
<time>2011-08-03T08:13:07Z</time>
</trkpt>
<trkpt lat="49.06151247" lon="11.45960872">
<ele>418.8</ele>
<time>2011-08-03T08:13:10Z</time>
</trkpt>
<trkpt lat="49.06176503" lon="11.45956933">
<ele>419.46667</ele>
<time>2011-08-03T08:13:14Z</time>
</trkpt>
<trkpt lat="49.06199751" lon="11.45950165">
<ele>420.7</ele>
<time>2011-08-03T08:13:18Z</time>
</trkpt>
<trkpt lat="49.06219344" lon="11.4594634">
<ele>421.2</ele>
<time>2011-08-03T08:13:21Z</time>
</trkpt>
<trkpt lat="49.06237789" lon="11.4594421">
<ele>421.56668</ele>
<time>2011-08-03T08:13:24Z</time>
</trkpt>
<trkpt lat="49.06256836" lon="11.45939961">
<ele>421.5</ele>
<time>2011-08-03T08:13:27Z</time>
</trkpt>
<trkpt lat="49.0627577" lon="11.45935596">
<ele>421.56668</ele>
<time>2011-08-03T08:13:30Z</time>
</trkpt>
<trkpt lat="49.06296371" lon="11.45933843">
<ele>420.93332</ele>
<time>2011-08-03T08:13:33Z</time>
</trkpt>
<trkpt lat="49.06315694" lon="11.45931344">
<ele>420.56668</ele>
<time>2011-08-03T08:13:36Z</time>
</trkpt>
<trkpt lat="49.06339356" lon="11.45926655">
<ele>421.4</ele>
<time>2011-08-03T08:13:40Z</time>
</trkpt>
<trkpt lat="49.06363669" lon="11.45921666">
<ele>422.73334</ele>
<time>2011-08-03T08:13:44Z</time>
</trkpt>
<trkpt lat="49.06386999" lon="11.45918055">
<ele>423.76666</ele>
<time>2011-08-03T08:13:48Z</time>
</trkpt>
<trkpt lat="49.06421933" lon="11.45918633">
<ele>423.5</ele>
<time>2011-08-03T08:13:53Z</time>
</trkpt>
<trkpt lat="49.06442139" lon="11.45917238">
<ele>423.33334</ele>
<time>2011-08-03T08:13:56Z</time>
</trkpt>
<trkpt lat="49.06462215" lon="11.45916523">
<ele>423.36667</ele>
<time>2011-08-03T08:13:59Z</time>
</trkpt>
<trkpt lat="49.0648218" lon="11.45915555">
<ele>423.63333</ele>
<time>2011-08-03T08:14:02Z</time>
</trkpt>
<trkpt lat="49.06506878" lon="11.45911857">
<ele>423.93332</ele>
<time>2011-08-03T08:14:06Z</time>
</trkpt>
<trkpt lat="49.06525318" lon="11.45904614">
<ele>424.0</ele>
<time>2011-08-03T08:14:09Z</time>
</trkpt>
<trkpt lat="49.06543592" lon="11.45892224">
<ele>423.6</ele>
<time>2011-08-03T08:14:12Z</time>
</trkpt>
<trkpt lat="49.0656331" lon="11.45871939">
<ele>423.23334</ele>
<time>2011-08-03T08:14:16Z</time>
</trkpt>
<trkpt lat="49.06579292" lon="11.45856756">
<ele>422.8</ele>
<time>2011-08-03T08:14:19Z</time>
</trkpt>
<trkpt lat="49.06600991" lon="11.45844163">
<ele>422.93332</ele>
<time>2011-08-03T08:14:23Z</time>
</trkpt>
<trkpt lat="49.06622998" lon="11.4583535">
<ele>423.13333</ele>
<time>2011-08-03T08:14:27Z</time>
</trkpt>
<trkpt lat="49.06654346" lon="11.45838738">
<ele>424.1</ele>
<time>2011-08-03T08:14:32Z</time>
</trkpt>
<trkpt lat="49.06675316" lon="11.45836394">
<ele>424.53333</ele>
<time>2011-08-03T08:14:36Z</time>
</trkpt>
<trkpt lat="49.06695443" lon="11.45833183">
<ele>425.6</ele>
<time>2011-08-03T08:14:40Z</time>
</trkpt>
<trkpt lat="49.06721396" lon="11.45825538">
<ele>426.03333</ele>
<time>2011-08-03T08:14:45Z</time>
</trkpt>
<trkpt lat="49.06741879" lon="11.45817138">
<ele>426.2</ele>
<time>2011-08-03T08:14:49Z</time>
</trkpt>
<trkpt lat="49.06763564" lon="11.45809078">
<ele>425.3</ele>
<time>2011-08-03T08:14:53Z</time>
</trkpt>
<trkpt lat="49.06794284" lon="11.45808206">
<ele>424.33334</ele>
<time>2011-08-03T08:14:58Z</time>
</trkpt>
<trkpt lat="49.06817368" lon="11.45813825">
<ele>423.8</ele>
<time>2011-08-03T08:15:02Z</time>
</trkpt>
<trkpt lat="49.06835506" lon="11.45821707">
<ele>423.86667</ele>
<time>2011-08-03T08:15:05Z</time>
</trkpt>
<trkpt lat="49.06853832" lon="11.45828235">
<ele>423.96667</ele>
<time>2011-08-03T08:15:08Z</time>
</trkpt>
<trkpt lat="49.06873002" lon="11.45835012">
<ele>424.2</ele>
<time>2011-08-03T08:15:11Z</time>
</trkpt>
<trkpt lat="49.06891944" lon="11.45838492">
<ele>424.2</ele>
<time>2011-08-03T08:15:14Z</time>
</trkpt>
<trkpt lat="49.06912856" lon="11.45834939">
<ele>424.1</ele>
<time>2011-08-03T08:15:17Z</time>
</trkpt>
<trkpt lat="49.06933012" lon="11.45827108">
<ele>424.06668</ele>
<time>2011-08-03T08:15:20Z</time>
</trkpt>
<trkpt lat="49.06957711" lon="11.458153">
<ele>424.06668</ele>
<time>2011-08-03T08:15:24Z</time>
</trkpt>
<trkpt lat="49.0697529" lon="11.45805336">
<ele>424.36667</ele>
<time>2011-08-03T08:15:27Z</time>
</trkpt>
<trkpt lat="49.06997715" lon="11.45792099">
<ele>424.43332</ele>
<time>2011-08-03T08:15:31Z</time>
</trkpt>
<trkpt lat="49.07015538" lon="11.45784035">
<ele>424.46667</ele>
<time>2011-08-03T08:15:34Z</time>
</trkpt>
<trkpt lat="49.07034128" lon="11.45774824">
<ele>424.1</ele>
<time>2011-08-03T08:15:37Z</time>
</trkpt>
<trkpt lat="49.07051079" lon="11.45761561">
<ele>423.43332</ele>
<time>2011-08-03T08:15:40Z</time>
</trkpt>
<trkpt lat="49.07068608" lon="11.45749614">
<ele>422.63333</ele>
<time>2011-08-03T08:15:43Z</time>
</trkpt>
<trkpt lat="49.07087786" lon="11.4574066">
<ele>421.8</ele>
<time>2011-08-03T08:15:46Z</time>
</trkpt>
<trkpt lat="49.07110829" lon="11.45727009">
<ele>421.43332</ele>
<time>2011-08-03T08:15:50Z</time>
</trkpt>
<trkpt lat="49.0712808" lon="11.45713963">
<ele>420.73334</ele>
<time>2011-08-03T08:15:53Z</time>
</trkpt>
<trkpt lat="49.07144376" lon="11.45698367">
<ele>420.3</ele>
<time>2011-08-03T08:15:56Z</time>
</trkpt>
<trkpt lat="49.07162087" lon="11.45686847">
<ele>420.1</ele>
<time>2011-08-03T08:15:59Z</time>
</trkpt>
<trkpt lat="49.07184073" lon="11.45670487">
<ele>420.73334</ele>
<time>2011-08-03T08:16:03Z</time>
</trkpt>
<trkpt lat="49.07200765" lon="11.45656567">
<ele>420.9</ele>
<time>2011-08-03T08:16:06Z</time>
</trkpt>
<trkpt lat="49.07216457" lon="11.45641031">
<ele>420.83334</ele>
<time>2011-08-03T08:16:09Z</time>
</trkpt>
<trkpt lat="49.07235647" lon="11.4562061">
<ele>420.8</ele>
<time>2011-08-03T08:16:13Z</time>
</trkpt>
<trkpt lat="49.07254783" lon="11.45602044">
<ele>421.26666</ele>
<time>2011-08-03T08:16:17Z</time>
</trkpt>
<trkpt lat="49.07270359" lon="11.45587791">
<ele>421.56668</ele>
<time>2011-08-03T08:16:20Z</time>
</trkpt>
<trkpt lat="49.07287294" lon="11.45573958">
<ele>421.4</ele>
<time>2011-08-03T08:16:23Z</time>
</trkpt>
<trkpt lat="49.07301669" lon="11.455569">
<ele>421.26666</ele>
<time>2011-08-03T08:16:26Z</time>
</trkpt>
<trkpt lat="49.07321523" lon="11.45537131">
<ele>421.3</ele>
<time>2011-08-03T08:16:30Z</time>
</trkpt>
<trkpt lat="49.07339646" lon="11.4551606">
<ele>421.46667</ele>
<time>2011-08-03T08:16:34Z</time>
</trkpt>
<trkpt lat="49.07353822" lon="11.45499135">
<ele>421.63333</ele>
<time>2011-08-03T08:16:37Z</time>
</trkpt>
<trkpt lat="49.07369569" lon="11.45473788">
<ele>421.83334</ele>
<time>2011-08-03T08:16:41Z</time>
</trkpt>
<trkpt lat="49.07384251" lon="11.45454937">
<ele>421.26666</ele>
<time>2011-08-03T08:16:44Z</time>
</trkpt>
<trkpt lat="49.07402402" lon="11.45432551">
<ele>420.46667</ele>
<time>2011-08-03T08:16:48Z</time>
</trkpt>
<trkpt lat="49.07420424" lon="11.45415213">
<ele>420.43332</ele>
<time>2011-08-03T08:16:52Z</time>
</trkpt>
<trkpt lat="49.07441742" lon="11.4540002">
<ele>421.23334</ele>
<time>2011-08-03T08:16:56Z</time>
</trkpt>
<trkpt lat="49.07461382" lon="11.45381919">
<ele>421.73334</ele>
<time>2011-08-03T08:17:00Z</time>
</trkpt>
<trkpt lat="49.07480797" lon="11.45364276">
<ele>421.63333</ele>
<time>2011-08-03T08:17:04Z</time>
</trkpt>
<trkpt lat="49.07495739" lon="11.453415">
<ele>421.76666</ele>
<time>2011-08-03T08:17:08Z</time>
</trkpt>
<trkpt lat="49.07511872" lon="11.4531953">
<ele>422.66666</ele>
<time>2011-08-03T08:17:13Z</time>
</trkpt>
<trkpt lat="49.07528484" lon="11.45299011">
<ele>423.26666</ele>
<time>2011-08-03T08:17:18Z</time>
</trkpt>
<trkpt lat="49.07549343" lon="11.4528527">
<ele>423.26666</ele>
<time>2011-08-03T08:17:22Z</time>
</trkpt>
<trkpt lat="49.07567833" lon="11.45279287">
<ele>422.66666</ele>
<time>2011-08-03T08:17:25Z</time>
</trkpt>
<trkpt lat="49.07587079" lon="11.4527652">
<ele>422.23334</ele>
<time>2011-08-03T08:17:28Z</time>
</trkpt>
<trkpt lat="49.07607751" lon="11.45272305">
<ele>422.56668</ele>
<time>2011-08-03T08:17:31Z</time>
</trkpt>
<trkpt lat="49.07631804" lon="11.45267649">
<ele>422.33334</ele>
<time>2011-08-03T08:17:34Z</time>
</trkpt>
<trkpt lat="49.0765557" lon="11.45255352">
<ele>421.86667</ele>
<time>2011-08-03T08:17:37Z</time>
</trkpt>
<trkpt lat="49.07677028" lon="11.45241775">
<ele>420.66666</ele>
<time>2011-08-03T08:17:40Z</time>
</trkpt>
<trkpt lat="49.07703982" lon="11.45224159">
<ele>420.53333</ele>
<time>2011-08-03T08:17:44Z</time>
</trkpt>
<trkpt lat="49.07724015" lon="11.45213931">
<ele>420.5</ele>
<time>2011-08-03T08:17:47Z</time>
</trkpt>
<trkpt lat="49.07742621" lon="11.45203019">
<ele>420.9</ele>
<time>2011-08-03T08:17:50Z</time>
</trkpt>
<trkpt lat="49.07760891" lon="11.45190965">
<ele>420.96667</ele>
<time>2011-08-03T08:17:53Z</time>
</trkpt>
<trkpt lat="49.07783324" lon="11.45176433">
<ele>421.06668</ele>
<time>2011-08-03T08:17:57Z</time>
</trkpt>
<trkpt lat="49.07801797" lon="11.45166724">
<ele>420.86667</ele>
<time>2011-08-03T08:18:00Z</time>
</trkpt>
<trkpt lat="49.0781925" lon="11.45157914">
<ele>420.73334</ele>
<time>2011-08-03T08:18:03Z</time>
</trkpt>
<trkpt lat="49.07837332" lon="11.45149508">
<ele>420.66666</ele>
<time>2011-08-03T08:18:06Z</time>
</trkpt>
<trkpt lat="49.07861827" lon="11.45139901">
<ele>420.66666</ele>
<time>2011-08-03T08:18:10Z</time>
</trkpt>
<trkpt lat="49.07885487" lon="11.45134352">
<ele>420.73334</ele>
<time>2011-08-03T08:18:14Z</time>
</trkpt>
<trkpt lat="49.07907924" lon="11.45127218">
<ele>420.76666</ele>
<time>2011-08-03T08:18:18Z</time>
</trkpt>
<trkpt lat="49.07937203" lon="11.4511133">
<ele>420.93332</ele>
<time>2011-08-03T08:18:23Z</time>
</trkpt>
<trkpt lat="49.07955659" lon="11.45104028">
<ele>420.63333</ele>
<time>2011-08-03T08:18:26Z</time>
</trkpt>
<trkpt lat="49.07977459" lon="11.45090757">
<ele>420.43332</ele>
<time>2011-08-03T08:18:30Z</time>
</trkpt>
<trkpt lat="49.08011571" lon="11.45082157">
<ele>420.33334</ele>
<time>2011-08-03T08:18:36Z</time>
</trkpt>
<trkpt lat="49.08035449" lon="11.45080082">
<ele>420.8</ele>
<time>2011-08-03T08:18:40Z</time>
</trkpt>
<trkpt lat="49.08058801" lon="11.45074124">
<ele>421.36667</ele>
<time>2011-08-03T08:18:44Z</time>
</trkpt>
<trkpt lat="49.08089814" lon="11.45069569">
<ele>421.86667</ele>
<time>2011-08-03T08:18:49Z</time>
</trkpt>
<trkpt lat="49.08113375" lon="11.45063925">
<ele>422.1</ele>
<time>2011-08-03T08:18:53Z</time>
</trkpt>
<trkpt lat="49.08134904" lon="11.45056692">
<ele>422.23334</ele>
<time>2011-08-03T08:18:57Z</time>
</trkpt>
<trkpt lat="49.08160208" lon="11.4504353">
<ele>422.3</ele>
<time>2011-08-03T08:19:02Z</time>
</trkpt>
<trkpt lat="49.08182904" lon="11.45034542">
<ele>422.66666</ele>
<time>2011-08-03T08:19:06Z</time>
</trkpt>
<trkpt lat="49.08205304" lon="11.4502857">
<ele>422.93332</ele>
<time>2011-08-03T08:19:10Z</time>
</trkpt>
<trkpt lat="49.08223906" lon="11.45025864">
<ele>423.36667</ele>
<time>2011-08-03T08:19:15Z</time>
</trkpt>
<trkpt lat="49.08246014" lon="11.45019968">
<ele>423.73334</ele>
<time>2011-08-03T08:19:20Z</time>
</trkpt>
<trkpt lat="49.08265407" lon="11.45016904">
<ele>424.23334</ele>
<time>2011-08-03T08:19:23Z</time>
</trkpt>
<trkpt lat="49.0829657" lon="11.45004532">
<ele>424.13333</ele>
<time>2011-08-03T08:19:28Z</time>
</trkpt>
<trkpt lat="49.08319532" lon="11.44997969">
<ele>423.4</ele>
<time>2011-08-03T08:19:31Z</time>
</trkpt>
<trkpt lat="49.08340082" lon="11.44990856">
<ele>422.8</ele>
<time>2011-08-03T08:19:34Z</time>
</trkpt>
<trkpt lat="49.0835775" lon="11.44983031">
<ele>422.46667</ele>
<time>2011-08-03T08:19:37Z</time>
</trkpt>
<trkpt lat="49.08383075" lon="11.44972663">
<ele>422.8</ele>
<time>2011-08-03T08:19:41Z</time>
</trkpt>
<trkpt lat="49.08402514" lon="11.44965334">
<ele>422.43332</ele>
<time>2011-08-03T08:19:44Z</time>
</trkpt>
<trkpt lat="49.0842089" lon="11.44955278">
<ele>422.0</ele>
<time>2011-08-03T08:19:47Z</time>
</trkpt>
<trkpt lat="49.08438995" lon="11.44944633">
<ele>421.56668</ele>
<time>2011-08-03T08:19:50Z</time>
</trkpt>
<trkpt lat="49.08464855" lon="11.44931251">
<ele>421.6</ele>
<time>2011-08-03T08:19:54Z</time>
</trkpt>
<trkpt lat="49.08484838" lon="11.44921807">
<ele>421.4</ele>
<time>2011-08-03T08:19:57Z</time>
</trkpt>
<trkpt lat="49.08503108" lon="11.44910639">
<ele>421.03333</ele>
<time>2011-08-03T08:20:00Z</time>
</trkpt>
<trkpt lat="49.08521691" lon="11.44900221">
<ele>420.6</ele>
<time>2011-08-03T08:20:03Z</time>
</trkpt>
<trkpt lat="49.08545739" lon="11.44884597">
<ele>420.5</ele>
<time>2011-08-03T08:20:07Z</time>
</trkpt>
<trkpt lat="49.08563963" lon="11.44872508">
<ele>420.46667</ele>
<time>2011-08-03T08:20:10Z</time>
</trkpt>
<trkpt lat="49.08581708" lon="11.44858795">
<ele>420.33334</ele>
<time>2011-08-03T08:20:13Z</time>
</trkpt>
<trkpt lat="49.0859903" lon="11.44844934">
<ele>420.6</ele>
<time>2011-08-03T08:20:16Z</time>
</trkpt>
<trkpt lat="49.08621611" lon="11.44825175">
<ele>421.13333</ele>
<time>2011-08-03T08:20:20Z</time>
</trkpt>
<trkpt lat="49.08638562" lon="11.44811724">
<ele>421.8</ele>
<time>2011-08-03T08:20:23Z</time>
</trkpt>
<trkpt lat="49.0865648" lon="11.44791052">
<ele>422.06668</ele>
<time>2011-08-03T08:20:27Z</time>
</trkpt>
<trkpt lat="49.08680121" lon="11.44752501">
<ele>422.2</ele>
<time>2011-08-03T08:20:33Z</time>
</trkpt>
<trkpt lat="49.08701047" lon="11.44745225">
<ele>422.36667</ele>
<time>2011-08-03T08:20:37Z</time>
</trkpt>
<trkpt lat="49.08721225" lon="11.44735883">
<ele>422.66666</ele>
<time>2011-08-03T08:20:41Z</time>
</trkpt>
<trkpt lat="49.08748982" lon="11.44711584">
<ele>422.46667</ele>
<time>2011-08-03T08:20:46Z</time>
</trkpt>
<trkpt lat="49.08763919" lon="11.44695774">
<ele>422.0</ele>
<time>2011-08-03T08:20:49Z</time>
</trkpt>
<trkpt lat="49.08783642" lon="11.44673998">
<ele>421.4</ele>
<time>2011-08-03T08:20:53Z</time>
</trkpt>
<trkpt lat="49.08798713" lon="11.4465745">
<ele>421.06668</ele>
<time>2011-08-03T08:20:56Z</time>
</trkpt>
<trkpt lat="49.08812754" lon="11.44639973">
<ele>421.03333</ele>
<time>2011-08-03T08:20:59Z</time>
</trkpt>
<trkpt lat="49.08826746" lon="11.44621146">
<ele>420.93332</ele>
<time>2011-08-03T08:21:02Z</time>
</trkpt>
<trkpt lat="49.08841679" lon="11.44603189">
<ele>420.8</ele>
<time>2011-08-03T08:21:05Z</time>
</trkpt>
<trkpt lat="49.08863463" lon="11.44590963">
<ele>420.7</ele>
<time>2011-08-03T08:21:09Z</time>
</trkpt>
<trkpt lat="49.08879748" lon="11.44576682">
<ele>419.73334</ele>
<time>2011-08-03T08:21:12Z</time>
</trkpt>
<trkpt lat="49.08896662" lon="11.44563429">
<ele>419.3</ele>
<time>2011-08-03T08:21:15Z</time>
</trkpt>
<trkpt lat="49.08911639" lon="11.44546595">
<ele>418.93332</ele>
<time>2011-08-03T08:21:18Z</time>
</trkpt>
<trkpt lat="49.08927627" lon="11.44530868">
<ele>419.5</ele>
<time>2011-08-03T08:21:21Z</time>
</trkpt>
<trkpt lat="49.08948832" lon="11.44509285">
<ele>419.8</ele>
<time>2011-08-03T08:21:25Z</time>
</trkpt>
<trkpt lat="49.08965158" lon="11.44493906">
<ele>420.16666</ele>
<time>2011-08-03T08:21:28Z</time>
</trkpt>
<trkpt lat="49.08981677" lon="11.44476615">
<ele>420.63333</ele>
<time>2011-08-03T08:21:31Z</time>
</trkpt>
<trkpt lat="49.08998139" lon="11.44459584">
<ele>420.93332</ele>
<time>2011-08-03T08:21:34Z</time>
</trkpt>
<trkpt lat="49.09015006" lon="11.44431238">
<ele>420.6</ele>
<time>2011-08-03T08:21:38Z</time>
</trkpt>
<trkpt lat="49.09021391" lon="11.4440137">
<ele>421.03333</ele>
<time>2011-08-03T08:21:42Z</time>
</trkpt>
<trkpt lat="49.09024428" lon="11.44373574">
<ele>421.13333</ele>
<time>2011-08-03T08:21:46Z</time>
</trkpt>
<trkpt lat="49.09016447" lon="11.44345659">
<ele>421.7</ele>
<time>2011-08-03T08:21:52Z</time>
</trkpt>
<trkpt lat="49.09004165" lon="11.44321878">
<ele>421.4</ele>
<time>2011-08-03T08:21:58Z</time>
</trkpt>
<trkpt lat="49.08987531" lon="11.44299647">
<ele>421.26666</ele>
<time>2011-08-03T08:22:04Z</time>
</trkpt>
<trkpt lat="49.08977315" lon="11.44273274">
<ele>421.33334</ele>
<time>2011-08-03T08:22:10Z</time>
</trkpt>
<trkpt lat="49.08992639" lon="11.44238373">
<ele>421.8</ele>
<time>2011-08-03T08:22:17Z</time>
</trkpt>
<trkpt lat="49.09013134" lon="11.44229738">
<ele>422.6</ele>
<time>2011-08-03T08:22:22Z</time>
</trkpt>
<trkpt lat="49.09030107" lon="11.44242369">
<ele>424.23334</ele>
<time>2011-08-03T08:22:27Z</time>
</trkpt>
<trkpt lat="49.09038073" lon="11.44272147">
<ele>425.33334</ele>
<time>2011-08-03T08:22:31Z</time>
</trkpt>
<trkpt lat="49.09044163" lon="11.44302344">
<ele>426.36667</ele>
<time>2011-08-03T08:22:35Z</time>
</trkpt>
<trkpt lat="49.09054818" lon="11.44331596">
<ele>426.4</ele>
<time>2011-08-03T08:22:39Z</time>
</trkpt>
<trkpt lat="49.09068918" lon="11.44355151">
<ele>426.53333</ele>
<time>2011-08-03T08:22:43Z</time>
</trkpt>
<trkpt lat="49.09081744" lon="11.44384615">
<ele>426.9</ele>
<time>2011-08-03T08:22:47Z</time>
</trkpt>
<trkpt lat="49.09092861" lon="11.44410348">
<ele>427.6</ele>
<time>2011-08-03T08:22:51Z</time>
</trkpt>
<trkpt lat="49.09110706" lon="11.44444883">
<ele>428.53333</ele>
<time>2011-08-03T08:22:56Z</time>
</trkpt>
<trkpt lat="49.09124526" lon="11.4447001">
<ele>429.2</ele>
<time>2011-08-03T08:23:00Z</time>
</trkpt>
<trkpt lat="49.09138333" lon="11.44498666">
<ele>429.63333</ele>
<time>2011-08-03T08:23:04Z</time>
</trkpt>
<trkpt lat="49.09166733" lon="11.44521303">
<ele>429.2</ele>
<time>2011-08-03T08:23:09Z</time>
</trkpt>
<trkpt lat="49.09180892" lon="11.44497636">
<ele>429.66666</ele>
<time>2011-08-03T08:23:14Z</time>
</trkpt>
<trkpt lat="49.09188942" lon="11.4447183">
<ele>430.06668</ele>
<time>2011-08-03T08:23:18Z</time>
</trkpt>
<trkpt lat="49.09195965" lon="11.44446009">
<ele>431.43332</ele>
<time>2011-08-03T08:23:22Z</time>
</trkpt>
<trkpt lat="49.09204395" lon="11.44419376">
<ele>432.06668</ele>
<time>2011-08-03T08:23:26Z</time>
</trkpt>
<trkpt lat="49.09214511" lon="11.44395359">
<ele>432.5</ele>
<time>2011-08-03T08:23:30Z</time>
</trkpt>
<trkpt lat="49.09228492" lon="11.44367454">
<ele>432.83334</ele>
<time>2011-08-03T08:23:35Z</time>
</trkpt>
<trkpt lat="49.09240009" lon="11.44345495">
<ele>433.16666</ele>
<time>2011-08-03T08:23:39Z</time>
</trkpt>
<trkpt lat="49.09252477" lon="11.44323324">
<ele>433.83334</ele>
<time>2011-08-03T08:23:43Z</time>
</trkpt>
<trkpt lat="49.09267203" lon="11.44295173">
<ele>435.0</ele>
<time>2011-08-03T08:23:48Z</time>
</trkpt>
<trkpt lat="49.09279975" lon="11.44273212">
<ele>435.66666</ele>
<time>2011-08-03T08:23:52Z</time>
</trkpt>
<trkpt lat="49.09293096" lon="11.44252279">
<ele>436.1</ele>
<time>2011-08-03T08:23:56Z</time>
</trkpt>
<trkpt lat="49.09313754" lon="11.44231406">
<ele>436.06668</ele>
<time>2011-08-03T08:24:01Z</time>
</trkpt>
<trkpt lat="49.09331658" lon="11.44214769">
<ele>436.5</ele>
<time>2011-08-03T08:24:05Z</time>
</trkpt>
<trkpt lat="49.09348702" lon="11.44195798">
<ele>437.03333</ele>
<time>2011-08-03T08:24:09Z</time>
</trkpt>
<trkpt lat="49.0936813" lon="11.44176728">
<ele>437.23334</ele>
<time>2011-08-03T08:24:14Z</time>
</trkpt>
<trkpt lat="49.09385396" lon="11.44158147">
<ele>437.46667</ele>
<time>2011-08-03T08:24:19Z</time>
</trkpt>
<trkpt lat="49.09402952" lon="11.44139634">
<ele>437.66666</ele>
<time>2011-08-03T08:24:23Z</time>
</trkpt>
<trkpt lat="49.09420768" lon="11.4412033">
<ele>437.86667</ele>
<time>2011-08-03T08:24:27Z</time>
</trkpt>
<trkpt lat="49.09438968" lon="11.44101173">
<ele>437.83334</ele>
<time>2011-08-03T08:24:31Z</time>
</trkpt>
<trkpt lat="49.09457488" lon="11.44081161">
<ele>437.76666</ele>
<time>2011-08-03T08:24:35Z</time>
</trkpt>
<trkpt lat="49.09482983" lon="11.44059053">
<ele>438.03333</ele>
<time>2011-08-03T08:24:40Z</time>
</trkpt>
<trkpt lat="49.09498728" lon="11.4404456">
<ele>438.33334</ele>
<time>2011-08-03T08:24:43Z</time>
</trkpt>
<trkpt lat="49.09514564" lon="11.44029902">
<ele>438.6</ele>
<time>2011-08-03T08:24:46Z</time>
</trkpt>
<trkpt lat="49.09534724" lon="11.44012989">
<ele>438.73334</ele>
<time>2011-08-03T08:24:50Z</time>
</trkpt>
<trkpt lat="49.09555781" lon="11.43998146">
<ele>438.5</ele>
<time>2011-08-03T08:24:54Z</time>
</trkpt>
<trkpt lat="49.09572271" lon="11.4398551">
<ele>438.4</ele>
<time>2011-08-03T08:24:57Z</time>
</trkpt>
<trkpt lat="49.0959019" lon="11.43974035">
<ele>438.2</ele>
<time>2011-08-03T08:25:00Z</time>
</trkpt>
<trkpt lat="49.09608725" lon="11.4396214">
<ele>438.23334</ele>
<time>2011-08-03T08:25:03Z</time>
</trkpt>
<trkpt lat="49.09626864" lon="11.43950051">
<ele>438.0</ele>
<time>2011-08-03T08:25:06Z</time>
</trkpt>
<trkpt lat="49.09644915" lon="11.43937715">
<ele>437.76666</ele>
<time>2011-08-03T08:25:09Z</time>
</trkpt>
<trkpt lat="49.0966259" lon="11.43925773">
<ele>437.56668</ele>
<time>2011-08-03T08:25:12Z</time>
</trkpt>
<trkpt lat="49.09681229" lon="11.43915994">
<ele>437.43332</ele>
<time>2011-08-03T08:25:15Z</time>
</trkpt>
<trkpt lat="49.09705924" lon="11.43902734">
<ele>437.43332</ele>
<time>2011-08-03T08:25:19Z</time>
</trkpt>
<trkpt lat="49.09725456" lon="11.43893073">
<ele>437.56668</ele>
<time>2011-08-03T08:25:22Z</time>
</trkpt>
<trkpt lat="49.09744994" lon="11.43884988">
<ele>437.76666</ele>
<time>2011-08-03T08:25:25Z</time>
</trkpt>
<trkpt lat="49.097651" lon="11.43874802">
<ele>437.83334</ele>
<time>2011-08-03T08:25:28Z</time>
</trkpt>
<trkpt lat="49.09790912" lon="11.43864208">
<ele>437.9</ele>
<time>2011-08-03T08:25:32Z</time>
</trkpt>
<trkpt lat="49.09810489" lon="11.43858551">
<ele>438.03333</ele>
<time>2011-08-03T08:25:35Z</time>
</trkpt>
<trkpt lat="49.098279" lon="11.43848223">
<ele>438.33334</ele>
<time>2011-08-03T08:25:38Z</time>
</trkpt>
<trkpt lat="49.09847258" lon="11.43841389">
<ele>438.6</ele>
<time>2011-08-03T08:25:41Z</time>
</trkpt>
<trkpt lat="49.09874406" lon="11.43832657">
<ele>438.46667</ele>
<time>2011-08-03T08:25:45Z</time>
</trkpt>
<trkpt lat="49.09893993" lon="11.43826758">
<ele>438.43332</ele>
<time>2011-08-03T08:25:48Z</time>
</trkpt>
<trkpt lat="49.09912482" lon="11.43821176">
<ele>438.3</ele>
<time>2011-08-03T08:25:51Z</time>
</trkpt>
<trkpt lat="49.0993539" lon="11.43816947">
<ele>438.03333</ele>
<time>2011-08-03T08:25:54Z</time>
</trkpt>
<trkpt lat="49.0996041" lon="11.4381109">
<ele>437.8</ele>
<time>2011-08-03T08:25:58Z</time>
</trkpt>
<trkpt lat="49.09981793" lon="11.43807406">
<ele>437.5</ele>
<time>2011-08-03T08:26:01Z</time>
</trkpt>
<trkpt lat="49.10001935" lon="11.43803404">
<ele>437.76666</ele>
<time>2011-08-03T08:26:04Z</time>
</trkpt>
<trkpt lat="49.10022044" lon="11.4380022">
<ele>437.9</ele>
<time>2011-08-03T08:26:07Z</time>
</trkpt>
<trkpt lat="49.10046904" lon="11.43792053">
<ele>438.1</ele>
<time>2011-08-03T08:26:11Z</time>
</trkpt>
<trkpt lat="49.10066597" lon="11.43787285">
<ele>438.13333</ele>
<time>2011-08-03T08:26:14Z</time>
</trkpt>
<trkpt lat="49.10085923" lon="11.43786386">
<ele>438.33334</ele>
<time>2011-08-03T08:26:17Z</time>
</trkpt>
<trkpt lat="49.10105115" lon="11.43786025">
<ele>438.76666</ele>
<time>2011-08-03T08:26:20Z</time>
</trkpt>
<trkpt lat="49.10130751" lon="11.43786712">
<ele>439.33334</ele>
<time>2011-08-03T08:26:24Z</time>
</trkpt>
<trkpt lat="49.10151125" lon="11.43787436">
<ele>439.53333</ele>
<time>2011-08-03T08:26:27Z</time>
</trkpt>
<trkpt lat="49.10172255" lon="11.43788863">
<ele>439.2</ele>
<time>2011-08-03T08:26:30Z</time>
</trkpt>
<trkpt lat="49.10192593" lon="11.43789007">
<ele>438.63333</ele>
<time>2011-08-03T08:26:33Z</time>
</trkpt>
<trkpt lat="49.10219869" lon="11.43788658">
<ele>438.1</ele>
<time>2011-08-03T08:26:37Z</time>
</trkpt>
<trkpt lat="49.1023996" lon="11.4378827">
<ele>438.0</ele>
<time>2011-08-03T08:26:40Z</time>
</trkpt>
<trkpt lat="49.10259664" lon="11.43786651">
<ele>438.23334</ele>
<time>2011-08-03T08:26:43Z</time>
</trkpt>
<trkpt lat="49.10279704" lon="11.43785445">
<ele>438.46667</ele>
<time>2011-08-03T08:26:46Z</time>
</trkpt>
<trkpt lat="49.10306237" lon="11.4378589">
<ele>438.96667</ele>
<time>2011-08-03T08:26:50Z</time>
</trkpt>
<trkpt lat="49.10327645" lon="11.43785588">
<ele>439.36667</ele>
<time>2011-08-03T08:26:53Z</time>
</trkpt>
<trkpt lat="49.10347585" lon="11.43785233">
<ele>439.76666</ele>
<time>2011-08-03T08:26:56Z</time>
</trkpt>
<trkpt lat="49.10368303" lon="11.43785529">
<ele>439.56668</ele>
<time>2011-08-03T08:26:59Z</time>
</trkpt>
<trkpt lat="49.10394136" lon="11.43786907">
<ele>439.1</ele>
<time>2011-08-03T08:27:03Z</time>
</trkpt>
<trkpt lat="49.10413196" lon="11.43793109">
<ele>438.63333</ele>
<time>2011-08-03T08:27:06Z</time>
</trkpt>
<trkpt lat="49.10430982" lon="11.43801104">
<ele>438.6</ele>
<time>2011-08-03T08:27:09Z</time>
</trkpt>
<trkpt lat="49.10450246" lon="11.43807669">
<ele>438.73334</ele>
<time>2011-08-03T08:27:12Z</time>
</trkpt>
<trkpt lat="49.10475416" lon="11.43804845">
<ele>438.83334</ele>
<time>2011-08-03T08:27:16Z</time>
</trkpt>
<trkpt lat="49.10493939" lon="11.43799909">
<ele>438.6</ele>
<time>2011-08-03T08:27:19Z</time>
</trkpt>
<trkpt lat="49.10512364" lon="11.43791713">
<ele>438.33334</ele>
<time>2011-08-03T08:27:22Z</time>
</trkpt>
<trkpt lat="49.10528311" lon="11.43777225">
<ele>438.13333</ele>
<time>2011-08-03T08:27:25Z</time>
</trkpt>
<trkpt lat="49.10552956" lon="11.43768251">
<ele>438.36667</ele>
<time>2011-08-03T08:27:29Z</time>
</trkpt>
<trkpt lat="49.10571671" lon="11.43767119">
<ele>438.56668</ele>
<time>2011-08-03T08:27:32Z</time>
</trkpt>
<trkpt lat="49.10590175" lon="11.43764555">
<ele>439.06668</ele>
<time>2011-08-03T08:27:35Z</time>
</trkpt>
<trkpt lat="49.10609135" lon="11.43763552">
<ele>439.23334</ele>
<time>2011-08-03T08:27:38Z</time>
</trkpt>
<trkpt lat="49.10633425" lon="11.43764126">
<ele>439.76666</ele>
<time>2011-08-03T08:27:42Z</time>
</trkpt>
<trkpt lat="49.1065148" lon="11.43762695">
<ele>440.43332</ele>
<time>2011-08-03T08:27:45Z</time>
</trkpt>
<trkpt lat="49.10675517" lon="11.43762255">
<ele>441.16666</ele>
<time>2011-08-03T08:27:49Z</time>
</trkpt>
<trkpt lat="49.10693728" lon="11.43760134">
<ele>441.73334</ele>
<time>2011-08-03T08:27:52Z</time>
</trkpt>
<trkpt lat="49.10716409" lon="11.43756016">
<ele>442.56668</ele>
<time>2011-08-03T08:27:56Z</time>
</trkpt>
<trkpt lat="49.10735435" lon="11.43756178">
<ele>443.0</ele>
<time>2011-08-03T08:27:59Z</time>
</trkpt>
<trkpt lat="49.10753693" lon="11.43756921">
<ele>443.2</ele>
<time>2011-08-03T08:28:02Z</time>
</trkpt>
<trkpt lat="49.10771786" lon="11.43757083">
<ele>442.93332</ele>
<time>2011-08-03T08:28:05Z</time>
</trkpt>
<trkpt lat="49.10795791" lon="11.43756833">
<ele>442.76666</ele>
<time>2011-08-03T08:28:09Z</time>
</trkpt>
<trkpt lat="49.10819206" lon="11.43756647">
<ele>442.36667</ele>
<time>2011-08-03T08:28:13Z</time>
</trkpt>
<trkpt lat="49.10840826" lon="11.43755323">
<ele>441.63333</ele>
<time>2011-08-03T08:28:17Z</time>
</trkpt>
<trkpt lat="49.10861656" lon="11.43754573">
<ele>441.23334</ele>
<time>2011-08-03T08:28:21Z</time>
</trkpt>
<trkpt lat="49.1088266" lon="11.43754302">
<ele>441.16666</ele>
<time>2011-08-03T08:28:25Z</time>
</trkpt>
<trkpt lat="49.10904008" lon="11.43759854">
<ele>440.9</ele>
<time>2011-08-03T08:28:29Z</time>
</trkpt>
<trkpt lat="49.1092629" lon="11.43775024">
<ele>440.4</ele>
<time>2011-08-03T08:28:34Z</time>
</trkpt>
<trkpt lat="49.10948777" lon="11.43781624">
<ele>440.16666</ele>
<time>2011-08-03T08:28:39Z</time>
</trkpt>
<trkpt lat="49.10966946" lon="11.43786978">
<ele>440.2</ele>
<time>2011-08-03T08:28:43Z</time>
</trkpt>
<trkpt lat="49.10985716" lon="11.43780313">
<ele>440.56668</ele>
<time>2011-08-03T08:28:47Z</time>
</trkpt>
<trkpt lat="49.11003785" lon="11.43776575">
<ele>440.03333</ele>
<time>2011-08-03T08:28:50Z</time>
</trkpt>
<trkpt lat="49.11023194" lon="11.43763543">
<ele>439.26666</ele>
<time>2011-08-03T08:28:54Z</time>
</trkpt>
<trkpt lat="49.11057186" lon="11.43751388">
<ele>438.76666</ele>
<time>2011-08-03T08:29:00Z</time>
</trkpt>
<trkpt lat="49.11078373" lon="11.43753031">
<ele>439.16666</ele>
<time>2011-08-03T08:29:04Z</time>
</trkpt>
<trkpt lat="49.1110309" lon="11.43757008">
<ele>440.26666</ele>
<time>2011-08-03T08:29:08Z</time>
</trkpt>
<trkpt lat="49.11135321" lon="11.43762259">
<ele>440.93332</ele>
<time>2011-08-03T08:29:13Z</time>
</trkpt>
<trkpt lat="49.1115484" lon="11.43767395">
<ele>440.83334</ele>
<time>2011-08-03T08:29:16Z</time>
</trkpt>
<trkpt lat="49.11178126" lon="11.43766275">
<ele>440.4</ele>
<time>2011-08-03T08:29:20Z</time>
</trkpt>
<trkpt lat="49.11213075" lon="11.43765742">
<ele>440.2</ele>
<time>2011-08-03T08:29:26Z</time>
</trkpt>
<trkpt lat="49.11237101" lon="11.43768099">
<ele>440.63333</ele>
<time>2011-08-03T08:29:30Z</time>
</trkpt>
<trkpt lat="49.11255813" lon="11.43768361">
<ele>440.4</ele>
<time>2011-08-03T08:29:33Z</time>
</trkpt>
<trkpt lat="49.11274313" lon="11.43767023">
<ele>440.06668</ele>
<time>2011-08-03T08:29:36Z</time>
</trkpt>
<trkpt lat="49.1129299" lon="11.43768062">
<ele>439.56668</ele>
<time>2011-08-03T08:29:39Z</time>
</trkpt>
<trkpt lat="49.11312685" lon="11.43768213">
<ele>439.26666</ele>
<time>2011-08-03T08:29:42Z</time>
</trkpt>
<trkpt lat="49.11332119" lon="11.43768407">
<ele>438.83334</ele>
<time>2011-08-03T08:29:45Z</time>
</trkpt>
<trkpt lat="49.11351227" lon="11.43768202">
<ele>438.4</ele>
<time>2011-08-03T08:29:48Z</time>
</trkpt>
<trkpt lat="49.11377655" lon="11.4376839">
<ele>438.23334</ele>
<time>2011-08-03T08:29:52Z</time>
</trkpt>
<trkpt lat="49.1139773" lon="11.43768478">
<ele>437.9</ele>
<time>2011-08-03T08:29:55Z</time>
</trkpt>
<trkpt lat="49.11417792" lon="11.4376925">
<ele>437.6</ele>
<time>2011-08-03T08:29:58Z</time>
</trkpt>
<trkpt lat="49.11437181" lon="11.43769952">
<ele>437.53333</ele>
<time>2011-08-03T08:30:01Z</time>
</trkpt>
<trkpt lat="49.11463538" lon="11.43771198">
<ele>437.73334</ele>
<time>2011-08-03T08:30:05Z</time>
</trkpt>
<trkpt lat="49.11482523" lon="11.43770647">
<ele>437.93332</ele>
<time>2011-08-03T08:30:08Z</time>
</trkpt>
<trkpt lat="49.11506085" lon="11.43772179">
<ele>438.0</ele>
<time>2011-08-03T08:30:12Z</time>
</trkpt>
<trkpt lat="49.11542411" lon="11.4377184">
<ele>438.46667</ele>
<time>2011-08-03T08:30:18Z</time>
</trkpt>
<trkpt lat="49.11561393" lon="11.43771469">
<ele>439.1</ele>
<time>2011-08-03T08:30:21Z</time>
</trkpt>
<trkpt lat="49.11580665" lon="11.43771809">
<ele>439.6</ele>
<time>2011-08-03T08:30:24Z</time>
</trkpt>
<trkpt lat="49.11600749" lon="11.43772395">
<ele>439.46667</ele>
<time>2011-08-03T08:30:27Z</time>
</trkpt>
<trkpt lat="49.1162629" lon="11.43773184">
<ele>439.06668</ele>
<time>2011-08-03T08:30:31Z</time>
</trkpt>
<trkpt lat="49.11645279" lon="11.43773106">
<ele>438.8</ele>
<time>2011-08-03T08:30:34Z</time>
</trkpt>
<trkpt lat="49.11664825" lon="11.43772783">
<ele>438.66666</ele>
<time>2011-08-03T08:30:37Z</time>
</trkpt>
<trkpt lat="49.11683634" lon="11.4377331">
<ele>438.83334</ele>
<time>2011-08-03T08:30:40Z</time>
</trkpt>
<trkpt lat="49.11709503" lon="11.43772193">
<ele>439.03333</ele>
<time>2011-08-03T08:30:44Z</time>
</trkpt>
<trkpt lat="49.11728408" lon="11.4377165">
<ele>439.63333</ele>
<time>2011-08-03T08:30:47Z</time>
</trkpt>
<trkpt lat="49.1174772" lon="11.43771776">
<ele>440.03333</ele>
<time>2011-08-03T08:30:50Z</time>
</trkpt>
<trkpt lat="49.11768083" lon="11.4377221">
<ele>440.16666</ele>
<time>2011-08-03T08:30:53Z</time>
</trkpt>
<trkpt lat="49.1179445" lon="11.43774735">
<ele>439.8</ele>
<time>2011-08-03T08:30:57Z</time>
</trkpt>
<trkpt lat="49.11814133" lon="11.43775205">
<ele>439.2</ele>
<time>2011-08-03T08:31:00Z</time>
</trkpt>
<trkpt lat="49.11832598" lon="11.43776071">
<ele>439.26666</ele>
<time>2011-08-03T08:31:03Z</time>
</trkpt>
<trkpt lat="49.11851658" lon="11.43777326">
<ele>439.53333</ele>
<time>2011-08-03T08:31:06Z</time>
</trkpt>
<trkpt lat="49.11876549" lon="11.43778841">
<ele>440.06668</ele>
<time>2011-08-03T08:31:10Z</time>
</trkpt>
<trkpt lat="49.11895473" lon="11.43780799">
<ele>440.26666</ele>
<time>2011-08-03T08:31:13Z</time>
</trkpt>
<trkpt lat="49.11914725" lon="11.43782643">
<ele>440.33334</ele>
<time>2011-08-03T08:31:16Z</time>
</trkpt>
<trkpt lat="49.11933166" lon="11.43782951">
<ele>440.6</ele>
<time>2011-08-03T08:31:19Z</time>
</trkpt>
<trkpt lat="49.11958311" lon="11.43783807">
<ele>440.76666</ele>
<time>2011-08-03T08:31:23Z</time>
</trkpt>
<trkpt lat="49.11978124" lon="11.43784965">
<ele>440.9</ele>
<time>2011-08-03T08:31:26Z</time>
</trkpt>
<trkpt lat="49.12001715" lon="11.43781903">
<ele>441.7</ele>
<time>2011-08-03T08:31:30Z</time>
</trkpt>
<trkpt lat="49.12020404" lon="11.43782879">
<ele>443.0</ele>
<time>2011-08-03T08:31:33Z</time>
</trkpt>
<trkpt lat="49.12039272" lon="11.43783608">
<ele>445.0</ele>
<time>2011-08-03T08:31:36Z</time>
</trkpt>
<trkpt lat="49.12059736" lon="11.43786015">
<ele>446.2</ele>
<time>2011-08-03T08:31:39Z</time>
</trkpt>
<trkpt lat="49.12079028" lon="11.43788466">
<ele>446.93332</ele>
<time>2011-08-03T08:31:42Z</time>
</trkpt>
<trkpt lat="49.12098668" lon="11.43788106">
<ele>447.3</ele>
<time>2011-08-03T08:31:45Z</time>
</trkpt>
<trkpt lat="49.1212512" lon="11.43790517">
<ele>447.66666</ele>
<time>2011-08-03T08:31:49Z</time>
</trkpt>
<trkpt lat="49.1214477" lon="11.43790974">
<ele>448.1</ele>
<time>2011-08-03T08:31:52Z</time>
</trkpt>
<trkpt lat="49.12164179" lon="11.43792677">
<ele>448.63333</ele>
<time>2011-08-03T08:31:55Z</time>
</trkpt>
<trkpt lat="49.12187368" lon="11.43789453">
<ele>449.3</ele>
<time>2011-08-03T08:31:59Z</time>
</trkpt>
<trkpt lat="49.12207204" lon="11.43791358">
<ele>450.6</ele>
<time>2011-08-03T08:32:02Z</time>
</trkpt>
<trkpt lat="49.1222801" lon="11.4379486">
<ele>451.93332</ele>
<time>2011-08-03T08:32:05Z</time>
</trkpt>
<trkpt lat="49.12248685" lon="11.43795585">
<ele>453.03333</ele>
<time>2011-08-03T08:32:08Z</time>
</trkpt>
<trkpt lat="49.12267589" lon="11.4379998">
<ele>453.73334</ele>
<time>2011-08-03T08:32:11Z</time>
</trkpt>
<trkpt lat="49.12296479" lon="11.43811403">
<ele>453.63333</ele>
<time>2011-08-03T08:32:15Z</time>
</trkpt>
<trkpt lat="49.12319686" lon="11.43821975">
<ele>452.46667</ele>
<time>2011-08-03T08:32:18Z</time>
</trkpt>
<trkpt lat="49.12339629" lon="11.43825575">
<ele>450.93332</ele>
<time>2011-08-03T08:32:21Z</time>
</trkpt>
<trkpt lat="49.12360148" lon="11.43829028">
<ele>449.83334</ele>
<time>2011-08-03T08:32:24Z</time>
</trkpt>
<trkpt lat="49.12387279" lon="11.43834695">
<ele>449.43332</ele>
<time>2011-08-03T08:32:28Z</time>
</trkpt>
<trkpt lat="49.12407917" lon="11.43839432">
<ele>448.5</ele>
<time>2011-08-03T08:32:31Z</time>
</trkpt>
<trkpt lat="49.12428134" lon="11.43844916">
<ele>447.1</ele>
<time>2011-08-03T08:32:34Z</time>
</trkpt>
<trkpt lat="49.124484" lon="11.43848335">
<ele>445.63333</ele>
<time>2011-08-03T08:32:37Z</time>
</trkpt>
<trkpt lat="49.12474555" lon="11.43853686">
<ele>444.53333</ele>
<time>2011-08-03T08:32:41Z</time>
</trkpt>
<trkpt lat="49.12494734" lon="11.43858223">
<ele>443.66666</ele>
<time>2011-08-03T08:32:44Z</time>
</trkpt>
<trkpt lat="49.12513785" lon="11.43859698">
<ele>443.56668</ele>
<time>2011-08-03T08:32:47Z</time>
</trkpt>
<trkpt lat="49.12534089" lon="11.43863993">
<ele>443.56668</ele>
<time>2011-08-03T08:32:50Z</time>
</trkpt>
<trkpt lat="49.12559354" lon="11.43868384">
<ele>443.8</ele>
<time>2011-08-03T08:32:54Z</time>
</trkpt>
<trkpt lat="49.12579701" lon="11.43874328">
<ele>443.2</ele>
<time>2011-08-03T08:32:57Z</time>
</trkpt>
<trkpt lat="49.12598601" lon="11.43878568">
<ele>442.56668</ele>
<time>2011-08-03T08:33:00Z</time>
</trkpt>
<trkpt lat="49.12616416" lon="11.43883541">
<ele>442.26666</ele>
<time>2011-08-03T08:33:03Z</time>
</trkpt>
<trkpt lat="49.12639268" lon="11.43894363">
<ele>442.06668</ele>
<time>2011-08-03T08:33:07Z</time>
</trkpt>
<trkpt lat="49.12657696" lon="11.43899739">
<ele>441.53333</ele>
<time>2011-08-03T08:33:10Z</time>
</trkpt>
<trkpt lat="49.12676689" lon="11.4390512">
<ele>440.06668</ele>
<time>2011-08-03T08:33:13Z</time>
</trkpt>
<trkpt lat="49.12695812" lon="11.43907531">
<ele>438.86667</ele>
<time>2011-08-03T08:33:16Z</time>
</trkpt>
<trkpt lat="49.12720085" lon="11.43911144">
<ele>438.56668</ele>
<time>2011-08-03T08:33:20Z</time>
</trkpt>
<trkpt lat="49.12738866" lon="11.43915531">
<ele>438.53333</ele>
<time>2011-08-03T08:33:23Z</time>
</trkpt>
<trkpt lat="49.12757473" lon="11.43920253">
<ele>438.4</ele>
<time>2011-08-03T08:33:26Z</time>
</trkpt>
<trkpt lat="49.12776586" lon="11.43925395">
<ele>437.46667</ele>
<time>2011-08-03T08:33:29Z</time>
</trkpt>
<trkpt lat="49.12800089" lon="11.43932534">
<ele>437.16666</ele>
<time>2011-08-03T08:33:33Z</time>
</trkpt>
<trkpt lat="49.12818542" lon="11.43938253">
<ele>437.16666</ele>
<time>2011-08-03T08:33:36Z</time>
</trkpt>
<trkpt lat="49.12840298" lon="11.43946125">
<ele>437.53333</ele>
<time>2011-08-03T08:33:40Z</time>
</trkpt>
<trkpt lat="49.12857045" lon="11.43956158">
<ele>437.7</ele>
<time>2011-08-03T08:33:43Z</time>
</trkpt>
<trkpt lat="49.12874024" lon="11.43966546">
<ele>437.96667</ele>
<time>2011-08-03T08:33:46Z</time>
</trkpt>
<trkpt lat="49.12891537" lon="11.43974609">
<ele>438.26666</ele>
<time>2011-08-03T08:33:49Z</time>
</trkpt>
<trkpt lat="49.12911345" lon="11.43982579">
<ele>438.2</ele>
<time>2011-08-03T08:33:52Z</time>
</trkpt>
<trkpt lat="49.129297" lon="11.43988323">
<ele>438.16666</ele>
<time>2011-08-03T08:33:55Z</time>
</trkpt>
<trkpt lat="49.129549" lon="11.43990671">
<ele>438.36667</ele>
<time>2011-08-03T08:33:59Z</time>
</trkpt>
<trkpt lat="49.12973017" lon="11.43990771">
<ele>439.0</ele>
<time>2011-08-03T08:34:02Z</time>
</trkpt>
<trkpt lat="49.12996212" lon="11.4399713">
<ele>439.43332</ele>
<time>2011-08-03T08:34:06Z</time>
</trkpt>
<trkpt lat="49.13014624" lon="11.4400372">
<ele>438.83334</ele>
<time>2011-08-03T08:34:09Z</time>
</trkpt>
<trkpt lat="49.13034285" lon="11.44011574">
<ele>438.23334</ele>
<time>2011-08-03T08:34:12Z</time>
</trkpt>
<trkpt lat="49.13054293" lon="11.44019662">
<ele>437.6</ele>
<time>2011-08-03T08:34:15Z</time>
</trkpt>
<trkpt lat="49.13074484" lon="11.4402676">
<ele>437.7</ele>
<time>2011-08-03T08:34:18Z</time>
</trkpt>
<trkpt lat="49.13095217" lon="11.44034617">
<ele>437.73334</ele>
<time>2011-08-03T08:34:21Z</time>
</trkpt>
<trkpt lat="49.13121657" lon="11.44046468">
<ele>437.7</ele>
<time>2011-08-03T08:34:25Z</time>
</trkpt>
<trkpt lat="49.13140549" lon="11.44057469">
<ele>437.56668</ele>
<time>2011-08-03T08:34:28Z</time>
</trkpt>
<trkpt lat="49.13158765" lon="11.44069241">
<ele>437.46667</ele>
<time>2011-08-03T08:34:31Z</time>
</trkpt>
<trkpt lat="49.13177131" lon="11.44081655">
<ele>437.4</ele>
<time>2011-08-03T08:34:34Z</time>
</trkpt>
<trkpt lat="49.13203078" lon="11.44092637">
<ele>437.4</ele>
<time>2011-08-03T08:34:38Z</time>
</trkpt>
<trkpt lat="49.1322228" lon="11.44096696">
<ele>437.23334</ele>
<time>2011-08-03T08:34:41Z</time>
</trkpt>
<trkpt lat="49.13246224" lon="11.44104783">
<ele>437.33334</ele>
<time>2011-08-03T08:34:45Z</time>
</trkpt>
<trkpt lat="49.13265843" lon="11.44112499">
<ele>437.33334</ele>
<time>2011-08-03T08:34:48Z</time>
</trkpt>
<trkpt lat="49.13284966" lon="11.44120845">
<ele>437.2</ele>
<time>2011-08-03T08:34:51Z</time>
</trkpt>
<trkpt lat="49.13305717" lon="11.4412935">
<ele>437.13333</ele>
<time>2011-08-03T08:34:54Z</time>
</trkpt>
<trkpt lat="49.13326095" lon="11.44139358">
<ele>437.06668</ele>
<time>2011-08-03T08:34:57Z</time>
</trkpt>
<trkpt lat="49.13345253" lon="11.44149418">
<ele>437.3</ele>
<time>2011-08-03T08:35:00Z</time>
</trkpt>
<trkpt lat="49.13368636" lon="11.44161773">
<ele>437.43332</ele>
<time>2011-08-03T08:35:04Z</time>
</trkpt>
<trkpt lat="49.13387172" lon="11.44173779">
<ele>437.73334</ele>
<time>2011-08-03T08:35:07Z</time>
</trkpt>
<trkpt lat="49.13405109" lon="11.44186646">
<ele>437.9</ele>
<time>2011-08-03T08:35:10Z</time>
</trkpt>
<trkpt lat="49.13423488" lon="11.44197564">
<ele>438.0</ele>
<time>2011-08-03T08:35:13Z</time>
</trkpt>
<trkpt lat="49.13449233" lon="11.44205226">
<ele>438.06668</ele>
<time>2011-08-03T08:35:17Z</time>
</trkpt>
<trkpt lat="49.13468105" lon="11.44210682">
<ele>438.33334</ele>
<time>2011-08-03T08:35:20Z</time>
</trkpt>
<trkpt lat="49.13489028" lon="11.44219776">
<ele>438.13333</ele>
<time>2011-08-03T08:35:23Z</time>
</trkpt>
<trkpt lat="49.13508332" lon="11.4423371">
<ele>437.63333</ele>
<time>2011-08-03T08:35:26Z</time>
</trkpt>
<trkpt lat="49.13532568" lon="11.44252664">
<ele>436.83334</ele>
<time>2011-08-03T08:35:30Z</time>
</trkpt>
<trkpt lat="49.13550972" lon="11.44264868">
<ele>436.56668</ele>
<time>2011-08-03T08:35:33Z</time>
</trkpt>
<trkpt lat="49.13569434" lon="11.4427472">
<ele>436.63333</ele>
<time>2011-08-03T08:35:36Z</time>
</trkpt>
<trkpt lat="49.13587161" lon="11.44285035">
<ele>436.83334</ele>
<time>2011-08-03T08:35:39Z</time>
</trkpt>
<trkpt lat="49.13608222" lon="11.44296449">
<ele>437.6</ele>
<time>2011-08-03T08:35:43Z</time>
</trkpt>
<trkpt lat="49.13627383" lon="11.44305547">
<ele>439.63333</ele>
<time>2011-08-03T08:35:47Z</time>
</trkpt>
<trkpt lat="49.13646205" lon="11.44317989">
<ele>441.86667</ele>
<time>2011-08-03T08:35:51Z</time>
</trkpt>
<trkpt lat="49.13663273" lon="11.44331618">
<ele>443.2</ele>
<time>2011-08-03T08:35:56Z</time>
</trkpt>
<trkpt lat="49.13687797" lon="11.44349379">
<ele>443.73334</ele>
<time>2011-08-03T08:36:01Z</time>
</trkpt>
<trkpt lat="49.13704019" lon="11.4436205">
<ele>443.2</ele>
<time>2011-08-03T08:36:03Z</time>
</trkpt>
<trkpt lat="49.13721453" lon="11.44370101">
<ele>443.26666</ele>
<time>2011-08-03T08:36:06Z</time>
</trkpt>
<trkpt lat="49.13739454" lon="11.44372029">
<ele>443.03333</ele>
<time>2011-08-03T08:36:09Z</time>
</trkpt>
<trkpt lat="49.13763003" lon="11.4436865">
<ele>442.6</ele>
<time>2011-08-03T08:36:13Z</time>
</trkpt>
<trkpt lat="49.13787063" lon="11.44355464">
<ele>441.46667</ele>
<time>2011-08-03T08:36:17Z</time>
</trkpt>
<trkpt lat="49.13816899" lon="11.44335238">
<ele>439.36667</ele>
<time>2011-08-03T08:36:22Z</time>
</trkpt>
<trkpt lat="49.13835534" lon="11.44329206">
<ele>438.53333</ele>
<time>2011-08-03T08:36:25Z</time>
</trkpt>
<trkpt lat="49.13858823" lon="11.44329276">
<ele>438.3</ele>
<time>2011-08-03T08:36:29Z</time>
</trkpt>
<trkpt lat="49.13894054" lon="11.44335864">
<ele>439.26666</ele>
<time>2011-08-03T08:36:35Z</time>
</trkpt>
<trkpt lat="49.1391826" lon="11.44337914">
<ele>440.2</ele>
<time>2011-08-03T08:36:39Z</time>
</trkpt>
<trkpt lat="49.13936526" lon="11.44340254">
<ele>441.03333</ele>
<time>2011-08-03T08:36:43Z</time>
</trkpt>
<trkpt lat="49.13955434" lon="11.44337733">
<ele>441.6</ele>
<time>2011-08-03T08:36:48Z</time>
</trkpt>
<trkpt lat="49.13974286" lon="11.44341206">
<ele>441.8</ele>
<time>2011-08-03T08:36:52Z</time>
</trkpt>
<trkpt lat="49.13994228" lon="11.44341701">
<ele>441.86667</ele>
<time>2011-08-03T08:36:56Z</time>
</trkpt>
<trkpt lat="49.14022647" lon="11.44344412">
<ele>440.9</ele>
<time>2011-08-03T08:37:01Z</time>
</trkpt>
<trkpt lat="49.14040792" lon="11.44346657">
<ele>439.63333</ele>
<time>2011-08-03T08:37:04Z</time>
</trkpt>
<trkpt lat="49.14062247" lon="11.44344097">
<ele>438.7</ele>
<time>2011-08-03T08:37:08Z</time>
</trkpt>
<trkpt lat="49.14095089" lon="11.44351345">
<ele>438.53333</ele>
<time>2011-08-03T08:37:14Z</time>
</trkpt>
<trkpt lat="49.14112452" lon="11.44368897">
<ele>438.86667</ele>
<time>2011-08-03T08:37:19Z</time>
</trkpt>
<trkpt lat="49.14128504" lon="11.44383886">
<ele>438.66666</ele>
<time>2011-08-03T08:37:24Z</time>
</trkpt>
<trkpt lat="49.14144057" lon="11.44397821">
<ele>437.33334</ele>
<time>2011-08-03T08:37:28Z</time>
</trkpt>
<trkpt lat="49.14161377" lon="11.44416345">
<ele>435.7</ele>
<time>2011-08-03T08:37:32Z</time>
</trkpt>
<trkpt lat="49.14183546" lon="11.44427833">
<ele>433.83334</ele>
<time>2011-08-03T08:37:36Z</time>
</trkpt>
<trkpt lat="49.14204548" lon="11.44432801">
<ele>433.63333</ele>
<time>2011-08-03T08:37:40Z</time>
</trkpt>
<trkpt lat="49.14223514" lon="11.44426165">
<ele>433.9</ele>
<time>2011-08-03T08:37:44Z</time>
</trkpt>
<trkpt lat="49.14240163" lon="11.44411889">
<ele>434.7</ele>
<time>2011-08-03T08:37:48Z</time>
</trkpt>
<trkpt lat="49.14259488" lon="11.44389896">
<ele>435.4</ele>
<time>2011-08-03T08:37:53Z</time>
</trkpt>
<trkpt lat="49.14278492" lon="11.44385688">
<ele>436.16666</ele>
<time>2011-08-03T08:37:58Z</time>
</trkpt>
<trkpt lat="49.14287381" lon="11.44413515">
<ele>436.6</ele>
<time>2011-08-03T08:38:03Z</time>
</trkpt>
<trkpt lat="49.14299046" lon="11.44444587">
<ele>436.86667</ele>
<time>2011-08-03T08:38:08Z</time>
</trkpt>
<trkpt lat="49.14307429" lon="11.44468875">
<ele>436.96667</ele>
<time>2011-08-03T08:38:12Z</time>
</trkpt>
<trkpt lat="49.14320977" lon="11.44491996">
<ele>437.33334</ele>
<time>2011-08-03T08:38:16Z</time>
</trkpt>
<trkpt lat="49.14337429" lon="11.44513146">
<ele>437.3</ele>
<time>2011-08-03T08:38:20Z</time>
</trkpt>
<trkpt lat="49.14354834" lon="11.44530325">
<ele>437.6</ele>
<time>2011-08-03T08:38:24Z</time>
</trkpt>
<trkpt lat="49.14374975" lon="11.44542008">
<ele>438.2</ele>
<time>2011-08-03T08:38:28Z</time>
</trkpt>
<trkpt lat="49.14393047" lon="11.44555282">
<ele>439.3</ele>
<time>2011-08-03T08:38:32Z</time>
</trkpt>
<trkpt lat="49.14401128" lon="11.44580791">
<ele>439.7</ele>
<time>2011-08-03T08:38:36Z</time>
</trkpt>
<trkpt lat="49.1440488" lon="11.44616058">
<ele>438.66666</ele>
<time>2011-08-03T08:38:40Z</time>
</trkpt>
<trkpt lat="49.14404631" lon="11.44659922">
<ele>437.06668</ele>
<time>2011-08-03T08:38:45Z</time>
</trkpt>
<trkpt lat="49.14398513" lon="11.44689947">
<ele>436.0</ele>
<time>2011-08-03T08:38:49Z</time>
</trkpt>
<trkpt lat="49.14391847" lon="11.44718718">
<ele>436.06668</ele>
<time>2011-08-03T08:38:53Z</time>
</trkpt>
<trkpt lat="49.14377792" lon="11.4475021">
<ele>437.46667</ele>
<time>2011-08-03T08:38:58Z</time>
</trkpt>
<trkpt lat="49.14366797" lon="11.44777068">
<ele>438.46667</ele>
<time>2011-08-03T08:39:02Z</time>
</trkpt>
<trkpt lat="49.1435237" lon="11.44802237">
<ele>439.76666</ele>
<time>2011-08-03T08:39:07Z</time>
</trkpt>
<trkpt lat="49.1434343" lon="11.44831871">
<ele>439.93332</ele>
<time>2011-08-03T08:39:11Z</time>
</trkpt>
<trkpt lat="49.14336689" lon="11.4486119">
<ele>440.13333</ele>
<time>2011-08-03T08:39:15Z</time>
</trkpt>
<trkpt lat="49.14331401" lon="11.44889108">
<ele>440.0</ele>
<time>2011-08-03T08:39:19Z</time>
</trkpt>
<trkpt lat="49.14324442" lon="11.44924792">
<ele>440.1</ele>
<time>2011-08-03T08:39:24Z</time>
</trkpt>
<trkpt lat="49.14318513" lon="11.44955875">
<ele>440.5</ele>
<time>2011-08-03T08:39:29Z</time>
</trkpt>
<trkpt lat="49.14314125" lon="11.44982745">
<ele>441.16666</ele>
<time>2011-08-03T08:39:34Z</time>
</trkpt>
<trkpt lat="49.1430948" lon="11.45010016">
<ele>442.1</ele>
<time>2011-08-03T08:39:40Z</time>
</trkpt>
<trkpt lat="49.14306655" lon="11.45039769">
<ele>443.0</ele>
<time>2011-08-03T08:39:47Z</time>
</trkpt>
<trkpt lat="49.14300316" lon="11.45068836">
<ele>443.4</ele>
<time>2011-08-03T08:39:54Z</time>
</trkpt>
<trkpt lat="49.14291892" lon="11.45094531">
<ele>442.83334</ele>
<time>2011-08-03T08:40:05Z</time>
</trkpt>
<trkpt lat="49.14290886" lon="11.45123878">
<ele>443.53333</ele>
<time>2011-08-03T08:44:28Z</time>
</trkpt>
<trkpt lat="49.1428615" lon="11.45159118">
<ele>444.66666</ele>
<time>2011-08-03T08:44:37Z</time>
</trkpt>
<trkpt lat="49.14281024" lon="11.45186594">
<ele>446.73334</ele>
<time>2011-08-03T08:44:43Z</time>
</trkpt>
<trkpt lat="49.14275735" lon="11.45217078">
<ele>447.83334</ele>
<time>2011-08-03T08:44:50Z</time>
</trkpt>
<trkpt lat="49.14270765" lon="11.45245843">
<ele>448.9</ele>
<time>2011-08-03T08:44:57Z</time>
</trkpt>
<trkpt lat="49.14265093" lon="11.45275855">
<ele>449.86667</ele>
<time>2011-08-03T08:45:04Z</time>
</trkpt>
<trkpt lat="49.1425935" lon="11.45306488">
<ele>450.63333</ele>
<time>2011-08-03T08:45:11Z</time>
</trkpt>
<trkpt lat="49.14254032" lon="11.45336176">
<ele>451.33334</ele>
<time>2011-08-03T08:45:18Z</time>
</trkpt>
<trkpt lat="49.14248999" lon="11.45365799">
<ele>452.2</ele>
<time>2011-08-03T08:45:25Z</time>
</trkpt>
<trkpt lat="49.14243524" lon="11.45394957">
<ele>452.33334</ele>
<time>2011-08-03T08:45:32Z</time>
</trkpt>
<trkpt lat="49.14238091" lon="11.45424067">
<ele>452.7</ele>
<time>2011-08-03T08:45:39Z</time>
</trkpt>
<trkpt lat="49.14232875" lon="11.45453681">
<ele>452.93332</ele>
<time>2011-08-03T08:45:46Z</time>
</trkpt>
<trkpt lat="49.14224857" lon="11.45491676">
<ele>454.1</ele>
<time>2011-08-03T08:45:55Z</time>
</trkpt>
<trkpt lat="49.14219639" lon="11.45522241">
<ele>455.16666</ele>
<time>2011-08-03T08:46:02Z</time>
</trkpt>
<trkpt lat="49.14213548" lon="11.45552181">
<ele>456.2</ele>
<time>2011-08-03T08:46:09Z</time>
</trkpt>
<trkpt lat="49.14206316" lon="11.45581572">
<ele>456.9</ele>
<time>2011-08-03T08:46:16Z</time>
</trkpt>
<trkpt lat="49.14194521" lon="11.45606455">
<ele>457.5</ele>
<time>2011-08-03T08:46:23Z</time>
</trkpt>
<trkpt lat="49.14183379" lon="11.45631752">
<ele>458.53333</ele>
<time>2011-08-03T08:46:30Z</time>
</trkpt>
<trkpt lat="49.1417727" lon="11.4566172">
<ele>459.6</ele>
<time>2011-08-03T08:46:37Z</time>
</trkpt>
<trkpt lat="49.14170785" lon="11.45688813">
<ele>461.03333</ele>
<time>2011-08-03T08:46:44Z</time>
</trkpt>
<trkpt lat="49.14163405" lon="11.45715727">
<ele>462.36667</ele>
<time>2011-08-03T08:46:51Z</time>
</trkpt>
<trkpt lat="49.1415317" lon="11.45743127">
<ele>463.9</ele>
<time>2011-08-03T08:47:00Z</time>
</trkpt>
<trkpt lat="49.14170346" lon="11.45772907">
<ele>466.23334</ele>
<time>2011-08-03T08:47:13Z</time>
</trkpt>
<trkpt lat="49.14182657" lon="11.45796135">
<ele>467.8</ele>
<time>2011-08-03T08:47:19Z</time>
</trkpt>
<trkpt lat="49.14201145" lon="11.45820265">
<ele>469.96667</ele>
<time>2011-08-03T08:47:26Z</time>
</trkpt>
<trkpt lat="49.14217187" lon="11.45839283">
<ele>470.9</ele>
<time>2011-08-03T08:47:32Z</time>
</trkpt>
<trkpt lat="49.14235125" lon="11.45858018">
<ele>473.73334</ele>
<time>2011-08-03T08:47:39Z</time>
</trkpt>
<trkpt lat="49.14250128" lon="11.45876143">
<ele>475.5</ele>
<time>2011-08-03T08:47:45Z</time>
</trkpt>
<trkpt lat="49.14272414" lon="11.45886241">
<ele>476.96667</ele>
<time>2011-08-03T08:47:52Z</time>
</trkpt>
<trkpt lat="49.14289201" lon="11.45896801">
<ele>476.7</ele>
<time>2011-08-03T08:47:58Z</time>
</trkpt>
<trkpt lat="49.14295983" lon="11.45935523">
<ele>476.46667</ele>
<time>2011-08-03T08:48:05Z</time>
</trkpt>
<trkpt lat="49.14291116" lon="11.4596578">
<ele>475.36667</ele>
<time>2011-08-03T08:48:12Z</time>
</trkpt>
<trkpt lat="49.14286961" lon="11.45992694">
<ele>474.4</ele>
<time>2011-08-03T08:48:18Z</time>
</trkpt>
<trkpt lat="49.14283673" lon="11.46021868">
<ele>473.23334</ele>
<time>2011-08-03T08:48:24Z</time>
</trkpt>
<trkpt lat="49.14280834" lon="11.46049991">
<ele>473.26666</ele>
<time>2011-08-03T08:48:32Z</time>
</trkpt>
<trkpt lat="49.1427322" lon="11.46078082">
<ele>473.23334</ele>
<time>2011-08-03T08:48:40Z</time>
</trkpt>
<trkpt lat="49.14277601" lon="11.46106378">
<ele>473.3</ele>
<time>2011-08-03T08:48:50Z</time>
</trkpt>
<trkpt lat="49.14285864" lon="11.46131092">
<ele>474.06668</ele>
<time>2011-08-03T08:49:00Z</time>
</trkpt>
<trkpt lat="49.14292033" lon="11.46157276">
<ele>474.93332</ele>
<time>2011-08-03T08:49:11Z</time>
</trkpt>
<trkpt lat="49.14299831" lon="11.46183482">
<ele>476.5</ele>
<time>2011-08-03T08:49:24Z</time>
</trkpt>
<trkpt lat="49.14283708" lon="11.46200765">
<ele>476.73334</ele>
<time>2011-08-03T08:49:29Z</time>
</trkpt>
<trkpt lat="49.14265655" lon="11.46201521">
<ele>476.53333</ele>
<time>2011-08-03T08:49:38Z</time>
</trkpt>
</trkseg>
</trk>
<extensions>
<om:bpm  xmlns:om="http://www.oruxmaps.com/oruxmapsextensions/1/0">
</om:bpm>
</extensions>
</gpx>
